[[{"header":{"parameterUnit":"m.s-1","parameterCategory":1,"la1":30.6,"la2":29.2853,"lo1":-89.7004,"lo2":-87.6739,"dy":0.0162,"dx":0.0183,"nx":112,"ny":82,"refTime":"2023-09-19T18:00:00:Z","depth":0,"parameterNumber":2,"parameterNumberName":"U-component_of_WINDS"},"data":[0.0,0.0,0.0,0.0,0.0,0.0,0.0,0.0,0.0,0.0,0.0,0.0,0.0,0.0,0.0,0.0,0.0,0.0,0.0,0.0,0.0,0.0,0.0,0.0,0.0,0.0,0.0,0.0,0.0,0.0,0.0,0.0,0.0,0.0,0.0,0.0,0.0,0.0,0.0,0.0,0.0,0.0,0.0,0.0,0.0,0.0,0.0,0.0,0.0,0.0,0.0,0.0,0.0,0.0,0.0,0.0,0.0,0.0,0.0,0.0,0.0,0.0,0.0,0.0,0.0,0.0,0.0,0.0,0.0,0.0,0.0,0.0,0.0,0.0,0.0,0.0,0.0,0.0,0.0,0.0,0.0,0.0,0.0,0.0,0.0,0.0,0.0,0.0,0.0,0.0,0.0,2.3057,2.3446,2.3951,2.4473,2.4261,2.4306,2.469,0.0,0.0,0.0,0.0,0.0,0.0,0.0,0.0,0.0,0.0,0.0,0.0,0.0,0.0,0.0,0.0,0.0,0.0,0.0,0.0,0.0,0.0,0.0,0.0,0.0,0.0,0.0,0.0,0.0,0.0,0.0,0.0,0.0,0.0,0.0,0.0,0.0,0.0,0.0,0.0,0.0,0.0,0.0,0.0,0.0,0.0,0.0,0.0,0.0,0.0,0.0,0.0,0.0,0.0,0.0,0.0,0.0,0.0,0.0,0.0,0.0,0.0,0.0,0.0,0.0,0.0,0.0,0.0,0.0,0.0,0.0,0.0,0.0,0.0,0.0,0.0,0.0,0.0,0.0,0.0,0.0,0.0,0.0,0.0,0.0,0.0,0.0,0.0,0.0,0.0,0.0,0.0,0.0,0.0,0.0,0.0,0.0,0.0,0.0,0.0,0.0,0.0,0.0,0.0,2.2574,2.2838,2.3223,2.3428,2.3359,2.3836,2.4078,2.3961,0.0,0.0,0.0,0.0,0.0,0.0,0.0,0.0,0.0,0.0,0.0,0.0,0.0,0.0,0.0,0.0,0.0,0.0,0.0,0.0,0.0,0.0,0.0,0.0,0.0,0.0,0.0,0.0,0.0,0.0,0.0,0.0,0.0,0.0,0.0,0.0,0.0,0.0,0.0,0.0,0.0,0.0,0.0,0.0,0.0,0.0,0.0,0.0,0.0,0.0,0.0,0.0,0.0,0.0,0.0,0.0,0.0,0.0,0.0,0.0,0.0,0.0,0.0,0.0,0.0,0.0,0.0,0.0,0.0,0.0,0.0,0.0,0.0,0.0,0.0,0.0,0.0,0.0,0.0,0.0,0.0,0.0,0.0,0.0,0.0,0.0,0.0,0.0,0.0,0.0,0.0,0.0,0.0,0.0,0.0,0.0,0.0,0.0,0.0,0.0,0.0,0.0,0.0,2.2485,2.2441,2.2574,2.2745,2.2872,2.2945,2.3232,2.3448,2.3644,2.3841,0.0,0.0,0.0,0.0,0.0,0.0,0.0,0.0,0.0,0.0,0.0,0.0,0.0,0.0,0.0,0.0,0.0,0.0,0.0,0.0,0.0,0.0,0.0,0.0,0.0,0.0,0.0,0.0,0.0,0.0,0.0,0.0,0.0,0.0,0.0,0.0,0.0,0.0,0.0,0.0,0.0,0.0,0.0,0.0,0.0,0.0,0.0,0.0,0.0,0.0,0.0,0.0,0.0,0.0,0.0,0.0,0.0,0.0,0.0,0.0,0.0,0.0,0.0,0.0,0.0,0.0,0.0,0.0,0.0,0.0,0.0,0.0,0.0,0.0,0.0,0.0,0.0,0.0,0.0,0.0,0.0,0.0,0.0,0.0,0.0,0.0,0.0,0.0,0.0,0.0,0.0,0.0,0.0,0.0,0.0,0.0,0.0,0.0,0.0,0.0,0.0,0.0,2.222,2.2264,2.2309,2.2309,2.2441,2.2662,2.275,2.2969,2.3363,2.3624,0.0,0.0,0.0,0.0,0.0,0.0,0.0,0.0,0.0,0.0,0.0,0.0,0.0,0.0,0.0,0.0,0.0,0.0,0.0,0.0,0.0,0.0,0.0,0.0,0.0,0.0,0.0,0.0,0.0,0.0,0.0,0.0,0.0,0.0,0.0,0.0,0.0,0.0,0.0,0.0,0.0,0.0,0.0,0.0,0.0,0.0,0.0,0.0,0.0,0.0,0.0,0.0,0.0,0.0,0.0,0.0,0.0,0.0,0.0,0.0,0.0,0.0,0.0,0.0,0.0,0.0,0.0,0.0,0.0,0.0,0.0,0.0,0.0,0.0,0.0,0.0,0.0,0.0,0.0,0.0,0.0,0.0,0.0,0.0,0.0,0.0,0.0,0.0,0.0,0.0,0.0,0.0,0.0,0.0,0.0,0.0,0.0,0.0,0.0,0.0,0.0,0.0,2.1616,2.182,2.2087,2.2106,2.2176,2.2397,2.2662,2.2882,2.3101,2.3363,0.0,0.0,0.0,0.0,0.0,0.0,0.0,0.0,0.0,0.0,0.0,0.0,0.0,0.0,0.0,0.0,0.0,0.0,0.0,0.0,0.0,0.0,0.0,0.0,0.0,0.0,0.0,0.0,0.0,0.0,0.0,0.0,0.0,0.0,0.0,0.0,0.0,0.0,0.0,0.0,0.0,0.0,0.0,0.0,0.0,0.0,0.0,0.0,0.0,0.0,0.0,0.0,0.0,0.0,0.0,0.0,0.0,0.0,0.0,0.0,0.0,0.0,0.0,0.0,0.0,0.0,0.0,0.0,0.0,0.0,0.0,0.0,0.0,0.0,0.0,0.0,0.0,0.0,0.0,0.0,0.0,0.0,0.0,0.0,0.0,0.0,0.0,0.0,0.0,0.0,0.0,0.0,0.0,0.0,0.0,0.0,0.0,0.0,0.0,0.0,0.0,0.0,2.1302,2.1571,0.0,2.1794,2.1954,2.2176,2.2309,2.253,2.2882,0.0,0.0,0.0,0.0,0.0,0.0,0.0,0.0,0.0,0.0,0.0,0.0,0.0,0.0,0.0,0.0,0.0,0.0,0.0,0.0,0.0,0.0,0.0,0.0,0.0,0.0,0.0,0.0,0.0,0.0,0.0,0.0,0.0,0.0,0.0,0.0,0.0,0.0,0.0,0.0,0.0,0.0,0.0,0.0,0.0,0.0,0.0,0.0,0.0,0.0,0.0,0.0,0.0,0.0,0.0,0.0,0.0,0.0,0.0,0.0,0.0,0.0,0.0,0.0,0.0,0.0,0.0,0.0,0.0,0.0,0.0,0.0,0.0,0.0,0.0,0.0,0.0,0.0,0.0,0.0,0.0,0.0,0.0,0.0,0.0,0.0,0.0,0.0,0.0,0.0,0.0,0.0,0.0,0.0,0.0,0.0,0.0,0.0,0.0,0.0,0.0,0.0,2.0382,2.088,2.1212,0.0,2.1463,2.1705,2.1883,2.2017,2.2239,2.253,0.0,0.0,0.0,0.0,0.0,0.0,0.0,0.0,0.0,0.0,0.0,0.0,0.0,0.0,0.0,0.0,0.0,0.0,0.0,0.0,0.0,0.0,0.0,0.0,0.0,0.0,0.0,0.0,0.0,0.0,0.0,0.0,0.0,0.0,0.0,0.0,0.0,0.0,0.0,0.0,0.0,0.0,0.0,0.0,0.0,0.0,0.0,0.0,0.0,0.0,0.0,0.0,0.0,0.0,0.0,0.0,0.0,0.0,0.0,0.0,0.0,0.0,0.0,0.0,0.0,0.0,0.0,0.0,0.0,0.0,0.0,0.0,0.0,0.0,0.0,0.0,0.0,0.0,0.0,0.0,0.0,0.0,0.0,0.0,0.0,0.0,0.0,0.0,0.0,0.0,0.0,0.0,0.0,0.0,0.0,0.0,0.0,0.0,0.0,0.0,0.0,0.0,1.9837,2.0382,2.0789,2.0952,2.1239,2.1392,2.1392,2.1839,2.2087,0.0,0.0,0.0,0.0,0.0,0.0,0.0,0.0,0.0,0.0,0.0,0.0,0.0,0.0,0.0,0.0,0.0,0.0,0.0,0.0,0.0,0.0,0.0,0.0,0.0,0.0,0.0,0.0,0.0,0.0,0.0,0.0,0.0,0.0,0.0,0.0,0.0,0.0,0.0,0.0,0.0,0.0,0.0,0.0,0.0,0.0,0.0,0.0,0.0,0.0,0.0,0.0,0.0,0.0,0.0,0.0,0.0,0.0,0.0,0.0,0.0,0.0,0.0,0.0,0.0,0.0,0.0,0.0,0.0,0.0,0.0,0.0,0.0,0.0,0.0,0.0,0.0,0.0,0.0,0.0,0.0,0.0,0.0,0.0,0.0,0.0,0.0,0.0,0.0,0.0,0.0,0.0,0.0,0.0,0.0,0.0,0.0,0.0,0.0,0.0,0.0,0.0,0.0,1.8765,1.9592,2.0246,2.0473,2.088,2.1195,2.1392,2.1526,2.175,2.2106,0.0,0.0,0.0,0.0,0.0,0.0,0.0,0.0,0.0,0.0,0.0,0.0,0.0,0.0,0.0,0.0,0.0,0.0,0.0,0.0,0.0,0.0,0.0,0.0,0.0,0.0,0.0,0.0,0.0,0.0,0.0,0.0,0.0,0.0,0.0,0.0,0.0,0.0,0.0,0.0,0.0,0.0,0.0,0.0,0.0,0.0,0.0,0.0,0.0,0.0,0.0,0.0,0.0,0.0,0.0,0.0,0.0,0.0,0.0,0.0,0.0,0.0,0.0,0.0,0.0,0.0,0.0,0.0,0.0,0.0,0.0,0.0,0.0,0.0,0.0,0.0,0.0,0.0,0.0,0.0,0.0,0.0,0.0,0.0,0.0,0.0,0.0,0.0,0.0,0.0,0.0,0.0,0.0,0.0,0.0,0.0,0.0,0.0,0.0,0.0,0.0,0.0,1.7885,1.8765,1.9455,1.9837,2.0382,2.0789,2.0942,2.1105,2.1419,2.1794,0.0,0.0,0.0,0.0,0.0,0.0,0.0,0.0,0.0,0.0,0.0,0.0,0.0,0.0,0.0,0.0,0.0,0.0,0.0,0.0,0.0,0.0,0.0,0.0,0.0,0.0,0.0,0.0,0.0,0.0,0.0,0.0,0.0,0.0,0.0,0.0,0.0,0.0,0.0,0.0,0.0,0.0,0.0,0.0,0.0,0.0,0.0,0.0,0.0,0.0,0.0,0.0,0.0,0.0,0.0,0.0,0.0,0.0,0.0,0.0,0.0,0.0,0.0,0.0,0.0,0.0,0.0,0.0,0.0,0.0,0.0,0.0,0.0,0.0,0.0,0.0,0.0,0.0,0.0,0.0,0.0,0.0,0.0,0.0,0.0,0.0,0.0,0.0,0.0,0.0,0.0,0.0,0.0,0.0,0.0,0.0,0.0,0.0,0.0,0.0,0.0,0.0,1.7091,1.7839,1.8488,1.9042,1.9745,2.0201,2.0246,2.0637,2.0997,2.1302,0.0,0.0,0.0,0.0,0.0,0.0,0.0,0.0,0.0,0.0,0.0,0.0,0.0,0.0,0.0,0.0,0.0,0.0,0.0,0.0,0.0,0.0,0.0,0.0,0.0,0.0,0.0,0.0,0.0,0.0,0.0,0.0,0.0,0.0,0.0,0.0,0.0,0.0,0.0,0.0,0.0,0.0,0.0,0.0,0.0,0.0,0.0,0.0,0.0,0.0,0.0,0.0,0.0,0.0,0.0,0.0,0.0,0.0,0.0,0.0,0.2908,0.0,0.0,0.0,0.0,0.0,0.0,0.0,0.0,0.0,0.0,0.0,0.0,0.0,0.0,0.0,0.0,0.0,0.0,0.0,0.0,0.0,0.0,0.0,0.0,0.0,0.0,0.0,0.0,0.0,0.0,0.0,0.0,0.0,0.0,0.0,0.0,0.0,0.0,0.0,0.0,0.0,1.6339,1.6889,1.7498,1.8272,1.8827,1.9288,1.9729,1.9973,2.0246,2.0518,2.0564,0.0,0.0,0.0,0.0,0.0,0.0,0.0,0.0,0.0,0.0,0.0,0.0,0.0,0.0,0.0,0.0,0.0,0.0,0.0,0.0,0.0,0.0,0.0,0.0,0.0,0.0,0.0,0.0,0.0,0.0,0.0,0.0,0.0,0.0,0.0,0.0,0.0,0.0,0.0,0.0,0.0,0.0,0.0,0.0,0.0,0.0,0.0,0.0,0.0,0.0,0.0,0.0,0.0,0.0,0.0,0.0,0.0,0.0,0.0,0.0,0.2485,0.0,0.0,0.0,0.0,0.0,0.0,0.0,0.0,0.0,0.0,0.0,0.0,0.0,0.0,0.0,0.0,0.0,0.0,0.0,0.0,0.0,0.0,0.0,0.0,0.0,0.0,0.0,0.0,0.0,0.0,0.0,0.0,0.0,0.0,0.0,0.0,0.0,0.0,0.0,0.0,1.5391,1.59,1.648,1.7293,1.7807,1.8257,1.8657,1.8904,1.915,1.9363,1.9409,0.0,0.0,0.0,0.0,0.0,0.0,0.0,0.0,0.0,0.0,0.0,0.0,0.0,0.0,0.0,0.0,0.0,0.0,0.0,0.0,0.0,0.0,0.0,0.0,0.0,0.0,0.0,0.0,0.0,0.0,0.0,0.0,0.0,0.0,0.0,0.0,0.0,0.0,0.0,0.0,0.0,0.0,0.0,0.0,0.0,0.0,0.0,0.0,0.0,0.0,0.0,0.0,0.0,-0.2892,-0.2368,-0.1958,-0.1268,-0.0795,-0.0396,0.0564,0.1466,0.224,0.0,0.0,0.0,0.0,0.0,0.0,0.0,0.0,0.0,0.0,0.0,0.0,0.0,0.0,0.0,0.0,0.0,0.0,0.0,0.0,0.0,0.0,0.0,0.0,0.0,1.3032,1.3184,0.0,0.0,0.0,0.0,0.0,0.0,0.0,0.0,0.0,0.0,0.0,0.0,1.4496,1.4914,1.5486,1.6244,1.6763,1.7138,1.7404,1.7652,1.7839,1.801,1.7963,1.8056,0.0,0.0,0.0,0.0,0.0,0.0,0.0,0.0,0.0,0.0,0.0,0.0,0.0,0.0,0.0,0.0,0.0,0.0,0.0,0.0,0.0,0.0,0.0,0.0,0.0,0.0,0.0,0.0,0.0,0.0,0.0,0.0,-0.3409,-0.4461,0.0,0.0,0.0,0.0,0.0,0.0,0.0,0.0,0.0,0.0,0.0,0.0,0.0,0.0,-0.6584,-0.6105,-0.5515,-0.4842,-0.4152,-0.3599,-0.3147,-0.2733,-0.2306,-0.1875,-0.1117,0.0,0.169,0.2211,0.0,0.0,0.0,0.0,0.0,0.0,0.0,0.0,0.0,0.0,0.0,0.0,0.0,0.0,0.0,0.0,0.0,0.0,0.0,0.0,0.0,0.0,1.2654,1.3112,1.3275,1.3247,0.0,1.2792,1.2565,1.2783,0.0,0.0,0.0,0.0,0.0,0.0,0.0,0.0,1.3956,1.4244,1.4675,1.5248,1.5724,1.6103,1.6372,1.6419,1.6466,1.6466,1.6278,1.617,1.617,1.5947,0.0,0.0,0.0,0.0,0.0,0.0,0.0,0.0,0.0,0.0,0.0,0.0,0.0,0.0,0.0,0.0,0.0,0.0,0.0,0.0,0.0,0.0,0.0,0.0,0.0,0.0,0.0,0.0,0.0,-0.4729,-0.5234,-0.5973,-0.627,-0.6565,0.0,0.0,0.0,0.0,0.0,0.0,0.0,0.0,0.0,-0.7732,-0.8018,-0.7928,-0.7583,-0.746,-0.6979,-0.624,-0.5702,-0.5232,-0.4854,-0.4269,-0.3762,-0.3329,-0.2414,-0.1257,0.013,0.1139,0.1788,0.2113,0.0,0.0,0.0,0.0,0.0,0.4491,0.4779,0.0,0.0,0.0,0.0,0.0,0.0,0.0,0.0,0.0,0.0,0.0,0.0,0.0,0.0,1.2228,1.2446,1.258,1.2646,1.2384,1.2267,0.0,1.2492,1.2527,1.2489,0.0,0.0,0.0,0.0,0.0,1.3244,1.3485,1.3908,1.458,1.4819,1.5057,1.5343,1.5343,1.5296,1.5153,1.4997,1.4949,1.4949,1.4867,1.4723,0.0,0.0,0.0,0.0,0.0,0.0,0.0,0.0,0.0,0.0,0.0,0.0,0.0,0.0,0.0,0.0,0.0,0.0,0.0,0.0,0.0,0.0,0.0,0.0,0.0,0.0,0.0,0.0,-0.6235,-0.6672,-0.719,-0.7371,-0.7552,0.0,0.0,0.0,0.0,0.0,0.0,-0.8138,-0.8291,-0.8416,-0.8508,-0.8736,-0.867,-0.8283,-0.8411,-0.8104,-0.7447,-0.71,-0.6774,-0.6403,-0.579,-0.5273,-0.4774,-0.3715,-0.2554,-0.1407,0.0129,0.1201,0.1869,0.227,0.2537,0.2739,0.3085,0.3317,0.3492,0.383,0.4118,0.4347,0.4467,0.0,0.4925,0.5122,0.0,0.0,0.0,0.0,0.7986,0.8754,0.0,1.0468,1.1291,1.1673,1.2001,1.2327,1.2231,1.2154,0.0,1.2254,1.2164,1.2102,0.0,0.0,0.0,0.0,1.237,1.2662,1.2905,1.3292,1.3919,1.4064,1.416,1.44,1.4352,1.416,1.3908,1.3859,1.3763,1.3715,1.3715,1.3653,1.3468,0.0,0.0,0.0,0.0,0.0,0.0,0.0,0.0,0.0,0.0,0.0,0.0,0.0,0.0,0.0,0.0,0.0,0.0,0.0,0.0,0.0,0.0,0.0,0.0,0.0,0.0,0.0,0.0,0.0,-0.7615,-0.7612,0.0,0.0,0.0,0.0,-0.8092,-0.8144,-0.8263,-0.8394,-0.8617,-0.8747,-0.8753,-0.8986,-0.8987,-0.8863,-0.863,-0.8424,-0.8323,-0.7901,-0.771,-0.7615,-0.7201,-0.6741,-0.6325,-0.5178,-0.39,-0.2484,-0.0331,0.0913,0.1606,0.2216,0.2494,0.2457,0.2724,0.2829,0.2883,0.3253,0.3354,0.3472,0.4054,0.4419,0.4636,0.456,0.4592,0.0,0.0,0.5429,0.6209,0.7371,0.8312,0.9361,1.0798,1.14,1.1782,1.2273,1.2231,1.2187,0.0,1.2196,1.2013,1.2254,0.0,1.198,1.198,1.2029,1.2127,1.237,1.2662,1.2905,1.3147,1.3389,1.3534,1.3545,1.334,1.3098,1.2905,1.2662,1.237,1.2127,1.2127,1.218,1.2404,1.219,0.0,0.0,0.0,0.0,0.0,0.0,0.0,0.0,0.0,0.0,0.0,0.0,0.0,0.0,0.0,0.0,0.0,0.0,0.0,0.0,0.0,0.0,0.0,0.0,0.0,0.0,0.0,0.0,-0.7918,-0.8228,0.0,-0.8513,-0.8405,-0.8383,-0.8574,-0.8557,-0.8633,-0.8685,-0.8916,-0.9003,-0.9003,-0.916,-0.915,-0.8884,-0.8782,-0.8708,-0.8517,-0.8376,-0.822,-0.7915,-0.7511,-0.7022,-0.6451,-0.5041,-0.3696,-0.2217,-0.0535,0.0596,0.1242,0.195,0.2251,0.2219,0.2496,0.2607,0.2663,0.2991,0.3277,0.3514,0.3899,0.4021,0.4073,0.4008,0.4101,0.4262,0.4329,0.4763,0.5485,0.6482,0.7426,0.8423,0.9919,1.0661,1.1227,1.1818,1.1919,1.1935,1.204,1.1811,1.1623,1.1578,1.1541,1.1492,1.1492,1.1639,1.1785,1.1883,1.2273,1.2613,1.2856,1.3098,1.3244,1.3244,1.305,1.2807,1.2565,1.2273,1.2078,1.198,1.198,1.2092,1.2314,1.2243,1.2164,0.0,0.0,0.0,0.0,0.0,0.0,0.0,0.0,0.0,0.0,0.0,0.0,0.0,0.0,0.0,0.0,0.0,0.0,0.0,0.0,0.0,0.0,0.0,0.0,0.0,0.0,-0.7856,-0.8005,-0.8296,-0.8559,-0.874,-0.8634,-0.8665,-0.8889,-0.8894,-0.8927,-0.8938,-0.9128,-0.9193,-0.9193,-0.9264,-0.9193,-0.8884,-0.8884,-0.8829,-0.859,-0.8456,-0.8323,-0.8056,-0.7588,-0.692,-0.625,-0.4769,-0.3293,-0.1882,-0.0404,0.0602,0.1261,0.1859,0.2113,0.2155,0.2305,0.2352,0.2409,0.2857,0.3209,0.3571,0.382,0.3877,0.3758,0.3698,0.3836,0.3924,0.3992,0.4372,0.4983,0.6038,0.6871,0.787,0.9423,1.0178,1.0749,1.1549,1.1603,1.1616,1.1667,1.1605,1.1472,1.1331,1.1246,1.1198,1.1198,1.1345,1.1492,1.159,1.1932,1.2224,1.2516,1.2662,1.271,1.271,1.2613,1.2419,1.2175,1.198,1.1834,1.1736,1.1736,1.1875,1.2122,1.1945,1.1644,1.1347,0.0,0.0,0.0,0.0,0.0,0.0,0.0,0.0,0.0,0.0,0.0,0.0,0.0,0.0,0.0,0.0,0.0,0.0,0.0,0.0,0.0,0.0,0.0,-0.7187,-0.7493,-0.7695,-0.7837,-0.7931,-0.8117,-0.8657,-0.8566,-0.8642,-0.9073,-0.9073,-0.9073,-0.9068,-0.917,-0.923,-0.923,-0.923,-0.9116,-0.8884,-0.8879,-0.876,-0.859,-0.8256,-0.8056,-0.7989,-0.7254,-0.6514,-0.5711,-0.43,-0.2888,-0.1412,-0.0067,0.0943,0.1683,0.2019,0.2221,0.2213,0.2151,0.2127,0.2181,0.2804,0.3209,0.351,0.3822,0.3883,0.3763,0.37,0.364,0.3647,0.3927,0.4257,0.476,0.5982,0.6765,0.7654,0.9375,0.9899,1.0305,1.1434,1.1338,1.1157,1.1409,1.146,1.146,1.151,1.1331,1.1198,1.1198,1.1198,0.0,1.1541,1.159,1.1688,1.198,1.198,1.198,1.198,1.198,1.1883,1.1639,1.159,1.1492,1.1198,1.1198,1.1387,1.1761,1.1177,1.0506,0.9706,0.0,0.0,0.0,0.0,0.0,0.0,0.0,0.0,0.0,0.0,0.0,0.0,0.0,0.0,0.0,0.0,0.0,0.0,0.0,0.0,0.0,0.0,-0.5365,-0.6692,-0.7257,-0.7634,-0.7765,-0.8062,-0.834,-0.8443,-0.8419,-0.8445,-0.8513,-0.8509,-0.8474,-0.84,-0.8425,-0.844,-0.844,-0.844,-0.8336,-0.8114,-0.8114,-0.8006,-0.7794,-0.7455,-0.7054,-0.6447,-0.5711,-0.4839,-0.3833,-0.2486,-0.1277,-0.0336,0.0807,0.1616,0.2019,0.2154,0.2142,0.2117,0.2078,0.21,0.2123,0.2785,0.3086,0.3207,0.3745,0.3916,0.388,0.3777,0.3733,0.3758,0.3951,0.4257,0.476,0.5982,0.6871,0.7814,0.921,0.9815,1.0233,1.0758,1.0713,1.069,1.0937,1.0987,1.1036,1.1234,1.1236,1.1198,1.1198,0.0,0.0,1.1296,1.1492,1.1639,1.1688,1.1883,1.198,1.198,1.1834,1.1688,1.159,1.1443,1.1198,1.0904,1.0904,1.0947,1.0932,1.0407,0.9883,0.0,0.0,0.0,0.0,0.0,0.0,0.0,0.0,0.0,0.0,0.0,0.0,0.0,0.0,0.0,0.0,0.0,0.0,0.0,0.0,0.0,0.0,-0.4068,-0.4288,-0.525,-0.6026,-0.6463,-0.6544,-0.6747,-0.7097,-0.7515,-0.7486,-0.7574,-0.7853,-0.7808,-0.7746,-0.7647,-0.7643,-0.7643,-0.7643,-0.7643,-0.7545,-0.7348,-0.7344,-0.7177,-0.6853,-0.6518,-0.5912,-0.5171,-0.4437,-0.3564,0.0,-0.121,-0.0202,0.0539,0.1481,0.2019,0.0,0.0,0.0,0.0,0.0,0.2016,0.21,0.2777,0.3022,0.3086,0.3704,0.3855,0.3861,0.379,0.385,0.3965,0.4283,0.4704,0.5373,0.6654,0.7487,0.8263,0.9485,0.9939,1.016,1.059,1.0561,1.06,1.0952,0.0,0.0,1.1403,1.1312,1.1227,1.1321,1.1255,1.1227,0.0,1.1403,1.1443,1.1443,1.159,1.1688,1.1688,1.1541,0.0,0.0,0.0,1.0842,1.0427,1.0355,0.0,0.0,0.0,0.8927,0.0,0.0,0.0,0.0,0.7392,0.8091,0.0,0.0,0.0,0.0,0.0,0.0,0.0,0.0,0.0,0.0,0.0,0.0,0.0,0.0,0.0,0.0,-0.2936,-0.3082,-0.3152,-0.3822,-0.4421,-0.4701,-0.4786,-0.5117,-0.5952,-0.59,-0.6135,-0.6808,-0.6809,-0.6654,-0.6631,0.0,0.0,0.0,0.0,-0.6546,-0.6314,-0.6302,-0.608,-0.5591,-0.5248,-0.4705,-0.3964,-0.3161,-0.2286,-0.1277,-0.0269,0.0539,0.1212,0.1885,0.2217,0.2209,0.2114,0.2102,0.2093,0.2034,0.206,0.0,0.0,0.0,0.0,0.3704,0.3872,0.3836,0.383,0.3977,0.4214,0.4823,0.5433,0.6209,0.7654,0.8318,0.8871,1.0036,1.0171,1.0152,1.0642,1.0659,1.0733,1.1252,1.1347,1.146,1.1761,1.1491,1.1293,1.1491,1.1331,0.0,1.1491,1.135,1.1236,1.1264,0.0,0.0,1.1264,1.1215,1.1117,1.082,1.0672,1.0295,0.9646,0.9457,0.9082,0.842,0.8243,0.7648,0.6589,0.5986,0.5433,0.4983,0.632,0.7265,0.0,0.0,0.0,0.0,0.0,0.0,0.0,0.0,0.0,0.0,0.0,0.0,0.0,0.0,0.0,-0.0968,-0.0758,-0.0693,-0.0703,-0.0859,-0.1715,-0.3749,-0.3986,-0.4066,-0.4234,-0.4224,-0.4258,-0.4318,-0.4301,-0.4253,-0.4155,-0.4151,0.0,-0.4151,-0.4151,-0.4119,-0.4053,-0.401,-0.3959,-0.3691,0.0,0.0,-0.2083,-0.1076,-0.0336,0.0135,0.0942,0.1346,0.1548,0.2019,0.2192,0.2145,0.2075,0.2057,0.2031,0.2307,0.2412,0.2529,0.3147,0.3394,0.3455,0.3766,0.4021,0.4187,0.4133,0.447,0.0,0.5454,0.6047,0.6821,0.8097,0.8823,0.943,1.0147,1.0287,1.0329,1.0436,1.0343,1.0421,1.0993,1.1097,1.1252,1.1709,1.1614,1.1472,1.151,1.1331,1.1274,1.1491,1.1482,1.152,1.168,1.1699,1.1699,1.1699,1.1494,1.1238,1.0921,0.984,0.902,0.8588,0.783,0.7373,0.724,0.6649,0.6209,0.5986,0.5373,0.515,0.5318,0.5318,0.5931,0.0,0.0,0.0,0.0,0.0,0.0,0.0,0.0,0.0,0.0,0.0,-0.1269,0.0,0.0,0.0,0.0381,0.054,0.0624,0.0628,0.0628,0.0,-0.1726,-0.1882,-0.1961,-0.2195,-0.2195,-0.2251,-0.2424,-0.242,-0.2394,-0.2334,-0.2331,-0.2331,-0.2331,-0.2316,-0.2293,-0.2263,-0.2303,-0.2134,-0.1835,-0.1485,-0.1076,-0.0538,0.0,0.0539,0.1077,0.1414,0.1683,0.1952,0.229,0.2394,0.2348,0.2543,0.2499,0.2244,0.2412,0.259,0.2837,0.3332,0.3517,0.3579,0.401,0.431,0.4575,0.4833,0.5261,0.5769,0.6502,0.7154,0.782,0.8871,0.9485,0.9981,1.0421,1.0522,1.0566,1.0566,1.0601,1.0802,1.1229,1.138,1.1656,1.2018,1.1911,1.178,1.178,1.1642,1.1586,1.1751,1.1737,1.1709,1.1803,1.1813,1.1761,1.1615,1.0932,1.036,0.9891,0.8629,0.7768,0.7357,0.6619,0.6132,0.5909,0.5515,0.521,0.4875,0.476,0.476,0.4983,0.5206,0.5824,0.0,0.0,0.0,0.0,0.0,0.0,0.0,-0.1331,-0.0927,-0.0728,-0.0366,0.0147,0.0821,0.0906,0.1068,0.1468,0.1561,0.1571,0.1571,0.1571,0.1256,0.055,0.0314,0.0157,-0.0235,-0.0235,-0.0388,-0.0682,-0.0756,-0.0748,-0.073,-0.0729,-0.0729,-0.0729,-0.072,-0.0711,-0.0703,-0.0692,-0.0546,-0.0203,-0.0135,0.0202,0.0808,0.0875,0.1279,0.1885,0.1885,0.2087,0.2423,0.2694,0.2733,0.2757,0.3087,0.3009,0.2716,0.2723,0.2845,0.3147,0.3455,0.364,0.3764,0.4315,0.4717,0.5141,0.5726,0.6288,0.6852,0.7689,0.8282,0.8871,0.9706,1.0091,1.0366,1.0641,1.0688,1.0696,1.0743,1.0962,1.1181,1.1618,1.1837,1.211,1.2327,1.225,1.2128,1.209,1.1954,1.1898,1.2062,1.194,1.1898,1.1935,1.1935,1.1779,1.136,1.0424,0.9467,0.8666,0.7659,0.6856,0.624,0.57,0.519,0.4815,0.4763,0.454,0.4148,0.4424,0.4648,0.4871,0.5596,0.6265,-0.2875,-0.2091,-0.1334,-0.1138,-0.0621,-0.0142,0.0,0.0145,0.0443,0.0519,0.0823,0.1211,0.1686,0.1769,0.1932,0.227,0.2356,0.2357,0.2357,0.2357,0.2357,0.22,0.1571,0.1099,0.1099,0.1099,0.1011,0.091,0.0909,0.0899,0.095,0.0949,0.0949,0.0949,0.0865,0.0858,0.0856,0.0835,0.0892,0.0891,0.1219,0.1616,0.2019,0.229,0.2692,0.3026,0.3026,0.3026,0.3094,0.3161,0.3113,0.3041,0.3105,0.3236,0.3398,0.3383,0.3434,0.3455,0.3766,0.4071,0.4376,0.4742,0.5418,0.6239,0.6836,0.7502,0.8213,0.8841,0.9147,0.943,1.0091,1.0257,1.0366,1.0641,1.0688,1.0743,1.1017,1.1072,1.1291,1.1837,1.2001,1.211,1.2327,1.2363,1.2288,1.2118,1.1954,1.1898,1.2062,1.2062,1.2118,1.2297,1.2316,1.1991,1.1176,1.0577,0.9592,0.8164,0.7503,0.6674,0.5579,0.4968,0.4582,0.4536,0.426,0.4316,0.4819,0.4819,0.5262,0.6093,0.6427,0.6816,-0.2015,-0.1259,-0.0541,-0.0137,0.0353,0.0726,0.0811,0.1125,0.137,0.138,0.1696,0.2015,0.2181,0.2261,0.2265,0.0,0.2514,0.2514,0.2514,0.2514,0.2514,0.2514,0.22,0.1964,0.1964,0.1964,0.195,0.1993,0.1901,0.1879,0.192,0.1831,0.1824,0.1824,0.1787,0.1769,0.1769,0.1721,0.1834,0.2037,0.2161,0.2423,0.2759,0.2894,0.3096,0.3228,0.3228,0.3147,0.3191,0.3388,0.348,0.3417,0.361,0.3819,0.406,0.38,0.3844,0.4071,0.4626,0.4868,0.5114,0.5847,0.6514,0.7269,0.8045,0.8747,0.9323,0.9801,1.0017,1.0158,1.0665,1.0743,1.0852,1.1126,1.1236,1.1236,1.1345,1.1509,1.1673,1.1946,1.211,1.2273,1.2382,1.2382,1.2354,1.2269,1.2184,1.2156,1.225,1.226,1.2297,1.2372,1.2273,1.1891,1.1181,1.0421,0.9541,0.8374,0.7432,0.6599,0.5926,0.5373,0.5035,0.5035,0.5039,0.5154,0.5433,0.5931,0.6487,0.7093,0.7864,0.8423,-0.0991,-0.0337,0.0344,0.0775,0.1233,0.1564,0.1592,0.1845,0.2099,0.2039,0.2278,0.2514,0.2514,0.2514,0.2514,0.2514,0.2514,0.2514,0.2514,0.2514,0.2514,0.2514,0.2514,0.2514,0.2514,0.2514,0.2502,0.2472,0.2448,0.2418,0.238,0.2357,0.2342,0.2478,0.2426,0.2465,0.2526,0.2534,0.2635,0.2827,0.2827,0.3028,0.3362,0.343,0.3499,0.3499,0.3631,0.3604,0.356,0.4084,0.4169,0.4162,0.4482,0.476,0.488,0.4762,0.4742,0.4868,0.5483,0.579,0.6092,0.7011,0.7686,0.8336,0.9294,0.9853,1.0287,1.0807,1.085,1.0892,1.1321,1.1389,1.1445,1.1731,1.1786,1.1786,1.1842,1.1999,1.2165,1.2284,1.245,1.2616,1.2616,1.2616,1.2616,1.2616,1.2616,1.2569,1.2401,1.2382,1.2382,1.2382,1.2164,1.1782,1.1126,1.0468,0.9644,0.865,0.7709,0.6988,0.6543,0.6042,0.5764,0.5764,0.6042,0.6265,0.6543,0.726,0.787,0.8312,0.9306,0.9919,0.0603,0.1109,0.172,0.1742,0.2098,0.2465,0.2467,0.2491,0.2514,0.2514,0.2514,0.2514,0.2514,0.2514,0.2514,0.2514,0.2514,0.2514,0.2514,0.2514,0.2514,0.2514,0.2514,0.2514,0.0,0.2514,0.2502,0.2472,0.2469,0.2442,0.2382,0.2378,0.2512,0.2844,0.2878,0.3053,0.3365,0.3318,0.3273,0.3161,0.3161,0.3362,0.3768,0.4104,0.4241,0.4308,0.4641,0.4739,0.4679,0.5336,0.5569,0.5486,0.5796,0.5928,0.5908,0.6582,0.6399,0.5908,0.628,0.6766,0.7434,0.8111,0.8781,0.9451,1.0415,1.0853,1.1079,1.1778,1.182,1.1733,1.2069,1.2184,1.2184,1.2184,1.2184,1.2241,1.2527,1.2584,1.2698,1.2993,1.3051,1.3108,1.3108,1.3108,1.3108,1.3108,1.3108,1.2899,1.2438,1.2382,1.2382,1.2382,1.2164,1.1782,1.1126,1.0852,1.0139,0.8975,0.8595,0.8042,0.7099,0.6821,0.6659,0.6659,0.6932,0.7487,0.8429,0.8699,0.9306,1.0139,1.0468,1.0798,0.1357,0.1537,0.187,0.213,0.234,0.2474,0.2495,0.2507,0.2508,0.2488,0.2484,0.2478,0.2458,0.2454,0.2454,0.2454,0.2472,0.2561,0.2873,0.2891,0.2983,0.3297,0.3376,0.0,0.0,0.0,0.0,0.2888,0.3175,0.3304,0.3277,0.3225,0.3265,0.3324,0.3327,0.3353,0.3481,0.3435,0.3458,0.3684,0.4052,0.4571,0.5175,0.5309,0.5513,0.5714,0.5781,0.6,0.6177,0.6312,0.6473,0.654,0.6598,0.6733,0.6945,0.7622,0.7989,0.8111,0.8044,0.8294,0.8781,0.9451,1.0119,1.0725,1.1269,1.1771,1.2184,1.2301,1.2281,1.2253,1.2409,1.2488,1.2545,1.2726,1.2783,1.2831,1.2898,1.2946,1.2955,1.3069,1.3127,1.3127,1.3127,1.3127,1.3127,1.3127,1.3013,1.2814,1.2673,1.2531,1.2382,1.2382,1.2327,1.211,1.1728,1.1455,1.1017,1.0414,0.9919,0.9478,0.9147,0.892,0.8754,0.8754,0.903,0.9313,0.9644,1.0139,1.0523,1.0798,1.1345,1.1618,0.2265,0.2329,0.2462,0.2736,0.2878,0.2936,0.2961,0.2966,0.2959,0.2936,0.291,0.281,0.2788,0.2783,0.2788,0.2799,0.2907,0.3012,0.3337,0.3437,0.3689,0.4003,0.4005,0.4081,0.0,0.0,0.0,0.3376,0.3585,0.3717,0.37,0.3647,0.3677,0.3792,0.3878,0.4042,0.4075,0.4325,0.4625,0.4908,0.5451,0.5885,0.6357,0.646,0.6581,0.6786,0.6915,0.7124,0.742,0.7612,0.7837,0.81,0.8043,0.8178,0.8418,0.8922,0.9451,0.9937,0.9511,0.9633,1.0126,1.0671,1.1209,1.1692,1.1993,1.2423,1.2697,1.2761,1.2726,1.2808,1.2975,1.2996,1.3054,1.3287,1.3287,1.3287,1.3287,1.3287,1.3287,1.3287,1.3287,1.3287,1.3287,1.3287,1.3287,1.3287,1.3117,1.2965,1.2937,1.2748,1.2663,1.2663,1.2597,1.2449,1.2119,1.1882,1.1618,1.1291,1.0798,1.0523,1.0523,1.0241,1.0131,1.0131,1.0359,1.0578,1.0688,1.1181,1.1455,1.1564,1.1946,1.2164,0.3398,0.343,0.3512,0.3485,0.3637,0.37,0.37,0.37,0.3698,0.369,0.3623,0.3489,0.0,0.0,0.3576,0.3619,0.3666,0.379,0.384,0.4243,0.4481,0.0,0.0,0.0,0.0,0.0,0.0,0.4088,0.0,0.3905,0.3861,0.3854,0.4042,0.432,0.4758,0.5067,0.5301,0.6005,0.6528,0.686,0.7177,0.7333,0.7333,0.7569,0.7655,0.7722,0.7979,0.8315,0.8612,0.9258,0.9767,1.0009,1.012,1.0191,1.0232,1.0318,1.08,1.1285,1.0611,1.0846,1.139,1.1752,1.2053,1.2294,1.2655,1.2724,1.2844,1.3144,1.3204,1.3324,1.3633,1.3693,1.3693,1.3693,1.3693,1.3693,1.3693,1.3693,1.3693,1.3693,1.3693,1.3693,1.3693,1.3693,1.3693,1.3693,1.3523,1.3325,1.3107,1.3136,1.3127,1.3127,1.2956,1.2674,1.2385,1.2146,1.1928,1.1709,1.138,1.1207,1.1207,1.094,1.083,1.083,1.105,1.138,1.1654,1.1928,1.2201,1.2419,1.2465,1.2455,0.3475,0.343,0.3518,0.3596,0.3657,0.37,0.37,0.37,0.3672,0.3572,0.3535,0.3571,0.3787,0.3873,0.0,0.3891,0.3972,0.0,0.4693,0.5139,0.0,0.6435,0.0,0.708,0.716,0.7397,0.0,0.0,0.6573,0.6268,0.6477,0.6498,0.6525,0.6561,0.6589,0.6728,0.7056,0.7419,0.7761,0.8162,0.8467,0.8894,0.9377,0.9585,0.9795,1.0126,1.0025,1.0161,1.0518,1.0599,1.0855,1.1127,1.1038,1.1162,1.1446,1.1534,1.184,1.2253,1.2103,1.2174,1.2354,1.2423,1.2664,1.2964,1.3024,1.3264,1.3444,1.3564,1.3564,1.3564,1.3684,1.3693,1.3693,1.3693,1.3693,1.3693,1.3693,1.3693,1.3693,1.3693,1.3693,1.3693,1.3693,1.3693,1.3693,1.3693,1.3646,1.3542,1.3334,1.3164,1.3127,1.3127,1.3022,1.2994,1.288,1.2824,1.2796,1.2739,1.2626,1.257,1.257,1.2513,1.2513,1.2513,1.257,1.2626,1.2739,1.2796,1.2852,1.2899,1.2961,1.2995,0.4639,0.4735,0.483,0.5149,0.5052,0.4934,0.5038,0.4702,0.4339,0.4248,0.4152,0.4213,0.4525,0.475,0.4952,0.0,0.0,0.0,0.6459,0.6944,0.7573,0.0,0.8599,0.0,0.9002,0.924,0.9557,0.0,0.865,0.8019,0.8137,0.8159,0.8088,0.8004,0.8044,0.8393,0.9039,0.9219,0.955,0.9912,1.0205,1.0563,1.0912,1.1173,1.1335,1.14,0.0,1.1511,1.1901,1.1811,1.2092,1.2596,1.2363,1.2482,1.2639,1.2582,1.2835,1.3119,1.3039,1.3159,1.3202,1.2991,1.3144,1.3444,1.3444,1.3564,1.3693,1.3693,1.3693,1.3693,1.3693,1.3693,1.3693,1.3693,1.3693,1.3693,1.3693,1.3693,1.3693,1.3693,1.3693,1.3693,1.3693,1.3693,1.3693,1.3693,1.3693,1.3646,1.3532,1.3419,1.3343,1.3343,1.3258,1.3211,1.3211,1.3117,1.3127,1.3127,1.3127,1.3127,1.3127,1.3127,1.3127,1.3127,1.3241,1.3298,1.3298,1.3412,1.3469,1.3526,1.3512,1.3565,0.6282,0.6577,0.6808,0.7273,0.7071,0.6782,0.6848,0.6152,0.5459,0.5358,0.515,0.5194,0.5669,0.6032,0.6464,0.709,0.0,0.783,0.852,0.9111,0.9582,1.0017,1.0179,1.0422,1.0826,1.0976,1.1299,1.195,1.0734,0.9788,0.9511,0.9486,0.938,0.9152,0.9529,1.0179,1.0957,1.1121,1.1404,1.1743,1.2115,1.227,1.2262,1.2512,1.2559,1.2346,0.0,0.0,1.3005,1.298,1.3293,1.3857,1.3699,1.3702,1.3676,1.3473,1.3591,1.3878,1.3686,1.3806,1.3953,1.3407,1.3444,1.3693,1.3693,1.3693,1.3693,1.3693,1.3693,1.3693,1.3693,1.3693,1.3693,1.3693,1.3693,1.3693,1.3693,1.3693,1.3693,1.3693,1.3693,1.3693,1.3693,1.3693,1.3693,1.3693,1.3693,1.3693,1.3693,1.3693,1.3693,1.3693,1.3532,1.3429,1.3429,1.3258,1.3212,1.327,1.327,1.326,1.3327,1.3327,1.3327,1.3327,1.3557,1.3672,1.3672,1.3959,1.4073,1.4073,1.41,1.409,0.7373,0.776,0.81,0.8356,0.8262,0.8033,0.7603,0.7284,0.6921,0.6418,0.6206,0.6321,0.7004,0.7278,0.7636,0.8304,0.8553,0.8923,0.9402,1.0201,1.1016,0.0,1.2319,1.2814,1.2897,1.3226,0.0,0.0,0.0,1.3349,1.2355,1.2232,1.2031,1.1669,1.2043,1.2203,1.2129,1.2466,1.2598,1.261,1.323,1.3571,1.3563,1.4089,1.4336,1.4285,0.0,0.0,1.3912,1.3747,1.3809,1.3875,1.384,1.4027,1.4261,1.407,1.4189,1.4416,1.421,1.4198,1.4194,1.3756,1.3624,1.3693,1.3693,1.3693,1.3693,1.3693,1.3693,1.3693,1.3693,1.3693,1.3693,1.3693,1.3693,1.3693,1.3693,1.3693,1.3693,1.3693,1.3693,1.3693,1.3693,1.3693,1.3693,1.3693,1.3693,1.3693,1.3693,1.3693,1.3693,1.3693,1.3655,1.3636,1.3636,1.3599,1.3699,1.4005,1.4005,1.4124,1.4361,1.4361,1.4361,1.4361,1.442,1.442,1.442,1.4479,1.4479,1.4479,1.4638,1.4661,0.9159,0.9628,1.0134,1.0469,1.0295,0.9843,0.9345,0.8786,0.8133,0.7506,0.7236,0.7304,0.8015,0.8403,0.8901,0.9824,1.0298,1.0766,1.1396,1.2035,1.2706,1.3261,1.3755,1.4052,1.4052,1.4465,0.0,0.0,0.0,1.4944,1.3805,1.3562,1.3432,1.3513,1.3733,1.3821,1.3722,1.4067,1.4155,1.3975,1.4332,1.4474,1.4474,1.4735,1.485,1.4814,1.4629,0.0,1.4441,1.4343,1.4367,1.4408,1.4408,1.4539,1.466,1.4558,1.4595,1.4761,1.4553,1.4477,1.443,1.4118,1.4014,1.4014,1.4014,1.4014,1.4014,1.4014,1.4014,1.4014,1.4014,1.4014,1.4014,1.4014,1.4014,1.4014,1.4014,1.4014,1.4014,1.4014,1.4137,1.426,1.426,1.4443,1.4556,1.4556,1.4556,1.4556,1.4556,1.4556,1.4356,1.3772,1.3693,1.3753,1.3933,1.3933,1.4112,1.4411,1.4411,1.4471,1.459,1.459,1.459,1.459,1.4769,1.4948,1.5126,1.5304,1.5423,1.5591,1.566,1.5664,1.0988,1.1541,1.2135,1.2512,1.2176,1.1643,1.1212,1.0392,0.9521,0.8951,0.8607,0.8623,0.9199,0.9621,1.0214,1.1159,1.1828,1.2373,1.3096,1.3576,1.4106,1.4496,1.4809,0.0,1.5072,1.544,0.0,0.0,0.0,0.0,1.4977,1.4669,1.472,1.5001,1.5004,1.5052,1.5166,1.5345,1.5298,1.5105,1.5141,1.5115,1.5115,1.5186,1.5177,1.5095,1.505,0.0,0.0,1.4934,1.4948,1.5073,1.5073,1.5035,1.4932,1.4932,1.4969,1.4912,1.4687,1.4631,1.4666,1.4496,1.4383,1.4307,1.4307,1.4307,1.4307,1.4307,1.4307,1.4307,1.4307,1.4307,1.4307,1.437,1.4442,1.4433,1.4495,1.4558,1.4558,1.4558,1.4745,1.4942,1.4942,1.5182,1.5369,1.5369,1.5369,1.5369,1.5369,1.5369,1.5052,1.4157,1.4019,1.4041,1.4301,1.4291,1.4411,1.4709,1.4769,1.4828,1.4888,1.5007,1.5007,1.5007,1.5294,1.5531,1.5779,1.6076,1.6312,1.6478,1.6478,1.6478,1.2526,1.2899,1.3354,1.3524,1.3317,1.2934,1.2698,1.2296,1.1761,1.1045,1.085,1.0839,1.0934,1.1028,1.1333,1.2003,1.2418,1.2816,1.3288,1.3915,1.447,1.4779,0.0,0.0,1.621,1.6433,0.0,0.0,0.0,0.0,1.6274,1.6393,1.6512,1.6338,1.6129,1.6004,1.5803,1.5694,1.55,1.5379,1.548,1.5532,1.5541,1.5895,1.6098,1.607,0.0,0.0,0.0,1.5611,1.5517,1.5575,1.5575,1.5385,1.5139,1.5139,1.5092,1.4931,1.4847,1.4838,1.4838,1.4819,1.4619,1.4307,1.4307,1.4307,1.4307,1.4307,1.4307,1.4307,1.4307,1.4307,1.437,1.4692,1.4755,1.488,1.5244,1.5307,1.5307,1.5307,1.5307,1.5369,1.5369,1.5369,1.5369,1.5369,1.5369,1.5369,1.5369,1.5369,1.5349,1.5246,1.5003,1.4811,1.461,1.453,1.4709,1.5056,1.5353,1.5661,1.5968,1.6194,1.6301,1.6301,1.636,1.6419,1.6419,1.6478,1.6478,1.6478,1.6478,1.6478,1.429,1.4806,1.535,1.5339,1.5091,1.4621,1.401,1.3558,1.3058,1.2293,1.2092,1.2063,1.2328,1.2344,1.2554,1.3128,1.3481,1.3866,1.4309,1.477,1.5084,1.5216,1.5814,0.0,0.0,0.0,0.0,0.0,0.0,0.0,1.7403,1.703,1.6906,1.7054,1.6748,1.6563,1.6655,1.6582,1.6434,1.6241,1.6174,1.6143,1.6134,1.6164,1.6178,1.6178,0.0,0.0,0.0,1.5841,1.5737,1.5632,1.5632,1.5508,1.5432,1.5432,1.5375,1.529,1.5158,1.5111,1.5092,1.524,1.5151,1.4952,1.475,1.4814,1.5016,1.5016,1.5199,1.5327,1.5327,1.5327,1.5391,1.5519,1.5519,1.5583,1.5711,1.5765,1.5765,1.5765,1.5903,1.6158,1.6339,1.6541,1.6732,1.6912,1.6976,1.6976,1.6976,1.6976,1.6921,1.6779,1.5867,1.5268,1.5299,1.5533,1.5767,1.6072,1.6448,1.6702,1.6823,1.6785,1.6754,1.6754,1.6558,1.6596,1.6785,1.6785,1.6903,1.7126,1.7126,1.7126,1.534,1.5911,1.6318,1.6318,1.6063,1.5602,1.4882,1.4492,1.401,1.3426,1.3183,1.3164,1.3293,1.3358,1.3466,1.3857,1.4165,1.4448,1.4833,1.5174,1.5393,1.5599,0.0,1.6398,0.0,0.0,0.0,0.0,0.0,0.0,0.0,1.7556,1.7259,1.7566,1.7171,1.7046,1.7199,1.7133,1.7038,1.6887,1.6613,1.6481,1.6471,1.6273,1.6178,1.6178,0.0,0.0,0.0,1.6021,1.5946,1.5813,1.5813,1.5775,1.5855,1.5855,1.5885,1.5876,1.5721,1.5663,1.5634,1.5695,1.5758,1.5682,1.5342,1.5388,1.5658,1.5658,1.5844,1.5974,1.5974,1.5974,1.6039,1.6104,1.6234,1.6299,1.6429,1.6494,1.6613,1.6613,1.6753,1.7012,1.726,1.7464,1.7723,1.7969,1.7969,1.7969,1.7969,1.7969,1.7965,1.7805,1.6803,1.6202,1.6261,1.6487,1.6673,1.692,1.7241,1.7426,1.7426,1.7364,1.7332,1.7332,1.7076,1.7008,1.7256,1.7174,1.7256,1.7479,1.7479,1.7479,1.56,1.5773,1.5913,1.5913,1.5773,1.5556,1.5316,1.5156,1.4891,1.449,1.4399,1.4268,1.394,1.3875,1.3875,1.3875,1.4051,1.4314,1.4631,1.4859,1.5191,0.0,0.0,1.6436,0.0,0.0,0.0,0.0,0.0,0.0,0.0,1.8276,1.7971,1.7971,1.7566,1.7426,1.7426,1.7209,1.7105,1.7095,1.6679,1.6481,1.6471,1.6273,1.6178,0.0,0.0,0.0,0.0,1.6178,1.6178,1.6178,1.6178,1.6257,1.6421,1.6421,1.649,1.6709,1.6709,1.6709,1.6668,1.6388,1.6318,1.6267,1.6045,1.5974,1.5974,1.5974,1.5974,1.5974,1.5974,1.5974,1.6104,1.6439,1.6753,1.7066,1.74,1.7723,1.7969,1.7969,1.7969,1.7969,1.7969,1.7969,1.7969,1.7969,1.7969,1.7969,1.7969,1.7969,1.7969,1.8033,1.7958,1.7764,1.7348,1.7302,1.7302,1.7302,1.7611,1.7784,1.7784,1.8103,1.8287,1.8287,1.801,1.7865,1.7865,1.7612,1.7479,1.7479,1.7479,1.7479,1.6111,1.6471,1.673,1.673,1.6582,1.6314,1.5985,1.5775,1.555,1.5278,1.5043,1.494,1.4798,1.4697,1.4641,1.478,1.4854,1.5048,1.5455,1.5695,0.0,1.6102,1.6379,1.6866,0.0,0.0,0.0,0.0,0.0,0.0,0.0,1.8276,1.7971,1.7971,1.7643,1.7426,1.7426,1.736,1.7322,1.7322,1.7038,1.6831,1.6698,1.6481,0.0,0.0,0.0,0.0,0.0,1.6452,1.6523,1.6593,1.6815,1.6987,1.6997,1.6997,1.7087,1.7076,1.6914,1.6932,1.6892,1.6881,1.6974,1.7103,1.7281,1.688,1.6429,1.6882,1.7206,1.7389,1.7389,1.7389,1.7389,1.7518,1.7582,1.7711,1.7852,1.7905,1.7969,1.7969,1.7969,1.8109,1.8366,1.8442,1.8495,1.8752,1.8894,1.9013,1.9013,1.9179,1.9226,1.9037,1.9179,1.8888,1.7851,1.8007,1.8197,1.8197,1.8514,1.8692,1.8692,1.8587,1.8565,1.8565,1.83,1.8155,1.8155,1.8082,1.8034,1.8034,1.8034,1.7937,1.6131,1.65,1.6755,1.6755,1.6717,1.6575,1.616,1.5961,1.587,1.567,1.5385,1.5233,1.5233,1.5063,1.4997,1.5196,1.5233,1.5404,1.5914,1.6093,0.0,1.6592,0.0,0.0,0.0,0.0,0.0,0.0,0.0,0.0,0.0,0.0,1.7933,1.7848,1.7596,1.7426,1.7426,1.7426,1.7426,1.7426,1.7359,1.7224,1.7013,1.702,0.0,0.0,0.0,0.0,0.0,1.6815,1.6946,1.6946,1.7168,1.7379,1.752,1.7661,1.7801,1.7921,1.7972,1.7989,1.7957,1.7938,1.797,1.7973,1.8172,1.7664,1.7141,1.7594,1.784,1.7969,1.7969,1.7969,1.7969,1.7969,1.8109,1.8238,1.8238,1.8302,1.8454,1.8547,1.8571,1.8671,1.9048,1.906,1.9191,1.9386,1.9519,1.9627,1.9627,1.9772,1.982,1.9639,1.9784,1.9549,1.8746,1.8836,1.8935,1.8828,1.8956,1.9072,1.9072,1.8915,1.8831,1.8831,1.8577,1.8444,1.8444,1.8459,1.8472,1.8472,1.8594,1.8618,0.0,1.5961,1.6141,1.6141,1.6273,1.6311,1.5923,1.5908,0.0,1.567,1.5394,1.5252,1.5252,1.5101,1.5044,1.5243,1.5281,1.5498,1.6122,1.6226,0.0,0.0,1.7698,0.0,0.0,0.0,0.0,0.0,0.0,0.0,0.0,0.0,1.7946,1.7815,1.7607,1.7502,1.7426,1.7426,1.7426,1.7502,1.7679,1.7699,1.7473,1.7619,0.0,0.0,0.0,0.0,0.0,1.7308,1.7379,1.7379,1.7379,1.7661,1.8072,1.8363,1.8714,1.9133,1.9471,1.9611,1.9576,1.9324,1.9083,1.89,1.8877,1.8533,1.809,1.809,1.809,1.8155,1.8155,1.8155,1.8155,1.8155,1.8425,1.8694,1.8694,1.8952,1.9205,1.9446,1.956,1.9579,1.9845,1.9881,1.9881,1.9881,1.9905,1.9917,1.9917,1.9929,1.9941,1.9917,1.9929,1.9929,1.996,1.9717,1.9386,1.9145,1.912,1.9108,1.9108,1.9084,1.9072,1.9072,1.8906,1.8773,1.8773,1.8828,1.8889,1.8889,1.9195,1.9366,1.5167,0.0,1.5706,1.5706,1.5813,1.5822,0.0,1.5699,1.5689,1.5642,1.5517,1.5479,1.5479,1.5441,1.5479,1.5678,1.5715,1.5876,1.6349,1.6689,0.0,1.7388,1.7653,0.0,0.0,0.0,0.0,0.0,0.0,0.0,0.0,0.0,1.8573,1.859,1.8449,1.8187,1.7873,1.7873,1.8025,1.8339,1.8365,1.8291,1.807,1.7996,0.0,0.0,0.0,0.0,1.7308,1.7661,1.7942,1.8153,1.8503,1.8843,1.9192,1.9262,1.9401,1.9471,1.9541,1.9611,1.9576,1.961,1.9551,1.9537,1.9606,1.9385,1.908,1.908,1.9291,1.9423,1.9423,1.9423,1.9423,1.9423,1.9501,1.9567,1.9567,1.9634,1.9712,1.9772,1.9784,1.9808,1.9869,1.9881,1.9881,1.9881,2.005,2.0183,2.0183,2.0364,2.0412,2.0207,2.0364,2.0452,2.0318,2.002,1.976,1.97,1.9495,1.9439,1.9439,1.9181,1.9072,1.9072,1.9267,1.9484,1.9751,1.9815,1.9777,1.9789,1.9903,1.9976,1.5252,1.5385,1.5604,1.5432,1.5555,1.5737,1.5651,1.5632,1.5632,1.5632,1.5632,1.5632,1.5632,1.5632,1.5689,1.5898,1.5927,0.0,0.0,0.0,1.7435,1.7549,0.0,0.0,0.0,0.0,0.0,0.0,0.0,0.0,0.0,0.0,1.8815,1.8748,1.8628,1.8491,1.8253,1.8253,1.8415,1.8567,1.8795,1.8772,1.8664,1.877,0.0,0.0,0.0,0.0,1.8352,1.8563,1.8773,1.8993,1.9192,1.9401,1.9611,1.9761,1.9831,1.9831,2.0028,2.0098,2.0086,2.0152,2.0185,2.015,2.0223,2.0175,1.9979,1.9673,1.9747,1.9881,1.9881,1.9881,1.9881,1.9881,1.9881,1.9881,1.9881,1.9881,1.9917,2.0038,2.0062,2.011,2.0231,2.0243,2.0243,2.0243,2.0364,2.046,2.046,2.0719,2.0882,2.0747,2.0995,2.1165,2.1069,2.0854,2.0674,2.0426,2.0265,2.0179,2.0179,1.9918,1.9656,1.9532,1.9711,1.9915,2.0106,2.0234,2.0425,2.0539,2.0729,2.0952,1.5768,1.5788,1.5691,1.5337,1.5555,1.5832,1.5555,1.5508,1.5498,1.547,1.5585,1.5632,1.5632,1.5708,1.5753,1.5923,0.0,0.0,1.6774,1.7331,1.769,1.7806,0.0,0.0,0.0,0.0,0.0,0.0,0.0,0.0,0.0,0.0,0.0,1.8871,1.8946,1.8946,1.8946,1.8871,1.8795,1.8871,1.9283,1.9436,1.9344,1.9631,1.9723,0.0,0.0,0.0,1.9611,1.9611,1.9611,1.968,1.968,1.968,1.982,2.011,2.0179,2.0249,2.0596,2.0665,2.0665,2.0665,2.0665,2.0665,2.0665,2.0665,2.0581,2.0134,2.0002,2.0002,2.0002,2.0002,2.0002,2.0002,2.0002,2.0002,2.0002,2.0002,2.0074,2.0291,2.034,2.0412,2.0629,2.0665,2.0665,2.0665,2.0735,2.0804,2.0804,2.1081,2.1276,2.1276,2.1622,2.1829,2.1897,2.1897,2.1705,2.1299,2.1168,2.105,2.1012,2.0666,2.0412,2.0234,2.0259,2.0297,2.0361,2.0729,2.1072,2.1429,2.1795,2.2328,1.6556,1.6636,1.6589,1.5768,1.5555,1.5545,1.5337,1.5281,1.5233,1.5063,1.5309,1.5632,1.5632,1.5989,1.6349,1.6386,0.0,1.6944,0.0,0.0,1.7693,0.0,0.0,0.0,0.0,0.0,0.0,0.0,0.0,0.0,0.0,0.0,0.0,2.0221,2.0533,2.0695,2.0695,1.9995,1.9844,2.0221,2.0385,2.0473,2.0456,2.0036,1.9869,0.0,0.0,1.9611,1.9611,1.9611,1.9761,2.004,2.004,2.0249,2.0527,2.0596,2.0596,2.0596,2.0665,2.0665,2.0665,2.0665,2.0665,2.0665,2.0665,2.0665,2.0653,2.0569,2.0545,2.0545,2.0545,2.0545,2.0545,2.0545,2.0545,2.0545,2.0545,2.0545,2.0557,2.0605,2.0605,2.0617,2.0665,2.0665,2.0665,2.0665,2.0943,2.1138,2.1138,2.1484,2.1691,2.1691,2.176,2.1897,2.2173,2.2242,2.234,2.2603,2.1823,2.1254,2.1025,2.0666,2.063,2.0838,2.0924,2.1109,2.1362,2.1978,2.2497,2.2815,2.3515,2.4172,1.6995,1.7076,1.6987,1.6331,1.6086,1.5942,1.5721,1.5673,1.5711,1.5825,1.6117,1.6343,1.6343,1.6775,1.7208,1.7517,0.0,1.7993,1.8111,0.0,0.0,0.0,0.0,0.0,0.0,0.0,0.0,0.0,0.0,0.0,0.0,0.0,0.0,0.0,2.0985,2.1071,2.1071,2.0773,2.0631,2.062,2.0655,2.0681,2.0549,2.0318,2.0285,2.0356,0.0,2.0179,2.0179,2.0179,2.0318,2.0388,2.0388,2.0527,2.0665,2.0665,2.0665,2.0665,2.0665,2.0665,2.0665,2.0665,2.0665,2.0665,2.0665,2.0665,2.0665,2.0665,2.0665,2.0665,2.0665,2.0665,2.0665,2.0665,2.0774,2.0917,2.0702,2.0895,2.1135,2.1258,2.1343,2.1512,2.1724,2.1724,2.1724,2.1724,2.174,2.171,2.171,2.1918,2.2035,2.2035,2.2242,2.2448,2.2585,2.2654,2.2722,2.2859,2.2466,2.2052,2.1777,2.1476,2.1385,2.1614,2.1638,2.1999,2.2737,2.3228,2.3847,2.4494,2.5055,2.5643,1.7669,1.7731,1.759,1.7087,1.6827,1.652,1.6343,1.6304,1.6451,1.6803,1.7003,1.7115,1.7115,1.748,1.7947,1.8455,1.8678,1.8861,0.0,0.0,0.0,0.0,0.0,0.0,0.0,0.0,0.0,0.0,0.0,0.0,0.0,0.0,2.091,0.0,2.136,2.1337,2.1279,2.1378,2.1273,2.0819,2.0777,2.0729,2.0639,2.058,2.0578,2.0665,2.0665,2.0665,2.0665,2.0665,2.0665,2.0665,2.0665,2.0665,2.0665,2.0665,2.0665,2.0665,2.0665,2.0665,2.0665,2.0665,2.0665,2.0665,2.0665,2.0665,2.0678,2.0807,2.0762,2.0762,2.0762,2.0762,2.0774,2.0847,2.1016,2.1171,2.1035,2.1315,2.1689,2.1907,2.209,2.2312,2.2586,2.2586,2.2586,2.2586,2.2479,2.2422,2.2422,2.2579,2.2658,2.2658,2.2935,2.3073,2.3073,2.3006,2.2966,2.2966,2.2899,2.2752,2.2539,2.2311,2.2306,2.2415,2.261,2.314,2.4074,2.4647,2.5341,2.6199,2.6697,2.7258,1.8916,1.8854,1.8703,1.8002,1.7499,1.7137,1.6836,1.6977,1.7258,1.7338,1.7348,1.7359,1.7359,1.7724,1.8168,1.8825,1.8936,1.9027,0.0,0.0,0.0,0.0,0.0,0.0,0.0,0.0,0.0,0.0,0.0,0.0,0.0,0.0,0.0,0.0,0.0,2.2064,2.1823,2.1885,2.1652,2.1273,2.1138,2.11,2.1052,2.081,2.069,2.0665,2.0665,2.0665,2.0665,2.0665,2.0665,2.0665,2.0665,2.0665,2.0665,2.0665,2.0665,2.0665,2.0665,2.0665,2.0665,2.0665,2.0665,2.0665,2.0665,2.0665,2.0726,2.1038,2.1098,2.1098,2.1098,2.1098,2.11,2.1354,2.1438,2.1582,2.1904,2.2001,2.2156,2.2489,2.2574,2.2586,2.2586,2.2586,2.2586,2.2586,2.2872,2.3158,2.3158,2.343,2.3701,2.3701,2.3701,2.3701,2.3701,2.3447,2.33,2.33,2.302,2.2914,2.2901,2.289,2.3048,2.3367,2.4159,2.4709,2.5062,2.6344,2.7241,2.7668,2.8652,2.9275,1.8763,1.8761,1.8553,1.7861,1.7837,1.7913,1.7694,1.7909,1.8269,1.8913,1.8883,1.8622,1.8475,1.8808,1.9307,2.0015,2.0483,0.0,0.0,0.0,0.0,0.0,0.0,0.0,0.0,0.0,0.0,0.0,0.0,0.0,0.0,0.0,0.0,2.2035,0.0,2.2138,2.1873,2.1704,2.1462,2.115,2.1089,2.105,2.088,2.0783,2.0665,2.0665,2.0665,2.0665,2.0665,2.0665,2.0665,2.0665,2.0665,2.0665,2.0665,2.0665,2.0844,2.0977,2.0977,2.1028,2.1172,2.1172,2.1172,2.1172,2.1172,2.1373,2.1598,2.1697,2.1864,2.1948,2.146,2.1532,2.1759,2.1869,2.2174,2.2466,2.2422,2.2649,2.2996,2.3194,2.337,2.3559,2.3778,2.3851,2.3851,2.3851,2.3852,2.3819,2.3819,2.3816,2.3768,2.3768,2.3768,2.3768,2.3768,2.3661,2.3607,2.3607,2.314,2.2928,2.2928,2.2984,2.3223,2.3823,2.4544,2.5458,2.6454,2.7615,2.8524,2.9076,2.9872,3.0348,1.8971,1.8914,1.8664,1.8194,1.8389,1.879,1.8832,1.8934,1.9338,2.0322,2.0258,1.9914,1.9661,1.9837,0.0,0.0,0.0,0.0,0.0,0.0,0.0,0.0,0.0,0.0,0.0,0.0,0.0,0.0,0.0,0.0,0.0,0.0,0.0,0.0,2.2334,2.209,2.1752,2.1571,2.1293,2.0931,2.0931,2.0917,2.0665,2.0665,2.0665,2.0665,2.0665,2.0665,2.0665,2.0665,2.0665,2.0665,2.0665,2.0665,2.0678,2.0832,2.0907,2.1147,2.1231,2.146,2.169,2.169,2.1762,2.1822,2.1822,2.2038,2.2253,2.2353,2.251,2.2607,2.2213,2.2236,2.2391,2.2478,2.28,2.3108,2.3049,2.3318,2.3709,2.3988,2.4114,2.4293,2.4682,2.4703,2.4636,2.4636,2.4462,2.4342,2.4342,2.4168,2.4048,2.4048,2.4048,2.4048,2.4048,2.4098,2.4116,2.4116,2.3841,2.3584,2.3213,2.3392,2.3845,2.4634,2.5469,2.65,2.7671,2.8793,2.9513,3.0018,3.0732,3.1073,1.9731,1.9534,1.9247,1.9243,1.9427,1.9748,2.018,2.0207,2.0385,2.1334,2.1318,2.1066,2.0717,2.0672,0.0,0.0,0.0,0.0,0.0,0.0,0.0,0.0,0.0,0.0,0.0,0.0,0.0,0.0,0.0,0.0,0.0,0.0,0.0,0.0,2.2334,0.0,2.1486,2.1474,2.1209,2.0665,2.0665,2.0665,2.0665,2.0665,2.0665,2.0665,2.0665,2.0665,2.0665,2.0665,2.0665,2.0665,2.0665,2.0665,2.0771,2.1038,2.1135,2.1171,2.139,2.1762,2.211,2.211,2.2312,2.2599,2.2599,2.2599,2.2663,2.2955,2.3031,2.3095,2.3375,2.3235,2.3108,2.3301,2.3438,2.3513,2.3896,2.4044,2.4197,2.4949,2.4836,2.473,2.5037,2.4836,2.4649,2.4636,2.4562,2.4562,2.4636,2.4636,2.4636,2.4636,2.4636,2.4636,2.4636,2.472,2.4833,2.4833,2.5271,2.5031,2.3941,2.4325,2.5037,2.6115,2.7169,2.8048,2.8807,2.9857,3.0378,3.0443,3.1073,3.1377,1.935,1.9252,1.9212,1.8957,1.937,1.9966,2.0587,2.0923,2.1224,2.1619,2.1724,2.1563,2.0826,2.0966,0.0,0.0,0.0,0.0,0.0,0.0,0.0,0.0,0.0,0.0,0.0,0.0,0.0,0.0,0.0,0.0,0.0,0.0,0.0,0.0,2.2334,0.0,2.1486,2.1474,2.1209,2.0665,2.0665,2.0665,2.0665,2.0665,2.0665,2.0665,2.0665,2.0665,2.0665,2.0665,2.0665,2.0665,2.0665,2.0995,2.1447,2.1521,2.1935,2.2428,2.2516,2.2739,2.305,2.305,2.305,2.3184,2.3184,2.3331,2.3577,2.3667,2.3914,2.4161,2.424,2.4201,2.4088,2.387,2.4044,2.4267,2.4414,2.4414,2.4581,2.5024,2.501,2.5037,2.5331,2.5317,2.5184,2.4983,2.4943,2.4877,2.4663,2.4636,2.4636,2.4636,2.4636,2.471,2.5005,2.535,2.5733,2.63,2.6515,2.6122,2.5045,2.5618,2.6262,2.6889,2.7913,2.8708,2.9119,3.023,3.075,3.075,3.1184,3.1377,1.9453,1.9345,1.9362,1.9373,1.9865,2.0567,2.1434,2.1782,2.2007,2.2159,2.2218,2.2146,2.1496,2.1562,0.0,0.0,0.0,0.0,0.0,0.0,0.0,0.0,0.0,0.0,0.0,0.0,0.0,0.0,0.0,0.0,0.0,0.0,0.0,0.0,2.2334,0.0,2.1486,2.1474,2.1209,2.0665,2.0665,2.0665,2.0665,2.0665,2.0665,2.0665,2.0665,2.0665,2.0735,2.0873,2.0873,2.0943,2.1081,2.1388,2.1772,2.1986,2.2359,2.2904,2.3047,2.3385,2.3661,2.3661,2.3735,2.3896,2.3896,2.4044,2.4267,2.4267,2.4414,2.4636,2.4636,2.4636,2.4562,2.4267,2.4414,2.4636,2.4636,2.473,2.4903,2.5197,2.5251,2.5344,2.5638,2.5585,2.5451,2.5277,2.5251,2.5184,2.501,2.4983,2.4983,2.4983,2.5026,2.5255,2.5774,2.6237,2.6881,2.781,2.8203,2.8215,2.7731,2.7547,2.7779,2.8257,2.9044,2.9673,3.0226,3.0877,3.1204,3.1348,3.1742,3.1854,1.9784,1.97,1.973,2.0183,2.0726,2.1462,2.2467,2.2697,2.2697,2.2721,2.2733,2.2648,2.2382,2.2334,0.0,0.0,0.0,0.0,0.0,0.0,0.0,0.0,0.0,0.0,0.0,0.0,0.0,0.0,0.0,0.0,0.0,0.0,0.0,0.0,2.2309,2.1981,2.1486,2.145,2.1185,0.0,2.0735,2.0735,2.0735,2.0735,2.0665,2.0665,2.0735,2.0735,2.0735,2.1081,2.1276,2.1276,2.1634,2.1854,2.1943,2.2492,2.2709,2.2811,2.3334,2.3735,2.4044,2.4044,2.4267,2.4636,2.4636,2.4636,2.4636,2.4636,2.4636,2.4636,2.4636,2.4636,2.4636,2.4636,2.4636,2.4649,2.4676,2.489,2.517,2.5491,2.5558,2.5651,2.5945,2.5772,2.5585,2.5558,2.5531,2.5518,2.5518,2.5518,2.5518,2.5518,2.5731,2.6093,2.6901,2.7438,2.8263,2.9369,3.0157,3.0797,3.1118,2.9887,2.9437,3.0054,3.0373,3.0909,3.1616,3.1594,3.1794,3.2137,3.2472,3.2588,1.9603,1.982,2.0183,2.0496,2.1148,2.1812,2.2321,2.2418,2.2479,2.2685,2.2733,2.2648,2.2382,0.0,0.0,0.0,0.0,0.0,0.0,0.0,0.0,0.0,0.0,0.0,0.0,0.0,0.0,0.0,0.0,0.0,0.0,0.0,0.0,2.2334,2.214,2.18,2.1486,2.1257,2.0991,0.0,2.0943,2.1069,2.1081,2.0804,2.0665,2.0735,2.1012,2.1069,2.1138,2.1484,2.1691,2.1691,2.176,2.2108,2.2618,2.2924,2.3412,2.3865,2.4222,2.4414,2.4488,2.4488,2.4562,2.4636,2.4636,2.4636,2.4636,2.4636,2.4636,2.4636,2.4636,2.4636,2.4636,2.4636,2.4636,2.4703,2.493,2.5037,2.5237,2.5758,2.5865,2.5959,2.6239,2.6239,2.6119,2.5892,2.5665,2.5518,2.5518,2.5518,2.5594,2.5976,2.6288,2.7003,2.8118,2.9161,3.0096,3.0982,3.1773,3.2223,3.2351,3.1479,3.1098,3.1236,3.1534,3.1846,3.2003,3.2247,3.2381,3.2454,3.2588,3.2588,1.9712,1.9965,2.04,2.0931,2.1462,2.1933,2.2273,2.2334,2.237,2.2515,2.2539,2.2503,2.2358,0.0,0.0,0.0,0.0,0.0,0.0,0.0,0.0,0.0,0.0,0.0,0.0,0.0,0.0,0.0,0.0,0.0,0.0,2.1885,2.1885,2.1885,2.1971,2.1836,2.1567,2.162,2.148,2.122,2.1427,2.1484,2.1484,2.1289,2.122,2.122,2.1415,2.1484,2.1484,2.1897,2.2035,2.2035,2.2242,2.2539,2.2862,2.3311,2.3718,2.4062,2.4489,2.4636,2.4636,2.4636,2.4636,2.4636,2.4636,2.4636,2.4636,2.4636,2.4636,2.4636,2.4636,2.4636,2.4636,2.4636,2.4636,2.4676,2.4836,2.509,2.5371,2.5678,2.5972,2.6213,2.636,2.6544,2.6662,2.65,2.6493,2.663,2.6785,2.6862,2.6961,2.7421,2.7719,2.8372,2.9544,3.0267,3.1193,3.2294,3.2791,3.3055,3.3209,3.2854,3.2608,3.24,3.2557,3.272,3.292,3.2924,3.2991,3.3175,3.3175,3.3175,1.9881,2.0183,2.0641,2.1317,2.1716,2.1993,2.2285,2.2334,2.2334,2.2334,2.2334,2.2334,0.0,0.0,0.0,0.0,0.0,0.0,0.0,0.0,0.0,0.0,0.0,0.0,0.0,0.0,0.0,0.0,0.0,0.0,2.1631,2.1618,2.169,2.169,2.1929,2.1923,2.1687,2.1988,2.1989,2.176,2.1829,2.1897,2.1966,2.1966,2.191,2.176,2.1829,2.1897,2.1897,2.2242,2.2379,2.2448,2.2791,2.2968,2.3006,2.3567,2.3808,2.3928,2.4449,2.4636,2.4636,2.4636,2.4636,2.4636,2.471,2.471,2.471,2.4784,2.4784,2.471,2.471,2.4636,2.4636,2.4636,2.4636,2.4649,2.4703,2.513,2.5531,2.5585,2.6104,2.6544,2.6702,2.7018,2.7268,2.7412,2.7712,2.8104,2.8588,2.8544,2.8632,2.9045,2.9245,2.9743,3.0907,3.1203,3.1943,3.3299,3.3438,3.3542,3.3817,3.3817,3.3678,3.34,3.3367,3.3486,3.3817,3.3486,3.3486,3.3817,3.3817,3.3817,1.9881,2.0593,2.1341,2.145,2.1848,2.2297,2.2259,2.2334,2.2334,0.0,2.2334,0.0,0.0,0.0,0.0,0.0,0.0,0.0,0.0,0.0,0.0,0.0,0.0,0.0,0.0,0.0,0.0,0.0,0.0,0.0,2.1978,2.2266,2.2481,2.2481,2.2299,2.2147,2.2109,2.1938,2.1867,2.176,2.2104,2.2448,2.2722,2.2722,2.2379,2.1829,2.2104,2.2242,2.2242,2.2654,2.2791,2.2859,2.2859,2.3033,2.33,2.3647,2.3928,2.4195,2.4516,2.4636,2.4636,2.4636,2.4636,2.4636,2.5005,2.5092,2.5152,2.5506,2.5373,2.5092,2.5092,2.4857,2.4636,2.4636,2.4636,2.4703,2.497,2.5277,2.5585,2.5852,2.6486,2.7175,2.7883,2.8133,2.8353,2.9027,2.9182,2.9416,2.9789,2.9547,2.9503,2.999,3.0056,3.0505,3.1709,3.248,3.3175,3.3713,3.4048,3.4095,3.3835,3.3817,3.3817,3.3747,3.3692,3.3762,3.3817,3.3762,3.3762,3.3817,3.3817,3.3817,2.0279,2.0774,2.1281,2.1438,2.1764,2.2152,2.2309,2.2334,2.2334,2.2334,2.2334,0.0,0.0,0.0,0.0,0.0,0.0,0.0,0.0,0.0,0.0,0.0,0.0,0.0,0.0,0.0,0.0,0.0,0.0,2.2024,2.1873,2.2071,2.2141,2.2141,2.2223,2.2285,2.2285,2.2375,2.2448,2.2448,2.2585,2.2722,2.2928,2.2928,2.2722,2.2448,2.2585,2.2654,2.2654,2.2859,2.2928,2.2928,2.2928,2.2939,2.3126,2.3594,2.3991,2.4296,2.4769,2.5079,2.5286,2.5286,2.5433,2.5667,2.5814,2.6166,2.6458,2.6444,2.6312,2.6093,2.5653,2.5359,2.5212,2.5005,2.5275,2.5662,2.6024,2.5985,2.6112,2.712,2.7862,2.8495,2.8886,2.9353,2.9819,3.0423,3.0732,3.1101,3.1731,3.1485,3.142,3.1894,3.1693,3.19,3.2646,3.3056,3.341,3.3793,3.4003,3.4,3.3817,3.3817,3.3817,3.3817,3.3817,3.3817,3.3817,3.3817,3.3817,3.3817,3.4024,3.4163,2.0731,2.0999,2.1254,2.146,2.1692,2.1921,2.2114,2.2285,2.2334,0.0,0.0,0.0,0.0,0.0,0.0,0.0,0.0,0.0,0.0,0.0,0.0,0.0,0.0,0.0,0.0,0.0,0.0,0.0,0.0,2.2115,2.191,2.2035,2.2104,2.2104,2.231,2.2448,2.2448,2.2722,2.2928,2.2928,2.2928,2.2928,2.2928,2.2928,2.2928,2.2928,2.2928,2.2928,2.2928,2.2996,2.2996,2.3065,2.3133,2.3256,2.3378,2.3991,2.4435,2.4786,2.5545,2.5946,2.6225,2.6371,2.659,2.6823,2.6969,2.7405,2.7753,2.7608,2.7463,2.7187,2.6618,2.6353,2.622,2.6098,2.6503,2.6926,2.7087,2.6985,2.7234,2.8487,2.9431,3.0036,3.0268,3.0886,3.1501,3.2021,3.2419,3.2876,3.3575,3.331,3.3192,3.3594,3.3208,3.3073,3.3585,3.3567,3.3723,3.3963,3.4055,3.4073,3.3963,3.4073,3.4128,3.4128,3.418,3.4088,3.3817,3.3886,3.3955,3.3955,3.437,3.4508,2.1064,2.1336,2.1546,2.1558,2.1762,2.1873,2.1885,2.2152,2.2408,2.2781,0.0,0.0,0.0,0.0,0.0,0.0,0.0,0.0,0.0,0.0,0.0,0.0,0.0,0.0,0.0,0.0,0.0,0.0,0.0,2.2323,2.2242,2.2654,2.2859,2.2859,2.2859,2.2859,2.2859,2.2859,2.2928,2.2928,2.2928,2.2928,2.2928,2.2928,2.2928,2.2928,2.2928,2.2928,2.2928,2.327,2.3338,2.3406,2.3816,2.4065,2.4428,2.5115,2.557,2.5941,2.6982,2.739,2.7463,2.7882,2.7955,2.8099,2.8475,2.8619,2.8707,2.9082,2.8619,2.8103,2.8349,2.7925,2.757,2.8238,2.8477,2.8356,2.7841,2.8373,2.9166,2.9836,3.0655,3.1501,3.2283,3.2816,3.3348,3.4105,3.4255,3.4406,3.4857,3.4613,3.4439,3.4422,3.4067,3.4036,3.4379,3.4451,3.4413,3.4403,3.4752,3.4788,3.4385,3.4752,3.4972,3.4972,3.5312,3.4923,3.3817,3.4163,3.437,3.437,3.4715,3.4853,2.1439,2.1628,2.1742,2.1918,2.2049,2.2156,2.2518,2.2668,2.2866,2.319,0.0,0.0,0.0,0.0,0.0,0.0,0.0,0.0,0.0,0.0,0.0,0.0,0.0,0.0,0.0,0.0,0.0,0.0,0.0,0.0,2.2722,2.2791,2.2928,2.2928,2.2928,2.2928,2.2928,2.2928,2.2928,2.2928,2.2928,2.2928,2.2928,2.2928,2.2996,2.327,2.3747,2.3816,2.3611,2.3952,2.4224,2.4495,2.4902,2.5227,2.5549,2.629,2.6899,2.7514,2.8351,2.8835,2.9051,2.9465,2.9751,2.9965,3.0107,3.0534,3.0835,3.0496,3.0211,2.9799,2.9193,2.9034,2.9198,3.0206,3.0873,3.1254,3.1245,3.108,3.1128,3.1638,3.2571,3.3407,3.3727,3.4105,3.4556,3.5082,3.5157,3.5306,3.5754,3.5428,3.5175,3.5175,3.483,3.4667,3.4811,3.4811,3.481,3.4807,3.4954,3.4972,3.4807,3.515,3.5367,3.5367,3.5796,3.5515,3.4552,3.4971,3.5048,3.4715,3.5127,3.5264,2.1697,2.1825,2.1902,2.2172,2.2243,2.2281,2.2663,2.2828,2.2968,2.3395,0.0,0.0,0.0,0.0,0.0,0.0,0.0,0.0,0.0,0.0,0.0,0.0,0.0,0.0,0.0,0.0,0.0,0.0,0.0,0.0,2.2928,2.2928,2.2928,2.2928,2.2928,2.2928,2.2928,2.2928,2.2928,2.2928,2.2928,2.2928,2.2928,2.2996,2.327,2.3679,2.4495,2.4699,2.436,2.497,2.5307,2.5592,2.6222,2.6676,2.6923,2.7925,2.8519,2.9071,2.9922,3.0409,3.0622,3.1047,3.133,3.1542,3.1542,3.1894,3.2193,3.1718,3.1489,3.1257,3.0778,3.0989,3.154,3.2259,3.2976,3.3569,3.3751,3.3255,3.2876,3.312,3.4105,3.4782,3.4782,3.5157,3.5456,3.5754,3.5829,3.5903,3.6126,3.5981,3.5815,3.5815,3.5577,3.543,3.543,3.543,3.5375,3.5229,3.543,3.552,3.5373,3.5917,3.6209,3.6209,3.6569,3.6451,3.5802,3.5952,3.5813,3.5527,3.5893,3.61,0.0,0.0,0.0,2.2232,2.2311,2.2237,2.225,0.0,2.2832,2.3476,0.0,0.0,0.0,0.0,0.0,0.0,0.0,0.0,0.0,0.0,0.0,0.0,0.0,0.0,0.0,0.0,0.0,0.0,0.0,2.2928,2.2928,2.2928,2.2928,2.2928,2.2928,2.2928,2.2928,2.2928,2.2928,2.2928,2.2928,2.2928,2.2928,2.327,2.3611,2.4088,2.5158,2.5427,2.5172,2.6249,2.6651,2.6816,2.7954,2.837,2.8535,2.9998,3.0544,3.0681,3.1756,3.2105,3.2175,3.2631,3.2701,3.2701,3.2701,3.2701,3.2701,3.2701,3.2403,3.228,3.3136,3.3905,3.4389,3.4406,3.4707,3.5007,3.5007,3.4707,3.4481,3.4481,3.5082,3.5605,3.5605,3.5903,3.6201,3.6201,3.6201,3.6201,3.6201,3.6201,3.6201,3.6201,3.6201,3.6201,3.6201,3.6201,3.6036,3.5669,3.6368,3.6644,3.6253,3.6974,3.7421,3.7421,3.7789,3.7797,3.7446,3.6932,3.672,3.672,3.7144,3.7305,2.2151,0.0,0.0,0.0,0.0,0.0,0.0,0.0,2.3655,2.4035,0.0,0.0,0.0,0.0,0.0,0.0,0.0,0.0,0.0,0.0,0.0,0.0,0.0,0.0,0.0,0.0,0.0,0.0,2.3033,2.2928,2.2928,2.2928,2.2928,2.2928,2.2928,2.2928,2.2928,2.2928,2.2928,2.2928,2.2928,2.2928,2.2928,2.327,2.3884,2.4766,2.6167,2.7102,2.7766,2.7783,2.8048,2.8609,2.951,3.0018,3.0394,3.1287,3.1861,3.2193,3.2718,3.2981,3.3051,3.34,3.3469,3.3469,3.3469,3.3469,3.3469,3.3191,3.3051,3.309,3.3605,3.4318,3.4966,3.5235,3.5605,3.5829,3.5829,3.5754,3.5605,3.5306,3.568,3.6052,3.6052,3.6126,3.6201,3.6201,3.6201,3.6201,3.6201,3.6201,3.6201,3.6201,3.6201,3.6201,3.6201,3.6201,3.6312,3.6423,3.6682,3.6904,3.7104,3.7585,3.7862,3.7862,3.8228,3.837,3.8253,3.7825,3.7436,3.7144,3.7234,3.7461,0.0,0.0,0.0,0.0,0.0,0.0,2.3885,2.4036,2.4188,0.0,0.0,0.0,0.0,0.0,0.0,0.0,0.0,0.0,0.0,0.0,0.0,0.0,0.0,0.0,0.0,0.0,0.0,2.3527,2.3113,2.2928,2.2928,2.2928,2.2928,2.2928,2.2928,2.2806,2.2672,2.2806,2.2806,2.2672,2.2806,2.2996,2.3133,2.3611,2.4428,2.551,2.6969,2.823,2.9233,2.9299,2.9495,2.9809,3.0588,3.111,3.1566,3.2316,3.278,3.3191,3.34,3.3539,3.3539,3.3747,3.3817,3.3817,3.3817,3.3817,3.3747,3.3539,3.3723,3.4086,3.427,3.4939,3.563,3.5774,3.6052,3.6201,3.6201,3.6201,3.6126,3.5903,3.6052,3.6201,3.6201,3.6201,3.6201,3.6201,3.6201,3.6201,3.6201,3.6367,3.6423,3.6423,3.659,3.6738,3.6738,3.6738,3.6812,3.7034,3.7181,3.7421,3.7642,3.8009,3.8228,3.8228,3.8501,3.8574,3.8574,3.832,3.8066,3.7832,3.7832,3.7969,0.0,0.0,0.0,0.0,0.0,0.0,2.4228,2.4488,2.4627,0.0,0.0,0.0,0.0,0.0,0.0,0.0,0.0,0.0,0.0,0.0,0.0,0.0,0.0,0.0,0.0,2.4115,2.3768,2.3768,2.3207,2.2928,2.2928,2.2928,2.2928,2.2928,2.2928,2.2712,2.2418,2.2712,2.2712,2.2418,2.2794,2.3133,2.3475,2.4292,2.524,2.6301,2.7716,2.8905,2.9952,3.0667,3.075,3.0609,3.1312,3.1775,3.2258,3.2929,3.3468,3.3817,3.3817,3.3817,3.3817,3.3817,3.3817,3.3817,3.3817,3.3817,3.3817,3.3872,3.444,3.5045,3.5082,3.565,3.6201,3.6201,3.6201,3.6201,3.6201,3.6201,3.6201,3.6201,3.6201,3.6201,3.6201,3.6201,3.6201,3.6201,3.6201,3.6201,3.6201,3.659,3.6812,3.6812,3.7181,3.7421,3.7421,3.7421,3.7421,3.7495,3.7789,3.8009,3.8082,3.8448,3.8574,3.8574,3.8574,3.8574,3.8574,3.8574,3.8574,3.8574,3.8574,3.8574,0.0,0.0,0.0,0.0,0.0,0.0,2.5606,2.5727,2.5758,0.0,0.0,0.0,0.0,0.0,0.0,0.0,0.0,0.0,0.0,0.0,0.0,0.0,0.0,0.0,0.0,2.4115,2.3768,2.3768,2.3207,2.2928,2.2928,2.2928,2.2928,2.2928,2.2928,2.2712,2.2418,2.2712,2.2712,2.2418,2.2984,2.3475,2.3884,2.4955,2.5965,2.7035,2.8444,2.9513,3.0361,3.0991,3.1249,3.1221,3.1705,3.2173,3.2576,3.2997,3.3468,3.3817,3.3817,3.3817,3.3817,3.3817,3.3817,3.3817,3.3817,3.3817,3.3872,3.4202,3.4642,3.51,3.543,3.5852,3.6201,3.6201,3.6201,3.6201,3.6201,3.6201,3.6201,3.6201,3.6201,3.6201,3.6201,3.6201,3.6201,3.6201,3.6201,3.6201,3.6201,3.659,3.6812,3.6812,3.7181,3.7421,3.7421,3.7421,3.7568,3.7862,3.7936,3.8155,3.8428,3.8574,3.8574,3.8574,3.8574,3.8574,3.8574,3.8574,3.8574,3.8574,3.8574,3.8574,0.0,0.0,0.0,2.4036,0.0,0.0,0.0,2.6777,2.7099,2.6906,2.6842,2.6936,0.0,0.0,0.0,0.0,0.0,0.0,0.0,0.0,0.0,0.0,0.0,0.0,0.0,2.4249,2.3861,2.3567,2.3126,2.2928,2.2928,2.2928,2.2928,2.2928,2.2928,2.2645,2.2205,2.2645,2.2632,2.2205,2.3188,2.3952,2.4563,2.5831,2.6969,2.8097,2.9299,3.01,3.0685,3.1184,3.1377,3.1414,3.1836,3.2239,3.2643,3.3065,3.3468,3.3817,3.3817,3.3817,3.3817,3.3817,3.3817,3.3817,3.3817,3.3945,3.4147,3.4348,3.4844,3.5375,3.5559,3.5907,3.6201,3.6201,3.6201,3.6201,3.6201,3.6201,3.6201,3.6201,3.6201,3.6201,3.6201,3.6201,3.6201,3.6201,3.6201,3.6275,3.6497,3.6886,3.7181,3.7402,3.777,3.799,3.799,3.799,3.8063,3.8302,3.8302,3.8355,3.8574,3.8574,3.8574,3.8574,3.8574,3.8574,3.8574,3.8574,3.8574,3.8574,3.8574,3.8574,0.0,0.0,0.0,0.0,0.0,2.6407,0.0,0.0,0.0,2.7963,0.0,0.0,0.0,0.0,0.0,0.0,0.0,0.0,0.0,0.0,0.0,0.0,0.0,0.0,0.0,2.4209,2.3808,2.3273,2.3006,2.2928,2.2928,2.2928,2.2928,2.2928,2.2928,2.2605,2.2071,2.2592,2.266,2.2217,2.3484,2.4495,2.524,2.6702,2.7965,2.8971,2.9952,3.062,3.0944,3.1249,3.1377,3.1414,3.1836,3.2239,3.2643,3.3065,3.3468,3.3817,3.3817,3.3817,3.3817,3.3817,3.3817,3.3817,3.3817,3.4092,3.4422,3.4495,3.5045,3.5632,3.5705,3.5962,3.6201,3.6201,3.6275,3.6275,3.6275,3.6349,3.6423,3.6423,3.6423,3.6442,3.6367,3.6275,3.6349,3.6442,3.6423,3.659,3.6886,3.7255,3.7642,3.7936,3.8375,3.8574,3.8574,3.8574,3.8574,3.8574,3.8574,3.8574,3.8574,3.8574,3.8574,3.8574,3.8574,3.8574,3.8574,3.8574,3.8574,3.8574,3.8574,3.8574,0.0,0.0,0.0,0.0,2.6949,0.0,0.0,0.0,2.8659,2.8932,0.0,0.0,0.0,0.0,0.0,0.0,0.0,0.0,0.0,0.0,0.0,0.0,0.0,0.0,0.0,0.0,2.3287,2.2939,2.2954,2.2928,2.2928,2.2928,2.2928,2.2928,2.2928,2.2699,2.2378,2.2699,2.2903,2.2914,2.3933,2.497,2.6032,2.7435,2.851,2.9299,3.0361,3.0879,3.0944,3.1249,3.1377,3.1414,3.1836,3.2239,3.2643,3.3065,3.3468,3.3817,3.3817,3.3817,3.3817,3.3817,3.3817,3.3817,3.3817,3.4092,3.4477,3.4844,3.5284,3.5705,3.6054,3.6182,3.6201,3.6201,3.6497,3.6738,3.6738,3.7034,3.7255,3.7255,3.7255,3.7181,3.6812,3.6738,3.6886,3.7181,3.7255,3.7255,3.7347,3.7715,3.7936,3.8009,3.8375,3.8574,3.8574,3.8574,3.8574,3.8574,3.8574,3.8574,3.8574,3.8574,3.8574,3.8574,3.8574,3.8574,3.8574,3.8574,3.8574,3.8574,3.8574,3.8574,0.0,0.0,0.0,0.0,0.0,0.0,0.0,0.0,2.9861,0.0,0.0,0.0,0.0,0.0,0.0,0.0,3.0972,0.0,0.0,0.0,0.0,0.0,0.0,0.0,0.0,0.0,0.0,0.0,0.0,2.2928,2.2928,2.2928,2.2928,2.2928,2.2928,2.2712,2.2418,2.2712,2.2916,2.3036,2.4473,2.5697,2.6769,2.8427,2.9561,3.0296,3.1197,3.1549,3.1567,3.1917,3.2074,3.2129,3.2551,3.2661,3.268,3.3321,3.367,3.3817,3.3817,3.3817,3.3817,3.3817,3.3817,3.3817,3.3817,3.4092,3.4495,3.4917,3.5465,3.6017,3.6405,3.6738,3.6886,3.6886,3.7034,3.7107,3.7107,3.7255,3.7421,3.7421,3.7421,3.7421,3.7495,3.7329,3.7181,3.7329,3.7421,3.7495,3.7715,3.7862,3.8082,3.8282,3.8501,3.8574,3.8574,3.8574,3.8574,3.8574,3.8574,3.8574,3.8574,3.8574,3.8574,3.8574,3.8574,3.8574,3.8574,3.8574,3.8574,3.8574,3.8574,3.8574,2.4679,0.0,0.0,0.0,0.0,0.0,0.0,0.0,0.0,0.0,0.0,0.0,0.0,0.0,0.0,0.0,0.0,0.0,0.0,0.0,0.0,0.0,0.0,0.0,0.0,0.0,0.0,2.3332,2.3062,2.2928,2.2928,2.2928,2.2928,2.2928,2.2928,2.2752,2.2539,2.2752,2.3093,2.3428,2.492,2.6234,2.7501,2.9085,3.0213,3.0962,3.1577,3.1909,3.2019,3.2313,3.2496,3.2643,3.3065,3.3114,3.2979,3.356,3.3817,3.3817,3.3955,3.4024,3.4094,3.4094,3.4094,3.4094,3.4094,3.4371,3.4778,3.5185,3.5827,3.6455,3.6866,3.7181,3.7421,3.7421,3.7495,3.7568,3.7568,3.7623,3.7696,3.7696,3.7696,3.7843,3.8082,3.7862,3.7642,3.7696,3.7696,3.7862,3.8155,3.8155,3.8302,3.8574,3.8574,3.8574,3.8574,3.8574,3.8574,3.8574,3.8574,3.8574,3.8574,3.8574,3.8574,3.8574,3.8574,3.8574,3.8574,3.8574,3.8574,3.8574,3.8574,3.8574,0.0,0.0,0.0,2.8342,0.0,0.0,0.0,0.0,3.1266,0.0,0.0,0.0,0.0,0.0,0.0,0.0,0.0,0.0,0.0,0.0,0.0,0.0,0.0,0.0,0.0,0.0,0.0,2.342,2.3065,2.2928,2.2928,2.2928,2.2928,2.2928,2.2928,2.2859,2.2846,2.2859,2.3406,2.4481,2.5225,2.6501,2.818,2.9299,3.0213,3.0944,3.1267,3.1634,3.2001,3.2019,3.2258,3.2643,3.3065,3.3434,3.3743,3.3808,3.3817,3.3886,3.4232,3.4577,3.4853,3.4853,3.4853,3.4853,3.4853,3.5136,3.5533,3.6039,3.6474,3.6891,3.7308,3.7402,3.7421,3.7421,3.7715,3.8009,3.8009,3.8302,3.8574,3.8574,3.8574,3.8574,3.8574,3.8228,3.8082,3.8501,3.8574,3.8574,3.8574,3.8574,3.8574,3.8574,3.8574,3.8574,3.8574,3.8574,3.8574,3.8574,3.8574,3.8574,3.8574,3.8574,3.8574,3.8574,3.8574,3.8574,3.8574,3.8574,3.8574,3.8574,3.8574,3.8574,0.0,0.0,2.857,2.9395,0.0,0.0,0.0,0.0,0.0,0.0,0.0,0.0,0.0,0.0,0.0,0.0,0.0,0.0,0.0,0.0,0.0,0.0,0.0,0.0,0.0,0.0,0.0,2.3187,2.2768,2.2485,0.0,2.2458,2.2565,2.2565,2.2752,2.2928,2.2928,2.3133,2.3679,2.4495,2.5965,2.7368,2.8642,3.0148,3.1265,3.2078,3.2665,3.3133,3.3546,3.3827,3.4033,3.4165,3.4246,3.4439,3.4527,3.4245,3.437,3.4577,3.4715,3.4784,3.4921,3.4921,3.4921,3.4921,3.4921,3.5016,3.5205,3.5622,3.6251,3.6833,3.7253,3.7778,3.8209,3.8209,3.8282,3.8375,3.8375,3.8501,3.8574,3.8574,3.8574,3.8574,3.8574,3.8501,3.8428,3.8574,3.8574,3.8574,3.8574,3.8574,3.8574,3.8574,3.8574,3.8574,3.8574,3.8574,3.8574,3.8574,3.8574,3.8574,3.8574,3.8574,3.8574,3.8574,3.8574,3.8574,3.8574,3.8574,3.8574,3.8574,3.8574,3.8574,2.6537,2.786,0.0,0.0,3.0636,0.0,3.1518,0.0,0.0,0.0,0.0,0.0,0.0,0.0,0.0,0.0,0.0,0.0,0.0,3.3228,0.0,0.0,0.0,0.0,0.0,0.0,2.4573,2.3451,2.2659,2.2178,0.0,0.0,2.2311,2.2418,2.2741,2.2957,2.3065,2.3543,2.4292,2.5292,2.7012,2.8478,2.9817,3.1353,3.2422,3.303,3.3473,3.3965,3.4296,3.4562,3.477,3.4921,3.4921,3.499,3.5059,3.4715,3.4784,3.5127,3.5127,3.5196,3.5264,3.5264,3.5264,3.5264,3.5264,3.5264,3.5379,3.6023,3.6509,3.7068,3.7648,3.8214,3.8574,3.8574,3.8574,3.8574,3.8574,3.8574,3.8574,3.8574,3.8574,3.8574,3.8574,3.8574,3.8574,3.8574,3.8574,3.8574,3.8574,3.8574,3.8574,3.8574,3.8574,3.8574,3.8574,3.8574,3.8574,3.8574,3.8574,3.8574,3.8574,3.8574,3.8574,3.8574,3.8574,3.8574,3.8574,3.8574,3.8574,3.8574,3.8574,3.8574]},{"header":{"parameterUnit":"m.s-1","parameterCategory":1,"la1":30.6,"la2":29.2853,"lo1":-89.7004,"lo2":-87.6739,"dy":0.0162,"dx":0.0183,"nx":112,"ny":82,"refTime":"2023-09-19T18:00:00:Z","depth":0,"parameterNumber":3,"parameterNumberName":"V-component_of_WINDS"},"data":[0.0,0.0,0.0,0.0,0.0,0.0,0.0,0.0,0.0,0.0,0.0,0.0,0.0,0.0,0.0,0.0,0.0,0.0,0.0,0.0,0.0,0.0,0.0,0.0,0.0,0.0,0.0,0.0,0.0,0.0,0.0,0.0,0.0,0.0,0.0,0.0,0.0,0.0,0.0,0.0,0.0,0.0,0.0,0.0,0.0,0.0,0.0,0.0,0.0,0.0,0.0,0.0,0.0,0.0,0.0,0.0,0.0,0.0,0.0,0.0,0.0,0.0,0.0,0.0,0.0,0.0,0.0,0.0,0.0,0.0,0.0,0.0,0.0,0.0,0.0,0.0,0.0,0.0,0.0,0.0,0.0,0.0,0.0,0.0,0.0,0.0,0.0,0.0,0.0,0.0,0.0,4.0138,4.0815,4.1381,4.1755,4.129,4.0855,4.0488,0.0,0.0,0.0,0.0,0.0,0.0,0.0,0.0,0.0,0.0,0.0,0.0,0.0,0.0,0.0,0.0,0.0,0.0,0.0,0.0,0.0,0.0,0.0,0.0,0.0,0.0,0.0,0.0,0.0,0.0,0.0,0.0,0.0,0.0,0.0,0.0,0.0,0.0,0.0,0.0,0.0,0.0,0.0,0.0,0.0,0.0,0.0,0.0,0.0,0.0,0.0,0.0,0.0,0.0,0.0,0.0,0.0,0.0,0.0,0.0,0.0,0.0,0.0,0.0,0.0,0.0,0.0,0.0,0.0,0.0,0.0,0.0,0.0,0.0,0.0,0.0,0.0,0.0,0.0,0.0,0.0,0.0,0.0,0.0,0.0,0.0,0.0,0.0,0.0,0.0,0.0,0.0,0.0,0.0,0.0,0.0,0.0,0.0,0.0,0.0,0.0,0.0,0.0,0.0,4.0412,4.0263,4.0943,4.1095,4.046,4.077,4.0673,3.9878,0.0,0.0,0.0,0.0,0.0,0.0,0.0,0.0,0.0,0.0,0.0,0.0,0.0,0.0,0.0,0.0,0.0,0.0,0.0,0.0,0.0,0.0,0.0,0.0,0.0,0.0,0.0,0.0,0.0,0.0,0.0,0.0,0.0,0.0,0.0,0.0,0.0,0.0,0.0,0.0,0.0,0.0,0.0,0.0,0.0,0.0,0.0,0.0,0.0,0.0,0.0,0.0,0.0,0.0,0.0,0.0,0.0,0.0,0.0,0.0,0.0,0.0,0.0,0.0,0.0,0.0,0.0,0.0,0.0,0.0,0.0,0.0,0.0,0.0,0.0,0.0,0.0,0.0,0.0,0.0,0.0,0.0,0.0,0.0,0.0,0.0,0.0,0.0,0.0,0.0,0.0,0.0,0.0,0.0,0.0,0.0,0.0,0.0,0.0,0.0,0.0,0.0,0.0,4.0461,4.0485,4.0412,4.0719,4.0737,4.0247,4.0443,4.0408,3.984,3.9677,0.0,0.0,0.0,0.0,0.0,0.0,0.0,0.0,0.0,0.0,0.0,0.0,0.0,0.0,0.0,0.0,0.0,0.0,0.0,0.0,0.0,0.0,0.0,0.0,0.0,0.0,0.0,0.0,0.0,0.0,0.0,0.0,0.0,0.0,0.0,0.0,0.0,0.0,0.0,0.0,0.0,0.0,0.0,0.0,0.0,0.0,0.0,0.0,0.0,0.0,0.0,0.0,0.0,0.0,0.0,0.0,0.0,0.0,0.0,0.0,0.0,0.0,0.0,0.0,0.0,0.0,0.0,0.0,0.0,0.0,0.0,0.0,0.0,0.0,0.0,0.0,0.0,0.0,0.0,0.0,0.0,0.0,0.0,0.0,0.0,0.0,0.0,0.0,0.0,0.0,0.0,0.0,0.0,0.0,0.0,0.0,0.0,0.0,0.0,0.0,0.0,0.0,4.0607,4.0583,4.0558,4.0558,4.0485,4.0362,4.0313,4.0188,3.9961,3.9807,0.0,0.0,0.0,0.0,0.0,0.0,0.0,0.0,0.0,0.0,0.0,0.0,0.0,0.0,0.0,0.0,0.0,0.0,0.0,0.0,0.0,0.0,0.0,0.0,0.0,0.0,0.0,0.0,0.0,0.0,0.0,0.0,0.0,0.0,0.0,0.0,0.0,0.0,0.0,0.0,0.0,0.0,0.0,0.0,0.0,0.0,0.0,0.0,0.0,0.0,0.0,0.0,0.0,0.0,0.0,0.0,0.0,0.0,0.0,0.0,0.0,0.0,0.0,0.0,0.0,0.0,0.0,0.0,0.0,0.0,0.0,0.0,0.0,0.0,0.0,0.0,0.0,0.0,0.0,0.0,0.0,0.0,0.0,0.0,0.0,0.0,0.0,0.0,0.0,0.0,0.0,0.0,0.0,0.0,0.0,0.0,0.0,0.0,0.0,0.0,0.0,0.0,4.0976,4.0823,4.068,4.0714,4.0631,4.051,4.0362,4.0238,4.0113,3.9961,0.0,0.0,0.0,0.0,0.0,0.0,0.0,0.0,0.0,0.0,0.0,0.0,0.0,0.0,0.0,0.0,0.0,0.0,0.0,0.0,0.0,0.0,0.0,0.0,0.0,0.0,0.0,0.0,0.0,0.0,0.0,0.0,0.0,0.0,0.0,0.0,0.0,0.0,0.0,0.0,0.0,0.0,0.0,0.0,0.0,0.0,0.0,0.0,0.0,0.0,0.0,0.0,0.0,0.0,0.0,0.0,0.0,0.0,0.0,0.0,0.0,0.0,0.0,0.0,0.0,0.0,0.0,0.0,0.0,0.0,0.0,0.0,0.0,0.0,0.0,0.0,0.0,0.0,0.0,0.0,0.0,0.0,0.0,0.0,0.0,0.0,0.0,0.0,0.0,0.0,0.0,0.0,0.0,0.0,0.0,0.0,0.0,0.0,0.0,0.0,0.0,0.0,4.114,4.1,0.0,4.0881,4.0752,4.0631,4.0558,4.0436,4.0238,0.0,0.0,0.0,0.0,0.0,0.0,0.0,0.0,0.0,0.0,0.0,0.0,0.0,0.0,0.0,0.0,0.0,0.0,0.0,0.0,0.0,0.0,0.0,0.0,0.0,0.0,0.0,0.0,0.0,0.0,0.0,0.0,0.0,0.0,0.0,0.0,0.0,0.0,0.0,0.0,0.0,0.0,0.0,0.0,0.0,0.0,0.0,0.0,0.0,0.0,0.0,0.0,0.0,0.0,0.0,0.0,0.0,0.0,0.0,0.0,0.0,0.0,0.0,0.0,0.0,0.0,0.0,0.0,0.0,0.0,0.0,0.0,0.0,0.0,0.0,0.0,0.0,0.0,0.0,0.0,0.0,0.0,0.0,0.0,0.0,0.0,0.0,0.0,0.0,0.0,0.0,0.0,0.0,0.0,0.0,0.0,0.0,0.0,0.0,0.0,0.0,0.0,4.156,4.1312,4.1186,0.0,4.1012,4.0929,4.0834,4.0762,4.0641,4.0436,0.0,0.0,0.0,0.0,0.0,0.0,0.0,0.0,0.0,0.0,0.0,0.0,0.0,0.0,0.0,0.0,0.0,0.0,0.0,0.0,0.0,0.0,0.0,0.0,0.0,0.0,0.0,0.0,0.0,0.0,0.0,0.0,0.0,0.0,0.0,0.0,0.0,0.0,0.0,0.0,0.0,0.0,0.0,0.0,0.0,0.0,0.0,0.0,0.0,0.0,0.0,0.0,0.0,0.0,0.0,0.0,0.0,0.0,0.0,0.0,0.0,0.0,0.0,0.0,0.0,0.0,0.0,0.0,0.0,0.0,0.0,0.0,0.0,0.0,0.0,0.0,0.0,0.0,0.0,0.0,0.0,0.0,0.0,0.0,0.0,0.0,0.0,0.0,0.0,0.0,0.0,0.0,0.0,0.0,0.0,0.0,0.0,0.0,0.0,0.0,0.0,0.0,4.1823,4.156,4.1358,4.1232,4.1129,4.1093,4.1093,4.0858,4.068,0.0,0.0,0.0,0.0,0.0,0.0,0.0,0.0,0.0,0.0,0.0,0.0,0.0,0.0,0.0,0.0,0.0,0.0,0.0,0.0,0.0,0.0,0.0,0.0,0.0,0.0,0.0,0.0,0.0,0.0,0.0,0.0,0.0,0.0,0.0,0.0,0.0,0.0,0.0,0.0,0.0,0.0,0.0,0.0,0.0,0.0,0.0,0.0,0.0,0.0,0.0,0.0,0.0,0.0,0.0,0.0,0.0,0.0,0.0,0.0,0.0,0.0,0.0,0.0,0.0,0.0,0.0,0.0,0.0,0.0,0.0,0.0,0.0,0.0,0.0,0.0,0.0,0.0,0.0,0.0,0.0,0.0,0.0,0.0,0.0,0.0,0.0,0.0,0.0,0.0,0.0,0.0,0.0,0.0,0.0,0.0,0.0,0.0,0.0,0.0,0.0,0.0,0.0,4.2272,4.1895,4.1626,4.1515,4.1312,4.1152,4.1093,4.1023,4.0905,4.0714,0.0,0.0,0.0,0.0,0.0,0.0,0.0,0.0,0.0,0.0,0.0,0.0,0.0,0.0,0.0,0.0,0.0,0.0,0.0,0.0,0.0,0.0,0.0,0.0,0.0,0.0,0.0,0.0,0.0,0.0,0.0,0.0,0.0,0.0,0.0,0.0,0.0,0.0,0.0,0.0,0.0,0.0,0.0,0.0,0.0,0.0,0.0,0.0,0.0,0.0,0.0,0.0,0.0,0.0,0.0,0.0,0.0,0.0,0.0,0.0,0.0,0.0,0.0,0.0,0.0,0.0,0.0,0.0,0.0,0.0,0.0,0.0,0.0,0.0,0.0,0.0,0.0,0.0,0.0,0.0,0.0,0.0,0.0,0.0,0.0,0.0,0.0,0.0,0.0,0.0,0.0,0.0,0.0,0.0,0.0,0.0,0.0,0.0,0.0,0.0,0.0,0.0,4.2652,4.2272,4.1959,4.1823,4.156,4.1358,4.1324,4.1198,4.1035,4.0881,0.0,0.0,0.0,0.0,0.0,0.0,0.0,0.0,0.0,0.0,0.0,0.0,0.0,0.0,0.0,0.0,0.0,0.0,0.0,0.0,0.0,0.0,0.0,0.0,0.0,0.0,0.0,0.0,0.0,0.0,0.0,0.0,0.0,0.0,0.0,0.0,0.0,0.0,0.0,0.0,0.0,0.0,0.0,0.0,0.0,0.0,0.0,0.0,0.0,0.0,0.0,0.0,0.0,0.0,0.0,0.0,0.0,0.0,0.0,0.0,0.0,0.0,0.0,0.0,0.0,0.0,0.0,0.0,0.0,0.0,0.0,0.0,0.0,0.0,0.0,0.0,0.0,0.0,0.0,0.0,0.0,0.0,0.0,0.0,0.0,0.0,0.0,0.0,0.0,0.0,0.0,0.0,0.0,0.0,0.0,0.0,0.0,0.0,0.0,0.0,0.0,0.0,4.2976,4.2671,4.2394,4.2148,4.1866,4.1648,4.1626,4.1391,4.1209,4.114,0.0,0.0,0.0,0.0,0.0,0.0,0.0,0.0,0.0,0.0,0.0,0.0,0.0,0.0,0.0,0.0,0.0,0.0,0.0,0.0,0.0,0.0,0.0,0.0,0.0,0.0,0.0,0.0,0.0,0.0,0.0,0.0,0.0,0.0,0.0,0.0,0.0,0.0,0.0,0.0,0.0,0.0,0.0,0.0,0.0,0.0,0.0,0.0,0.0,0.0,0.0,0.0,0.0,0.0,0.0,0.0,0.0,0.0,0.0,0.0,5.2224,0.0,0.0,0.0,0.0,0.0,0.0,0.0,0.0,0.0,0.0,0.0,0.0,0.0,0.0,0.0,0.0,0.0,0.0,0.0,0.0,0.0,0.0,0.0,0.0,0.0,0.0,0.0,0.0,0.0,0.0,0.0,0.0,0.0,0.0,0.0,0.0,0.0,0.0,0.0,0.0,0.0,4.3268,4.3014,4.277,4.253,4.2287,4.2079,4.1831,4.1758,4.1626,4.1493,4.1471,0.0,0.0,0.0,0.0,0.0,0.0,0.0,0.0,0.0,0.0,0.0,0.0,0.0,0.0,0.0,0.0,0.0,0.0,0.0,0.0,0.0,0.0,0.0,0.0,0.0,0.0,0.0,0.0,0.0,0.0,0.0,0.0,0.0,0.0,0.0,0.0,0.0,0.0,0.0,0.0,0.0,0.0,0.0,0.0,0.0,0.0,0.0,0.0,0.0,0.0,0.0,0.0,0.0,0.0,0.0,0.0,0.0,0.0,0.0,0.0,5.2949,0.0,0.0,0.0,0.0,0.0,0.0,0.0,0.0,0.0,0.0,0.0,0.0,0.0,0.0,0.0,0.0,0.0,0.0,0.0,0.0,0.0,0.0,0.0,0.0,0.0,0.0,0.0,0.0,0.0,0.0,0.0,0.0,0.0,0.0,0.0,0.0,0.0,0.0,0.0,0.0,4.3614,4.3389,4.3214,4.2937,4.2727,4.2494,4.2277,4.221,4.2142,4.2002,4.198,0.0,0.0,0.0,0.0,0.0,0.0,0.0,0.0,0.0,0.0,0.0,0.0,0.0,0.0,0.0,0.0,0.0,0.0,0.0,0.0,0.0,0.0,0.0,0.0,0.0,0.0,0.0,0.0,0.0,0.0,0.0,0.0,0.0,0.0,0.0,0.0,0.0,0.0,0.0,0.0,0.0,0.0,0.0,0.0,0.0,0.0,0.0,0.0,0.0,0.0,0.0,0.0,0.0,6.1612,6.1986,6.1883,6.1159,6.0737,6.0428,5.7497,5.5996,5.5462,0.0,0.0,0.0,0.0,0.0,0.0,0.0,0.0,0.0,0.0,0.0,0.0,0.0,0.0,0.0,0.0,0.0,0.0,0.0,0.0,0.0,0.0,0.0,0.0,0.0,4.8636,4.815,0.0,0.0,0.0,0.0,0.0,0.0,0.0,0.0,0.0,0.0,0.0,0.0,4.3961,4.3779,4.358,4.3303,4.3105,4.2957,4.2808,4.2749,4.2671,4.2557,4.2577,4.2537,0.0,0.0,0.0,0.0,0.0,0.0,0.0,0.0,0.0,0.0,0.0,0.0,0.0,0.0,0.0,0.0,0.0,0.0,0.0,0.0,0.0,0.0,0.0,0.0,0.0,0.0,0.0,0.0,0.0,0.0,0.0,0.0,5.2898,5.3682,0.0,0.0,0.0,0.0,0.0,0.0,0.0,0.0,0.0,0.0,0.0,0.0,0.0,0.0,5.952,6.1298,6.2256,6.239,6.3341,6.3374,6.2655,6.2596,6.2145,6.1377,6.0224,0.0,5.7358,5.6285,0.0,0.0,0.0,0.0,0.0,0.0,0.0,0.0,0.0,0.0,0.0,0.0,0.0,0.0,0.0,0.0,0.0,0.0,0.0,0.0,0.0,0.0,4.9824,4.9584,4.9541,4.9225,0.0,4.692,4.5889,4.5707,0.0,0.0,0.0,0.0,0.0,0.0,0.0,0.0,4.4094,4.4002,4.386,4.3664,4.3495,4.3356,4.3213,4.3195,4.3178,4.3178,4.3249,4.3248,4.3248,4.3372,0.0,0.0,0.0,0.0,0.0,0.0,0.0,0.0,0.0,0.0,0.0,0.0,0.0,0.0,0.0,0.0,0.0,0.0,0.0,0.0,0.0,0.0,0.0,0.0,0.0,0.0,0.0,0.0,0.0,5.3385,5.4358,5.5657,5.5034,5.4449,0.0,0.0,0.0,0.0,0.0,0.0,0.0,0.0,0.0,5.8239,5.9895,6.0735,6.0661,6.2446,6.3092,6.2659,6.3573,6.3809,6.3447,6.302,6.2621,6.2216,6.1437,6.0651,5.9804,5.7996,5.6495,5.5311,0.0,0.0,0.0,0.0,0.0,5.266,5.2635,0.0,0.0,0.0,0.0,0.0,0.0,0.0,0.0,0.0,0.0,0.0,0.0,0.0,0.0,4.9971,4.9917,4.9762,4.9343,4.8321,4.7222,0.0,4.5625,4.517,4.4654,0.0,0.0,0.0,0.0,0.0,4.4354,4.4281,4.4109,4.3892,4.3812,4.373,4.3631,4.3631,4.3647,4.3697,4.371,4.3726,4.3726,4.3795,4.3844,0.0,0.0,0.0,0.0,0.0,0.0,0.0,0.0,0.0,0.0,0.0,0.0,0.0,0.0,0.0,0.0,0.0,0.0,0.0,0.0,0.0,0.0,0.0,0.0,0.0,0.0,0.0,0.0,5.4724,5.5853,5.7521,5.6947,5.6411,0.0,0.0,0.0,0.0,0.0,0.0,5.7907,5.899,5.988,6.0538,6.2162,6.2684,6.187,6.335,6.3705,6.292,6.355,6.3782,6.3585,6.3016,6.263,6.2396,6.1842,6.1588,6.1429,5.9336,5.7956,5.7079,5.6204,5.5332,5.4541,5.4326,5.4234,5.4184,5.3927,5.3827,5.3731,5.3054,0.0,5.2347,5.1425,0.0,0.0,0.0,0.0,5.0782,5.0616,0.0,5.0329,5.0151,5.0063,4.9986,4.9906,4.9286,4.8299,0.0,4.6337,4.5795,4.5164,0.0,0.0,0.0,0.0,4.4605,4.4524,4.4454,4.434,4.4147,4.4101,4.407,4.3992,4.4008,4.407,4.4109,4.4124,4.4155,4.417,4.417,4.4311,4.4572,0.0,0.0,0.0,0.0,0.0,0.0,0.0,0.0,0.0,0.0,0.0,0.0,0.0,0.0,0.0,0.0,0.0,0.0,0.0,0.0,0.0,0.0,0.0,0.0,0.0,0.0,0.0,0.0,0.0,5.8333,5.7821,0.0,0.0,0.0,0.0,5.7125,5.7946,5.8797,5.9725,6.1311,6.224,6.2278,6.3942,6.4454,6.3565,6.4464,6.453,6.3756,6.377,6.3361,6.2585,6.2595,6.2175,6.1472,6.1501,6.1556,6.1512,6.0624,5.9759,5.8884,5.8004,5.7133,5.6274,5.5441,5.5123,5.5003,5.416,5.388,5.3872,5.3754,5.3176,5.2334,5.1478,5.1201,0.0,0.0,5.1119,5.103,5.0835,5.069,5.0507,5.0259,5.0126,5.0038,4.992,4.9286,4.8653,0.0,4.7159,4.6036,4.5932,0.0,4.4712,4.4712,4.4699,4.4672,4.4605,4.4524,4.4454,4.4383,4.431,4.4266,4.4304,4.4325,4.4397,4.4454,4.4524,4.4605,4.4672,4.4672,4.5063,4.5892,4.51,0.0,0.0,0.0,0.0,0.0,0.0,0.0,0.0,0.0,0.0,0.0,0.0,0.0,0.0,0.0,0.0,0.0,0.0,0.0,0.0,0.0,0.0,0.0,0.0,0.0,0.0,0.0,0.0,6.0145,6.0458,0.0,6.0576,5.9803,5.9648,6.0528,6.0886,6.1427,6.2288,6.3439,6.4058,6.4058,6.518,6.5102,6.3719,6.401,6.3468,6.2075,6.2054,6.1918,6.1682,6.1732,6.1632,6.1381,6.1473,6.153,6.1562,6.1326,6.0739,5.9909,5.9577,5.8941,5.8083,5.7172,5.6854,5.6734,5.5896,5.5567,5.5475,5.4901,5.4108,5.3243,5.2386,5.2104,5.1974,5.142,5.1224,5.1113,5.0956,5.0827,5.0672,5.044,4.9889,4.9364,4.9226,4.8478,4.787,4.7844,4.6935,4.5975,4.5382,4.5029,4.484,4.484,4.4802,4.4764,4.4738,4.4632,4.4537,4.4468,4.4397,4.4354,4.4354,4.4411,4.4482,4.4551,4.4632,4.4685,4.4712,4.4712,4.5127,4.5957,4.5693,4.5997,0.0,0.0,0.0,0.0,0.0,0.0,0.0,0.0,0.0,0.0,0.0,0.0,0.0,0.0,0.0,0.0,0.0,0.0,0.0,0.0,0.0,0.0,0.0,0.0,0.0,0.0,6.1217,6.2379,6.3011,6.3409,6.37,6.2926,6.2646,6.3245,6.3284,6.3516,6.4106,6.4948,6.5412,6.5412,6.5915,6.5412,6.3719,6.3719,6.282,6.1118,6.1137,6.1155,6.1191,6.125,6.1329,6.1401,6.1456,6.1552,6.1612,6.1678,6.1364,6.0846,6.0831,6.051,5.9844,5.8666,5.8234,5.8075,5.6881,5.651,5.6371,5.5494,5.4589,5.3736,5.2879,5.2399,5.204,5.1447,5.1259,5.1164,5.1011,5.0905,5.0761,5.0535,4.9751,4.8991,4.8808,4.7871,4.7024,4.7011,4.6544,4.6013,4.5445,4.5103,4.4914,4.4914,4.4877,4.484,4.4815,4.4725,4.4646,4.4565,4.4524,4.451,4.451,4.4537,4.4592,4.4659,4.4712,4.4751,4.4776,4.4776,4.5305,4.6452,4.682,4.7138,4.7491,0.0,0.0,0.0,0.0,0.0,0.0,0.0,0.0,0.0,0.0,0.0,0.0,0.0,0.0,0.0,0.0,0.0,0.0,0.0,0.0,0.0,0.0,0.0,6.0158,6.1577,6.3244,6.4998,6.5183,6.5515,6.6312,6.5615,6.5093,6.5073,6.5073,6.5073,6.5035,6.577,6.6195,6.6195,6.6195,6.5383,6.3719,6.3681,6.283,6.1118,6.1164,6.1191,6.1199,6.1291,6.1335,6.1415,6.149,6.1534,6.1624,6.168,6.1711,6.1696,6.1686,6.1679,6.1444,5.9727,5.9063,5.8788,5.7079,5.651,5.6375,5.5533,5.4667,5.3814,5.2918,5.206,5.1355,5.1334,5.123,5.1185,5.1018,5.0959,5.0833,5.0584,4.9767,4.9006,4.8795,4.7453,4.6251,4.619,4.6177,4.6177,4.6165,4.5445,4.4914,4.4914,4.4914,0.0,4.4827,4.4815,4.4789,4.4712,4.4712,4.4712,4.4712,4.4712,4.4738,4.4802,4.4815,4.484,4.4914,4.4914,4.5672,4.739,4.8414,4.8644,4.7973,0.0,0.0,0.0,0.0,0.0,0.0,0.0,0.0,0.0,0.0,0.0,0.0,0.0,0.0,0.0,0.0,0.0,0.0,0.0,0.0,0.0,0.0,6.372,6.3005,6.4318,6.573,6.6855,6.7489,6.7927,6.8151,6.7957,6.756,6.6921,6.6883,6.6611,6.603,6.6224,6.634,6.634,6.634,6.5526,6.3783,6.3783,6.293,6.1264,6.1267,6.1314,6.1342,6.1415,6.1489,6.156,6.1551,6.1627,6.1679,6.1674,6.1697,6.1686,6.1681,6.133,6.0627,5.9495,5.8321,5.7226,5.6689,5.6517,5.6471,5.6203,5.5996,5.5489,5.4009,5.3385,5.2913,5.1646,5.123,5.1185,5.1018,5.0905,5.0769,5.0614,4.9346,4.8143,4.8029,4.6637,4.5399,4.534,4.5328,4.5316,4.5267,4.5066,4.4914,4.4914,0.0,0.0,4.4889,4.484,4.4802,4.4789,4.4738,4.4712,4.4712,4.4751,4.4789,4.4815,4.4852,4.4914,4.4986,4.4986,4.582,4.7589,4.9224,4.9969,0.0,0.0,0.0,0.0,0.0,0.0,0.0,0.0,0.0,0.0,0.0,0.0,0.0,0.0,0.0,0.0,0.0,0.0,0.0,0.0,0.0,0.0,6.5342,6.6541,6.6708,6.7191,6.7896,6.8752,6.9281,6.9718,7.0027,6.9756,6.9157,6.8261,6.7873,6.7329,6.6475,6.6437,6.6437,6.6437,6.6437,6.5583,6.3875,6.3837,6.2991,6.1337,6.1373,6.1396,6.1423,6.152,6.1576,0.0,6.1629,6.1679,6.1716,6.1701,6.1686,0.0,0.0,0.0,0.0,0.0,5.7738,5.6602,5.6533,5.6482,5.6517,5.6519,5.6,5.5217,5.4203,5.3377,5.2585,5.1541,5.119,5.1125,5.0974,5.0858,5.0738,5.0563,4.9401,4.8318,4.8266,4.7152,4.6142,4.606,0.0,0.0,4.595,4.5369,4.5028,4.5407,4.5141,4.5028,0.0,4.5104,4.4852,4.4852,4.4815,4.4789,4.4789,4.4827,0.0,0.0,0.0,4.5162,4.562,4.5997,0.0,0.0,0.0,5.0625,0.0,0.0,0.0,0.0,5.0596,5.0726,0.0,0.0,0.0,0.0,0.0,0.0,0.0,0.0,0.0,0.0,0.0,0.0,0.0,0.0,0.0,0.0,6.724,6.8876,7.0437,7.0013,6.9782,7.0546,7.0658,7.0948,7.1628,7.1005,7.0123,6.9119,6.8373,6.7564,6.6585,0.0,0.0,0.0,0.0,6.5729,6.4104,6.3987,6.3145,6.1583,6.1534,6.15,6.1513,6.1598,6.1598,6.1627,6.1679,6.1716,6.1707,6.169,6.1562,6.1327,6.0549,6.0198,5.9924,5.8246,5.7189,0.0,0.0,0.0,0.0,5.6519,5.5372,5.4004,5.3927,5.2741,5.139,5.1258,5.1157,5.103,5.0833,5.0729,5.0635,5.0457,4.9712,4.9078,4.9014,4.8331,4.7674,4.7554,4.7491,4.7504,4.739,4.6089,4.5293,4.6089,4.5445,0.0,4.6089,4.552,4.5066,4.5179,0.0,0.0,4.5179,4.5192,4.5216,4.5288,4.5323,4.573,4.663,4.7545,4.8413,4.9325,5.0266,5.0795,5.0903,5.1056,5.1157,5.1164,5.1016,5.089,0.0,0.0,0.0,0.0,0.0,0.0,0.0,0.0,0.0,0.0,0.0,0.0,0.0,0.0,0.0,6.8235,6.9488,7.0543,7.1559,7.1557,7.1464,7.1542,7.1569,7.1603,7.1789,7.1633,7.0888,6.9358,6.9085,6.8305,6.6746,6.6668,0.0,6.6668,6.6668,6.6161,6.5108,6.4406,6.3588,6.2586,0.0,0.0,6.1566,6.1631,6.1679,6.1679,6.1672,6.1704,6.1699,6.1686,6.0859,5.9571,5.9417,5.8909,5.8168,5.7141,5.6667,5.6506,5.6514,5.65,5.6496,5.6515,5.5754,5.4723,5.4022,5.3093,0.0,5.1352,5.1089,5.0952,5.0764,5.0683,5.0573,5.0435,4.9728,4.9121,4.9098,4.8399,4.7743,4.7615,4.7591,4.7554,4.7403,4.6582,4.6013,4.6165,4.5445,4.5217,4.6089,4.6051,4.6203,4.6847,4.6923,4.6923,4.6923,4.6973,4.7035,4.707,4.7308,4.7511,4.7789,4.875,4.9335,4.9552,5.0502,5.103,5.1056,5.1125,5.1147,5.113,5.113,5.1063,0.0,0.0,0.0,0.0,0.0,0.0,0.0,0.0,0.0,0.0,0.0,6.4597,0.0,0.0,6.8008,6.9764,7.0779,7.1481,7.195,7.1989,7.1992,7.1893,7.1889,7.1887,7.1841,7.1841,7.1136,6.9411,6.9294,6.8552,6.6834,6.6756,6.6756,6.6756,6.6327,6.5663,6.4804,6.3943,6.3089,6.2278,6.1857,6.1631,6.1638,6.168,6.1716,6.1709,6.1702,6.1696,6.1688,6.1715,6.0929,5.9758,5.975,5.8697,5.7104,5.6667,5.6503,5.6491,5.6503,5.6492,5.6488,5.6459,5.5536,5.4339,5.3885,5.2824,5.1632,5.1111,5.0906,5.0808,5.0635,5.0563,5.0468,5.0379,5.0038,4.971,4.971,4.9343,4.8979,4.8883,4.8808,4.8783,4.8655,4.7997,4.7466,4.7466,4.6695,4.6468,4.7353,4.7074,4.6961,4.734,4.7378,4.739,4.7467,4.7589,4.7716,4.7816,4.802,4.8364,4.8863,4.9442,4.9937,5.0397,5.0874,5.1181,5.1214,5.1185,5.1185,5.1164,5.1142,5.1114,0.0,0.0,0.0,0.0,0.0,0.0,0.0,6.4205,6.5345,6.6754,6.7186,6.7578,6.8432,6.9174,6.9953,7.0805,7.1545,7.2014,7.2014,7.2014,7.1981,7.199,7.1991,7.1992,7.1914,7.1914,7.121,6.945,6.9332,6.859,6.691,6.6832,6.6832,6.6832,6.5972,6.5191,6.4488,6.3434,6.2576,6.1953,6.1797,6.1718,6.1713,6.1712,6.1705,6.169,6.169,6.1683,6.1671,6.1699,6.1072,6.0132,6.0155,5.8634,5.6536,5.6692,5.6647,5.6514,5.6496,5.6484,5.6476,5.6398,5.5307,5.4014,5.3915,5.2633,5.1184,5.1065,5.0853,5.0635,5.0521,5.0446,5.039,5.0333,5.0283,5.0321,5.0271,5.0224,5.0175,5.0076,5.0025,4.9959,4.9906,4.9362,4.8869,4.8717,4.7946,4.7719,4.8604,4.8111,4.7719,4.787,4.787,4.7909,4.801,4.8262,4.8419,4.8529,4.8698,4.9173,4.9924,5.0028,5.0437,5.118,5.1224,5.1245,5.1278,5.1215,5.1196,5.1175,5.1101,5.1023,5.8523,5.9885,6.1157,6.1356,6.3239,6.5078,0.0,6.6523,6.7733,6.7928,6.8589,6.9364,7.0253,7.0485,7.0833,7.1722,7.1953,7.1993,7.1993,7.1993,7.1993,7.1997,7.2014,7.1984,7.1984,7.1984,7.1282,6.9525,6.9408,6.8666,6.6985,6.6907,6.6907,6.6907,6.6049,6.5541,6.5424,6.3823,6.2923,6.2845,6.2058,6.1697,6.1686,6.1715,6.166,6.1605,6.1605,6.1605,6.1602,6.1598,6.0662,5.9258,5.9254,5.8113,5.6578,5.7361,5.7162,5.6496,5.6515,5.6455,5.6393,5.6324,5.5635,5.4763,5.4691,5.3382,5.1854,5.179,5.1221,5.0573,5.0446,5.0412,5.039,5.0333,5.0283,5.0271,5.0212,5.02,5.0151,5.0025,4.9986,4.9959,4.9906,4.9817,4.9514,4.8831,4.7946,4.7719,4.8604,4.8604,4.8831,4.9551,4.9627,4.9707,4.9896,5.0027,5.0225,5.0477,5.0579,5.0695,5.0945,5.1009,5.1084,5.1206,5.1269,5.1264,5.1219,5.1219,5.1136,5.1004,5.0963,5.0913,5.9575,6.0729,6.1951,6.2968,6.4804,6.6597,6.7573,6.8741,6.9752,7.026,7.0644,7.1026,7.1373,7.1448,7.1566,0.0,7.1987,7.1987,7.1987,7.1987,7.1987,7.1987,7.1997,7.2004,7.2004,7.2004,7.1497,7.0245,6.97,6.888,6.7668,6.7123,6.685,6.685,6.5522,6.4859,6.4859,6.3101,6.2238,6.2232,6.1876,6.1671,6.1657,6.1651,6.1641,6.1595,6.1595,6.1325,6.0893,6.0843,6.0134,5.9042,5.903,5.8273,5.7161,5.7022,5.6745,5.6455,5.6412,5.6352,5.6331,5.622,5.5557,5.4754,5.4645,5.3706,5.2538,5.1935,5.1535,5.107,5.0447,5.0271,5.0248,5.0188,5.0163,5.0163,5.0139,5.0101,5.0063,4.9999,4.9959,4.992,4.9893,4.9893,4.9779,4.9438,4.9097,4.8983,4.9362,4.94,4.9551,4.9855,4.992,5.0012,5.0175,5.0379,5.0553,5.072,5.0866,5.0981,5.1024,5.1125,5.112,5.112,5.1159,5.1186,5.1157,5.1063,5.0995,5.0875,5.0722,5.0672,6.0539,6.1757,6.3124,6.4605,6.6473,6.8263,6.9474,7.0444,7.1258,7.1885,7.1995,7.1987,7.1987,7.1987,7.1987,7.1987,7.1987,7.1987,7.1987,7.1987,7.1987,7.1987,7.1987,7.1987,7.1987,7.1987,7.1636,7.0777,7.0113,6.9255,6.8161,6.7498,6.7068,6.679,6.5385,6.4523,6.4286,6.2761,6.1897,6.1654,6.1654,6.1644,6.1588,6.1584,6.1619,6.1619,6.1573,6.1105,6.0364,6.0291,5.962,5.8602,5.8579,5.8047,5.7214,5.6558,5.6324,5.6352,5.6296,5.6265,5.6194,5.6087,5.5565,5.4957,5.4803,5.415,5.3234,5.2533,5.2165,5.1797,5.1065,5.0849,5.0837,5.0812,5.0799,5.0799,5.0786,5.0709,5.0669,5.0681,5.064,5.0599,5.0599,5.0599,5.0599,5.0599,5.0599,5.041,4.9969,4.9893,4.9893,4.9893,4.9946,5.0038,5.0188,5.0329,5.0493,5.0673,5.0825,5.0929,5.0988,5.105,5.1082,5.1082,5.105,5.1023,5.0988,5.0851,5.0761,5.069,5.0517,5.044,6.1403,6.3545,6.568,6.654,6.8679,7.0582,7.066,7.1324,7.1987,7.1987,7.1987,7.1987,7.1987,7.1987,7.1987,7.1987,7.1987,7.1987,7.1987,7.1987,7.1987,7.1987,7.1987,7.1987,0.0,7.1987,7.1636,7.0777,7.0699,6.9918,6.82,6.8083,6.7688,6.6814,6.5914,6.5045,6.4209,6.3311,6.2453,6.1598,6.1598,6.1588,6.1603,6.1582,6.1612,6.1607,6.1544,6.1066,6.0287,6.0233,5.9192,5.763,5.756,5.6997,5.6214,5.6139,5.616,5.6214,5.6213,5.6117,5.5993,5.5938,5.5837,5.5728,5.5516,5.4874,5.4152,5.3964,5.3315,5.2654,5.2538,5.2511,5.2511,5.2511,5.2511,5.2498,5.243,5.2417,5.2389,5.2357,5.2343,5.2329,5.2329,5.2329,5.2329,5.2329,5.2329,5.1736,5.012,4.9893,4.9893,4.9893,4.9946,5.0038,5.0188,5.0248,5.0396,5.0577,5.0682,5.0773,5.0914,5.0952,5.1012,5.1012,5.0937,5.0858,5.071,5.0625,5.0517,5.0396,5.0329,5.0259,6.2173,6.4044,6.5911,6.731,6.9179,7.0855,7.1441,7.1792,7.1831,7.1245,7.1128,7.0972,7.0387,7.027,7.027,7.027,7.0777,7.1126,7.1153,7.1582,7.193,7.1916,7.1913,0.0,0.0,0.0,0.0,7.1504,7.0944,7.0391,6.9806,6.8713,6.7968,6.7653,6.6244,6.5344,6.5063,6.4205,6.3343,6.2469,6.182,6.151,6.1462,6.1451,6.1472,6.1453,6.1447,6.0916,6.0034,5.9431,5.851,5.7402,5.6805,5.6357,5.6056,5.6007,5.5956,5.5938,5.5909,5.5912,5.5837,5.5728,5.561,5.5497,5.5389,5.5084,5.4674,5.4088,5.3731,5.3337,5.2699,5.252,5.2506,5.2503,5.2489,5.2437,5.2461,5.2409,5.2447,5.2419,5.2404,5.2404,5.2404,5.2404,5.2404,5.2404,5.195,5.1395,5.0827,5.0258,4.9893,4.9893,4.9906,4.9959,5.005,5.0114,5.0212,5.034,5.044,5.0525,5.0586,5.0587,5.0616,5.0616,5.0567,5.0556,5.0493,5.0396,5.0317,5.0259,5.0139,5.0076,6.2889,6.4684,6.636,6.7757,6.9393,7.0798,7.1384,7.1501,7.1345,7.0798,7.0174,6.9592,6.9045,6.8928,6.9045,6.9318,7.0096,7.0756,7.1093,7.1558,7.1897,7.1881,7.192,7.1876,0.0,0.0,0.0,7.1913,7.1394,7.0918,7.0606,6.9592,6.873,6.8097,6.6997,6.6087,6.5459,6.4895,6.413,6.3247,6.2301,6.183,6.1783,6.1458,6.1327,6.1344,6.1291,6.0756,5.9894,5.9318,5.854,5.7637,5.6777,5.6402,5.6327,5.5933,5.5728,5.5643,5.5717,5.5696,5.5649,5.5547,5.5401,5.5301,5.5236,5.5181,5.4998,5.4462,5.431,5.413,5.3528,5.3362,5.3348,5.329,5.329,5.329,5.329,5.329,5.329,5.329,5.329,5.329,5.329,5.329,5.329,5.329,5.2608,5.2002,5.1646,5.113,5.0789,5.0789,5.0523,5.0399,5.048,5.0215,5.0076,5.0151,5.0259,5.0317,5.0317,5.0336,5.0358,5.0358,5.0352,5.0306,5.0283,5.0175,5.0114,5.0089,4.9999,4.9946,6.3503,6.5457,6.7017,6.7918,6.9397,7.0606,7.0606,7.0606,7.0567,7.0411,6.9124,6.7996,0.0,0.0,6.8227,6.9046,6.9943,7.0836,7.1772,7.1945,7.197,0.0,0.0,0.0,0.0,0.0,0.0,7.1993,0.0,7.1534,7.0715,7.0598,6.9844,6.8183,6.8037,6.7192,6.5528,6.535,6.4828,6.393,6.2991,6.254,6.254,6.1646,6.1242,6.1234,6.1122,6.0604,5.9852,5.9716,5.916,5.8248,5.7396,5.7066,5.6939,5.6011,5.5562,5.5465,5.5558,5.5473,5.5364,5.5288,5.5223,5.517,5.5088,5.5113,5.5085,5.5014,5.5,5.4971,5.4935,5.492,5.492,5.492,5.492,5.492,5.492,5.492,5.492,5.492,5.492,5.492,5.492,5.492,5.492,5.492,5.4238,5.3442,5.257,5.2442,5.2404,5.2404,5.1722,5.1309,5.134,5.0594,5.0164,5.0215,5.0291,5.029,5.029,5.0388,5.0412,5.0412,5.0364,5.0291,5.0228,5.0164,5.0098,5.0044,4.9993,4.9955,6.3655,6.5457,6.7134,6.8617,6.9787,7.0606,7.0606,7.0606,7.006,6.8149,6.7446,6.674,6.5437,6.5667,0.0,6.7231,6.8635,0.0,7.1604,7.2357,0.0,7.3547,0.0,7.3527,7.3519,7.3456,0.0,0.0,7.2397,7.164,7.1347,7.0718,7.0166,6.9731,6.8433,6.7556,6.713,6.5754,6.4968,6.4722,6.3776,6.3284,6.3214,6.2274,6.1846,6.1753,6.1136,6.0718,6.0419,5.9731,5.9288,5.8959,5.8141,5.7759,5.7544,5.669,5.6308,5.6139,5.5452,5.5197,5.5157,5.5181,5.5127,5.5057,5.5042,5.4985,5.4941,5.4912,5.4912,5.4912,5.4882,5.492,5.492,5.492,5.492,5.492,5.492,5.492,5.492,5.492,5.492,5.492,5.492,5.492,5.492,5.492,5.4731,5.4314,5.348,5.2798,5.2404,5.2404,5.2229,5.2115,5.2144,5.1916,5.1802,5.1816,5.1844,5.1858,5.1858,5.1871,5.1871,5.1871,5.1858,5.1844,5.1816,5.1802,5.1788,5.1736,5.1036,5.0705,6.4325,6.565,6.6974,6.8283,6.8995,6.9473,6.9857,6.9411,6.8495,6.7053,6.5533,6.4276,6.3707,6.3925,6.4733,0.0,0.0,0.0,7.2015,7.2951,7.3596,0.0,7.4033,0.0,7.3985,7.3917,7.3837,0.0,7.3083,7.2487,7.212,7.1607,7.0986,7.0248,6.9261,6.8354,6.7522,6.6118,6.5361,6.5346,6.4431,6.3978,6.3919,6.2962,6.2297,6.1888,0.0,6.0993,6.052,6.0061,5.9766,5.9581,5.8792,5.8408,5.8214,5.7347,5.701,5.6825,5.5922,5.5613,5.5522,5.5171,5.5014,5.4941,5.4941,5.4912,5.492,5.492,5.492,5.492,5.492,5.492,5.492,5.492,5.492,5.492,5.492,5.492,5.492,5.492,5.492,5.492,5.492,5.492,5.492,5.492,5.492,5.4731,5.4276,5.3821,5.3518,5.3518,5.3177,5.2987,5.2987,5.2608,5.2404,5.2404,5.2404,5.2404,5.2404,5.2404,5.2404,5.2404,5.2376,5.2361,5.2361,5.2332,5.2317,5.2303,5.1782,5.1525,6.5245,6.604,6.6881,6.7775,6.7992,6.81,6.8761,6.7768,6.6573,6.6229,6.3659,6.1696,6.2438,6.264,6.35,6.6066,0.0,7.0779,7.2666,7.3539,7.4031,7.421,7.4188,7.4154,7.4096,7.3995,7.3946,7.3883,7.403,7.3728,7.2858,7.2665,7.1851,7.0108,7.0018,6.9137,6.7278,6.6459,6.5935,6.5756,6.4974,6.4627,6.4588,6.3625,6.2779,6.2065,0.0,0.0,6.0533,6.0418,6.027,6.0023,5.9337,5.9056,5.8942,5.8067,5.7718,5.7529,5.6732,5.6421,5.6224,5.5312,5.4941,5.492,5.492,5.492,5.492,5.492,5.492,5.492,5.492,5.492,5.492,5.492,5.492,5.492,5.492,5.492,5.492,5.492,5.492,5.492,5.492,5.492,5.492,5.492,5.492,5.492,5.492,5.492,5.492,5.492,5.4276,5.3859,5.3859,5.3177,5.2745,5.2731,5.2731,5.2693,5.2716,5.2716,5.2716,5.2716,5.2658,5.2628,5.2628,5.2553,5.2522,5.2522,5.2394,5.2356,6.5995,6.6816,6.7799,6.9303,6.9157,6.8515,6.8053,6.7184,6.5848,6.374,6.2309,6.1433,6.1477,6.2075,6.333,6.5846,6.7822,7.0138,7.3266,7.3751,7.4265,0.0,7.5644,7.5562,7.5548,7.5491,0.0,0.0,0.0,7.4755,7.3341,7.261,7.1415,6.9733,6.963,6.8769,6.7076,6.6855,6.6354,6.5635,6.5394,6.5244,6.5206,6.4215,6.3679,6.3451,0.0,0.0,6.1172,6.0449,6.0114,6.0099,5.9946,5.9863,5.9687,5.8889,5.8539,5.8363,5.7529,5.721,5.6929,5.5428,5.4897,5.492,5.492,5.492,5.492,5.492,5.492,5.492,5.492,5.492,5.492,5.492,5.492,5.492,5.492,5.492,5.492,5.492,5.492,5.492,5.492,5.492,5.492,5.492,5.492,5.492,5.492,5.492,5.492,5.492,5.4769,5.4693,5.4693,5.4541,5.4436,5.4398,5.4398,5.4367,5.4305,5.4305,5.4305,5.4305,5.4289,5.4289,5.4289,5.4274,5.4274,5.4274,5.3462,5.3091,6.6757,6.7441,6.8315,6.9529,6.8883,6.7884,6.756,6.6177,6.4489,6.2834,6.1136,6.0026,6.0369,6.075,6.1863,6.4293,6.6907,6.9444,7.1954,7.3395,7.4431,7.5207,7.5595,7.5818,7.5818,7.574,0.0,0.0,0.0,7.513,7.4036,7.2731,7.1602,7.0752,6.9834,6.8701,6.7446,6.6896,6.6239,6.5398,6.5321,6.529,6.529,6.4791,6.4324,6.3851,6.3052,0.0,6.133,6.0912,6.0425,6.0013,6.0013,5.9982,5.9912,5.9495,5.9365,5.9203,5.8369,5.8066,5.7876,5.6626,5.6209,5.6209,5.6209,5.6209,5.6209,5.6209,5.6209,5.6209,5.6209,5.6209,5.6209,5.6209,5.6209,5.6209,5.6209,5.6209,5.6209,5.6209,5.6178,5.6147,5.6147,5.61,5.6031,5.6031,5.6031,5.6031,5.6031,5.6031,5.576,5.4981,5.492,5.4905,5.486,5.486,5.4814,5.4736,5.4736,5.472,5.4689,5.4689,5.4689,5.4689,5.4641,5.4592,5.4543,5.4493,5.446,5.4371,5.3945,5.374,6.747,6.8052,6.8821,6.9627,6.8615,6.7321,6.6998,6.5153,6.3232,6.2211,6.0287,5.9022,5.9765,5.9896,6.063,6.2885,6.5821,6.8421,7.0235,7.237,7.386,7.4143,7.4878,0.0,7.5343,7.5468,0.0,0.0,0.0,0.0,7.4446,7.2914,7.1947,7.1729,7.0211,6.8962,6.8057,6.7136,6.6265,6.5427,6.5259,6.5144,6.5144,6.5128,6.4769,6.4106,6.3916,0.0,0.0,6.1614,6.1088,6.0454,6.0454,6.0302,6.0167,6.0167,6.0037,5.9809,5.9181,5.8954,5.8824,5.8142,5.7687,5.7384,5.7384,5.7384,5.7384,5.7384,5.7384,5.7384,5.7384,5.7384,5.7384,5.7368,5.739,5.7352,5.7337,5.7321,5.7321,5.7321,5.7273,5.7262,5.7262,5.7159,5.7109,5.7109,5.7109,5.7109,5.7109,5.7109,5.6668,5.5488,5.5201,5.5034,5.4805,5.4767,5.4736,5.4657,5.4641,5.4625,5.4608,5.4576,5.4576,5.4576,5.4455,5.4388,5.4357,5.4271,5.42,5.4109,5.4109,5.4109,6.7996,6.8761,6.951,7.0392,6.9318,6.7721,6.6096,6.4383,6.2695,6.108,6.0003,5.9569,6.0465,6.0606,6.1146,6.2848,6.4638,6.671,6.9165,7.0356,7.152,7.3051,0.0,0.0,7.4267,7.4898,0.0,0.0,0.0,0.0,7.4173,7.3186,7.2238,7.1477,7.0563,6.967,6.8794,6.7977,6.714,6.6286,6.542,6.5006,6.5044,6.4958,6.4868,6.4754,0.0,0.0,0.0,6.2614,6.2235,6.218,6.218,6.1705,6.1001,6.1001,6.053,5.9885,5.9826,5.9788,5.9788,5.9712,5.8635,5.7384,5.7384,5.7384,5.7384,5.7384,5.7384,5.7384,5.7384,5.7384,5.7368,5.7327,5.7311,5.7278,5.7142,5.7125,5.7125,5.7125,5.7125,5.7109,5.7109,5.7109,5.7109,5.7109,5.7109,5.7109,5.7109,5.7109,5.7033,5.6899,5.6236,5.5519,5.4764,5.4705,5.4657,5.4522,5.4439,5.4392,5.4343,5.4235,5.4163,5.4163,5.4145,5.4127,5.4127,5.4109,5.4109,5.4109,5.4109,5.4109,6.8326,6.9655,7.0696,7.1019,6.9873,6.8056,6.591,6.4129,6.2438,6.0761,5.9766,5.9293,5.9597,5.9674,6.0029,6.1106,6.2748,6.4543,6.6605,6.8024,6.9475,7.1205,7.2074,0.0,0.0,0.0,0.0,0.0,0.0,0.0,7.4638,7.3402,7.2508,7.2072,7.078,6.9659,6.8713,6.841,6.7802,6.7005,6.6097,6.5662,6.5624,6.5133,6.4888,6.4888,0.0,0.0,0.0,6.3241,6.2825,6.2408,6.2408,6.2197,6.1894,6.1894,6.1667,6.1326,6.0795,6.0605,6.053,6.0009,5.9387,5.8873,5.8884,5.8868,5.8857,5.8857,5.8769,5.8736,5.8736,5.8736,5.8719,5.8686,5.8686,5.8669,5.8635,5.858,5.858,5.858,5.8583,5.8513,5.8422,5.8406,5.8351,5.8259,5.824,5.824,5.824,5.824,5.8053,5.7565,5.6972,5.6488,5.6116,5.6011,5.5905,5.5818,5.5749,5.5714,5.5678,5.5118,5.4801,5.4801,5.437,5.4073,5.4055,5.4055,5.4019,5.3907,5.3907,5.3907,6.8138,6.9611,7.068,7.068,6.9576,6.7918,6.5438,6.3724,6.2231,6.0561,5.9774,5.9378,5.935,5.9335,5.9511,6.0023,6.1355,6.2893,6.4568,6.6053,6.7686,6.9641,0.0,7.1383,0.0,0.0,0.0,0.0,0.0,0.0,0.0,7.3479,7.2586,7.2472,7.0839,6.9663,6.8982,6.8716,6.8337,6.7731,6.6632,6.6101,6.6063,6.5267,6.4888,6.4888,0.0,0.0,0.0,6.3961,6.3658,6.3128,6.3128,6.2976,6.2714,6.2714,6.2546,6.2225,6.162,6.1393,6.1279,6.0416,6.0117,6.0097,5.9862,5.977,5.974,5.974,5.965,5.9616,5.9616,5.9616,5.9598,5.9581,5.9545,5.9528,5.9492,5.9474,5.94,5.94,5.9401,5.9328,5.9215,5.9196,5.9119,5.9004,5.9004,5.9004,5.9004,5.9004,5.876,5.8237,5.7884,5.7446,5.6942,5.6796,5.6742,5.6668,5.6613,5.6556,5.6556,5.5921,5.5603,5.5603,5.4783,5.4354,5.4317,5.4056,5.3907,5.3794,5.3794,5.3794,6.7237,6.832,6.8929,6.8929,6.832,6.7047,6.4415,6.3128,6.2026,6.0355,5.9975,6.0007,6.0084,6.0099,6.0099,6.0099,6.086,6.2002,6.3692,6.4682,6.6129,0.0,0.0,7.0492,0.0,0.0,0.0,0.0,0.0,0.0,0.0,7.3303,7.2413,7.2413,7.0782,6.9891,6.9891,6.902,6.8603,6.8565,6.6897,6.6101,6.6063,6.5267,6.4888,0.0,0.0,0.0,0.0,6.4888,6.4888,6.4888,6.4888,6.4305,6.3497,6.3497,6.2914,6.2088,6.2088,6.2088,6.1937,6.1163,6.0898,6.071,5.988,5.9616,5.9616,5.9616,5.9616,5.9616,5.9616,5.9616,5.9581,5.953,5.9401,5.9272,5.9215,5.9119,5.9004,5.9004,5.9004,5.9004,5.9004,5.9004,5.9004,5.9004,5.9004,5.9004,5.9004,5.9004,5.9004,5.8984,5.8967,5.8331,5.6743,5.6594,5.6594,5.6594,5.6498,5.6403,5.6403,5.6343,5.6283,5.6283,5.5429,5.4983,5.4983,5.4203,5.3794,5.3794,5.3794,5.3794,6.6152,6.7632,6.8695,6.8695,6.8088,6.6987,6.5017,6.3862,6.2952,6.1852,6.1186,6.0768,6.0763,6.0345,6.0118,6.0687,6.0991,6.1788,6.3458,6.4444,0.0,6.7721,6.9221,7.0591,0.0,0.0,0.0,0.0,0.0,0.0,0.0,7.3303,7.2413,7.2413,7.0763,6.9891,6.9891,6.9626,6.9475,6.9475,6.8337,6.7504,6.6973,6.6101,0.0,0.0,0.0,0.0,0.0,6.4779,6.4761,6.4743,6.4726,6.452,6.4275,6.4275,6.4049,6.3728,6.3125,6.2918,6.2767,6.192,6.1205,6.0642,6.0266,5.9853,5.9492,5.9365,5.9272,5.9178,5.9178,5.9178,5.9178,5.914,5.912,5.9082,5.9081,5.9024,5.9004,5.9004,5.9004,5.9002,5.8922,5.894,5.8882,5.8801,5.9248,5.962,5.962,6.0141,6.029,5.9694,6.0141,5.9905,5.8387,5.8216,5.8157,5.8157,5.8057,5.7959,5.7959,5.7418,5.7138,5.7138,5.632,5.5874,5.5874,5.5652,5.5503,5.5503,5.5503,5.5206,6.4699,6.6177,6.72,6.72,6.7049,6.648,6.4813,6.4017,6.3355,6.2559,6.1705,6.1098,6.1098,6.0416,6.0151,6.0947,6.1098,6.178,6.3827,6.4547,0.0,6.8126,0.0,0.0,0.0,0.0,0.0,0.0,0.0,0.0,0.0,0.0,7.2261,7.192,7.0574,6.9891,6.9891,6.9891,6.9891,6.9891,6.8982,6.813,6.7297,6.6408,0.0,0.0,0.0,0.0,0.0,6.4726,6.4652,6.4652,6.4634,6.4577,6.4539,6.4501,6.4462,6.4348,6.3725,6.3517,6.3405,6.2557,6.1653,6.092,6.086,6.0115,5.929,5.9158,5.9043,5.9004,5.9004,5.9004,5.9004,5.9004,5.9002,5.8962,5.8962,5.8942,5.8977,5.9275,5.935,5.9441,5.9731,5.9769,5.9727,5.9664,6.0072,6.0407,6.0407,6.0853,6.1001,6.0444,6.089,6.0843,5.9909,5.9512,5.9153,5.8818,5.8777,5.8698,5.8698,5.8215,5.7955,5.7955,5.7175,5.6766,5.6766,5.6392,5.6223,5.6223,5.6183,5.5845,0.0,6.4017,6.4737,6.4737,6.5267,6.5419,6.3865,6.3507,0.0,6.2559,6.1743,6.1174,6.1174,6.0568,6.034,6.1136,6.1288,6.2159,6.4661,6.5078,0.0,0.0,7.1313,0.0,0.0,0.0,0.0,0.0,0.0,0.0,0.0,0.0,7.1976,7.1123,7.0289,6.9872,6.9891,6.9891,6.9891,6.9872,6.8981,6.8129,6.726,6.6333,0.0,0.0,0.0,0.0,0.0,6.4596,6.4577,6.4577,6.4577,6.4501,6.4346,6.4304,6.4203,6.4079,6.3937,6.3894,6.3782,6.296,6.2176,6.1579,6.1504,6.0384,5.9171,5.9171,5.9171,5.9151,5.9151,5.9151,5.9151,5.9151,5.9109,5.9065,5.9065,5.8983,5.9107,5.985,5.9977,6.0258,6.1076,6.1187,6.1187,6.1187,6.1261,6.1298,6.1298,6.1336,6.1373,6.1298,6.1336,6.1336,6.1202,6.046,5.9664,5.8921,5.8846,5.8809,5.8809,5.8735,5.8698,5.8698,5.7971,5.7563,5.7563,5.6681,5.6249,5.6249,5.6145,5.6045,6.0833,0.0,6.2993,6.2993,6.3128,6.3166,0.0,6.2673,6.2635,6.2446,6.2235,6.2084,6.2084,6.1932,6.2084,6.288,6.3031,6.3676,6.5571,6.6935,0.0,6.974,7.0801,0.0,0.0,0.0,0.0,0.0,0.0,0.0,0.0,0.0,7.1817,7.0924,7.0073,6.9697,6.9738,6.9738,6.9699,6.9657,6.9448,6.8862,6.8032,6.7162,0.0,0.0,0.0,0.0,6.4596,6.4501,6.4423,6.4364,6.4264,6.4125,6.4021,6.4,6.3958,6.3937,6.3915,6.3894,6.3782,6.2913,6.2481,6.2199,6.1481,6.1018,6.0746,6.0746,6.072,6.0678,6.0678,6.0678,6.0678,6.0678,6.0694,6.0673,6.0673,6.0651,6.0667,6.0853,6.089,6.0964,6.115,6.1187,6.1187,6.1187,6.1707,6.2116,6.2116,6.2673,6.2822,6.219,6.2673,6.248,6.1167,6.0936,6.0815,6.063,5.9998,5.9605,5.9605,5.9032,5.8698,5.8698,5.8429,5.8233,5.8184,5.7956,5.7845,5.7882,5.7802,5.7405,6.1174,6.1705,6.2294,6.1894,6.2387,6.2825,6.2484,6.2408,6.2408,6.2408,6.2408,6.2408,6.2408,6.2408,6.2635,6.3469,6.3582,0.0,0.0,0.0,6.9929,7.0384,0.0,0.0,0.0,0.0,0.0,0.0,0.0,0.0,0.0,0.0,7.1148,7.0276,6.9823,6.9617,6.964,6.964,6.9637,6.9597,6.9536,6.8854,6.7587,6.7112,0.0,0.0,0.0,0.0,6.4267,6.4206,6.4145,6.4121,6.4021,6.3958,6.3894,6.3888,6.3867,6.3867,6.3764,6.3742,6.3705,6.3193,6.3059,6.2947,6.2472,6.2324,6.2181,6.1459,6.123,6.1187,6.1187,6.1187,6.1187,6.1187,6.1187,6.1187,6.1187,6.1187,6.1298,6.167,6.1744,6.1893,6.2264,6.2301,6.2301,6.2301,6.2673,6.297,6.297,6.3297,6.3325,6.2917,6.3206,6.3026,6.2068,6.21,6.1789,6.1048,6.0567,6.0307,6.0307,5.9529,5.8958,5.8588,5.8486,5.8459,5.8393,5.8349,5.8282,5.8201,5.8133,5.7762,6.2373,6.2449,6.2353,6.1515,6.2387,6.3203,6.2387,6.2197,6.2159,6.2046,6.2218,6.2408,6.2408,6.2711,6.3183,6.3865,0.0,0.0,6.7276,6.9512,7.0953,7.1085,0.0,0.0,0.0,0.0,0.0,0.0,0.0,0.0,0.0,0.0,0.0,6.9515,6.9495,6.9495,6.9495,6.9515,6.9536,6.9515,6.924,6.8345,6.6908,6.6539,6.5534,0.0,0.0,0.0,6.3894,6.3894,6.3894,6.3873,6.3873,6.3873,6.383,6.378,6.3758,6.3736,6.3624,6.3602,6.3602,6.3602,6.3602,6.3602,6.3602,6.3602,6.3342,6.1967,6.1558,6.1558,6.1558,6.1558,6.1558,6.1558,6.1558,6.1558,6.1558,6.1558,6.1781,6.245,6.2599,6.2822,6.349,6.3602,6.3602,6.3602,6.3579,6.3557,6.3557,6.3465,6.3359,6.3359,6.3242,6.3171,6.3147,6.3147,6.2593,6.1205,6.1043,6.0919,6.0808,6.0018,5.9279,5.8556,5.8423,5.8327,5.8305,5.8133,5.8093,5.8087,5.7909,5.779,6.2331,6.2633,6.3009,6.2373,6.2387,6.2349,6.1515,6.1288,6.1098,6.0416,6.1401,6.2408,6.2408,6.413,6.5571,6.5722,0.0,6.7958,0.0,0.0,7.0308,0.0,0.0,0.0,0.0,0.0,0.0,0.0,0.0,0.0,0.0,0.0,0.0,6.9094,6.9042,6.9035,6.9035,6.916,6.9203,6.9094,6.8271,6.7756,6.7434,6.6051,6.5245,0.0,0.0,6.3894,6.3894,6.3894,6.3888,6.3802,6.3802,6.3736,6.3647,6.3624,6.3624,6.3624,6.3602,6.3602,6.3602,6.3602,6.3602,6.3602,6.3602,6.3602,6.3565,6.3305,6.323,6.323,6.323,6.323,6.323,6.323,6.323,6.323,6.323,6.323,6.3267,6.3416,6.3416,6.3453,6.3602,6.3602,6.3602,6.3602,6.3511,6.3405,6.3405,6.3289,6.3218,6.3218,6.3194,6.3147,6.3051,6.3026,6.2867,6.2524,6.2056,6.1509,6.0845,6.0018,5.9493,5.9255,5.8479,5.7997,5.7904,5.7631,5.785,5.848,5.8202,5.8356,6.3426,6.3728,6.3954,6.3722,6.3341,6.2773,6.1902,6.1713,6.1582,6.119,6.2042,6.2912,6.2912,6.4575,6.6239,6.7127,0.0,6.9263,6.9717,0.0,0.0,0.0,0.0,0.0,0.0,0.0,0.0,0.0,0.0,0.0,0.0,0.0,0.0,0.0,6.8907,6.8921,6.8921,6.8481,6.8279,6.8242,6.7823,6.712,6.618,6.5434,6.483,6.4316,0.0,6.3758,6.3758,6.3758,6.3714,6.3691,6.3691,6.3647,6.3602,6.3602,6.3602,6.3602,6.3602,6.3602,6.3602,6.3602,6.3602,6.3602,6.3602,6.3602,6.3602,6.3602,6.3602,6.3602,6.3602,6.3602,6.3602,6.3602,6.3936,6.4136,6.3713,6.4308,6.4805,6.423,6.4489,6.4763,6.4692,6.4692,6.4692,6.4692,6.4274,6.3955,6.3955,6.3429,6.3099,6.3099,6.3026,6.2953,6.2904,6.288,6.2855,6.2805,6.2573,6.2058,6.1285,6.0438,5.9766,5.9184,5.826,5.7874,5.8092,5.7855,5.8109,5.8772,5.8492,5.845,6.4255,6.4481,6.452,6.4615,6.4198,6.3592,6.2912,6.276,6.2762,6.271,6.3182,6.3596,6.3596,6.4954,6.669,6.8576,6.9405,7.0084,0.0,0.0,0.0,0.0,0.0,0.0,0.0,0.0,0.0,0.0,0.0,0.0,0.0,0.0,6.8929,0.0,6.8791,6.8717,6.853,6.7803,6.7468,6.7568,6.7172,6.6247,6.4964,6.4778,6.4287,6.3602,6.3602,6.3602,6.3602,6.3602,6.3602,6.3602,6.3602,6.3602,6.3602,6.3602,6.3602,6.3602,6.3602,6.3602,6.3602,6.3602,6.3602,6.3602,6.3602,6.3602,6.3639,6.3802,6.3899,6.3899,6.3899,6.3899,6.3936,6.4159,6.4679,6.4916,6.4262,6.5116,6.5774,6.5001,6.531,6.573,6.5595,6.5595,6.5595,6.5595,6.5054,6.466,6.466,6.3984,6.3542,6.3542,6.3443,6.3392,6.3392,6.3209,6.3099,6.3099,6.2915,6.2511,6.1924,6.1092,6.0262,5.9554,5.8518,5.8185,5.8481,5.8242,5.8454,5.9016,5.875,5.8621,6.3859,6.4162,6.4166,6.4366,6.4464,6.452,6.4519,6.4482,6.4407,6.4426,6.4464,6.4502,6.4502,6.586,6.7803,7.0256,7.0671,7.101,0.0,0.0,0.0,0.0,0.0,0.0,0.0,0.0,0.0,0.0,0.0,0.0,0.0,0.0,0.0,0.0,0.0,6.8158,6.7415,6.7354,6.7388,6.7468,6.5789,6.4939,6.4791,6.4048,6.3676,6.3602,6.3602,6.3602,6.3602,6.3602,6.3602,6.3602,6.3602,6.3602,6.3602,6.3602,6.3602,6.3602,6.3602,6.3602,6.3602,6.3602,6.3602,6.3602,6.3602,6.3602,6.3788,6.4508,6.4693,6.4693,6.4693,6.4693,6.4939,6.5719,6.5979,6.5932,6.5703,6.5753,6.5742,6.5546,6.5558,6.5595,6.5595,6.5595,6.5595,6.5595,6.5496,6.5396,6.5396,6.5257,6.5118,6.5118,6.5118,6.5118,6.5118,6.442,6.4016,6.4016,6.3246,6.2743,6.2707,6.1837,6.1236,6.1073,5.9796,5.9105,5.9042,5.8481,5.8586,5.9335,5.8909,5.9039,6.3089,6.3334,6.3395,6.3594,6.4047,6.4593,6.518,6.5688,6.6156,6.6503,6.6674,6.6585,6.6059,6.6411,6.761,7.0089,7.0848,0.0,0.0,0.0,0.0,0.0,0.0,0.0,0.0,0.0,0.0,0.0,0.0,0.0,0.0,0.0,0.0,6.8578,0.0,6.8134,6.7317,6.6797,6.63,6.5826,6.5148,6.4545,6.4025,6.3728,6.3602,6.3602,6.3602,6.3602,6.3602,6.3602,6.3602,6.3602,6.3602,6.3602,6.3602,6.3602,6.3913,6.4322,6.4322,6.4716,6.5162,6.5162,6.5162,6.5162,6.5162,6.5055,6.5022,6.5319,6.5345,6.5358,6.5561,6.5538,6.5504,6.5838,6.6271,6.642,6.5817,6.6482,6.7024,6.6418,6.6688,6.6994,6.6916,6.689,6.689,6.689,6.6434,6.6114,6.6114,6.5658,6.5301,6.5301,6.5301,6.5301,6.5301,6.5007,6.4861,6.4861,6.3576,6.278,6.278,6.1885,6.1295,6.1064,5.9808,5.9255,5.9416,5.8885,5.8972,5.9615,5.9264,5.9241,6.2537,6.2595,6.2507,6.293,6.3606,6.4466,6.5674,6.6579,6.7438,6.8331,6.8391,6.8044,6.7182,6.6967,0.0,0.0,0.0,0.0,0.0,0.0,0.0,0.0,0.0,0.0,0.0,0.0,0.0,0.0,0.0,0.0,0.0,0.0,0.0,0.0,6.8481,6.7986,6.6945,6.6388,6.5534,6.4419,6.4419,6.4136,6.3602,6.3602,6.3602,6.3602,6.3602,6.3602,6.3602,6.3602,6.3602,6.3602,6.3602,6.3602,6.3639,6.3876,6.4345,6.4842,6.5102,6.5561,6.602,6.602,6.5997,6.5936,6.5936,6.5864,6.5791,6.6087,6.6075,6.6125,6.6629,6.6457,6.6198,6.6457,6.6926,6.711,6.6468,6.7243,6.7893,6.7505,6.7626,6.7894,6.8044,6.7871,6.7687,6.7687,6.721,6.688,6.688,6.6402,6.6072,6.6072,6.6072,6.6072,6.6072,6.5763,6.559,6.559,6.4192,6.3288,6.3133,6.215,6.1517,6.1163,6.0184,5.9695,5.985,5.9362,5.9356,5.9716,5.9351,5.9217,6.2343,6.1954,6.1512,6.2454,6.3297,6.4342,6.6007,6.7142,6.8271,6.978,6.9458,6.8637,6.7763,6.7614,0.0,0.0,0.0,0.0,0.0,0.0,0.0,0.0,0.0,0.0,0.0,0.0,0.0,0.0,0.0,0.0,0.0,0.0,0.0,0.0,6.8481,0.0,6.6128,6.6091,6.5274,6.3602,6.3602,6.3602,6.3602,6.3602,6.3602,6.3602,6.3602,6.3602,6.3602,6.3602,6.3602,6.3602,6.3602,6.3602,6.3691,6.4508,6.4805,6.4916,6.5831,6.5997,6.584,6.584,6.573,6.5632,6.5632,6.5632,6.5817,6.6666,6.6888,6.7073,6.7885,6.7479,6.711,6.7911,6.807,6.8044,6.7952,6.7899,6.8094,6.8779,6.8238,6.7944,6.8788,6.8238,6.7724,6.7687,6.7714,6.7714,6.7687,6.7687,6.7687,6.7687,6.7687,6.7687,6.7687,6.6782,6.6198,6.6198,6.5195,6.4367,6.3821,6.2755,6.1969,6.1523,6.1022,6.0666,6.0396,5.9884,5.9621,5.9588,5.9217,5.9012,6.0906,6.106,6.14,6.1765,6.3355,6.5052,6.6045,6.7904,6.9691,7.0714,7.0232,6.9178,6.7852,6.7523,0.0,0.0,0.0,0.0,0.0,0.0,0.0,0.0,0.0,0.0,0.0,0.0,0.0,0.0,0.0,0.0,0.0,0.0,0.0,0.0,6.8481,0.0,6.6128,6.6091,6.5274,6.3602,6.3602,6.3602,6.3602,6.3602,6.3602,6.3602,6.3602,6.3602,6.3602,6.3602,6.3602,6.3602,6.3602,6.3905,6.4331,6.4554,6.5321,6.6309,6.6568,6.6988,6.7418,6.7418,6.7418,6.7331,6.7331,6.728,6.7277,6.7535,6.7531,6.7526,6.7747,6.7637,6.7553,6.7878,6.7899,6.782,6.7767,6.7767,6.7998,6.8752,6.8715,6.8788,6.9596,6.9559,6.9192,6.8641,6.8531,6.8348,6.776,6.7687,6.7687,6.7687,6.7687,6.766,6.7552,6.7131,6.6818,6.6554,6.5627,6.4859,6.4403,6.3209,6.2436,6.2211,6.1072,6.0356,6.0202,5.9652,5.9386,5.9386,5.9115,5.9012,6.0545,6.0662,6.0943,6.1677,6.3488,6.5479,6.7212,6.8823,7.0062,7.0547,7.0201,6.9445,6.8176,6.7868,0.0,0.0,0.0,0.0,0.0,0.0,0.0,0.0,0.0,0.0,0.0,0.0,0.0,0.0,0.0,0.0,0.0,0.0,0.0,0.0,6.8481,0.0,6.6128,6.6091,6.5274,6.3602,6.3602,6.3602,6.3602,6.3602,6.3602,6.3602,6.3602,6.3602,6.3579,6.3534,6.3534,6.3511,6.3465,6.3692,6.414,6.4768,6.5632,6.6519,6.7172,6.7675,6.7993,6.7993,6.7967,6.7952,6.7952,6.7899,6.782,6.782,6.7767,6.7687,6.7687,6.7687,6.7714,6.782,6.7767,6.7687,6.7687,6.7944,6.8421,6.9229,6.9376,6.9633,7.044,7.0293,6.9926,6.9449,6.9376,6.9192,6.8715,6.8641,6.8641,6.8641,6.8293,6.8,6.7806,6.7251,6.6743,6.6319,6.5643,6.5085,6.474,6.3544,6.276,6.2546,6.1235,6.0671,6.0791,6.0112,5.9942,6.022,6.0013,5.9909,6.089,6.063,6.0497,6.2116,6.3788,6.5807,6.889,6.9595,6.9595,6.967,6.9707,6.9447,6.863,6.8481,0.0,0.0,0.0,0.0,0.0,0.0,0.0,0.0,0.0,0.0,0.0,0.0,0.0,0.0,0.0,0.0,0.0,0.0,0.0,0.0,6.8407,6.7651,6.6128,6.6017,6.5199,0.0,6.3579,6.3579,6.3579,6.3579,6.3602,6.3602,6.3579,6.3579,6.3579,6.3465,6.3359,6.3359,6.3279,6.3245,6.3503,6.5091,6.5718,6.6014,6.7527,6.7967,6.7899,6.7899,6.782,6.7687,6.7687,6.7687,6.7687,6.7687,6.7687,6.7687,6.7687,6.7687,6.7687,6.7687,6.7687,6.7724,6.7797,6.8385,6.9155,7.0036,7.022,7.0477,7.1284,7.0807,7.0293,7.022,7.0146,7.011,7.011,7.011,7.011,7.011,6.9282,6.8645,6.8291,6.7276,6.6382,6.5772,6.5415,6.5115,6.4876,6.373,6.2949,6.2657,6.159,6.1322,6.1883,6.1016,6.0913,6.1571,6.1394,6.1289,6.0333,6.1001,6.2116,6.3082,6.5088,6.7131,6.8444,6.8741,6.8927,6.9558,6.9707,6.9447,6.863,0.0,0.0,0.0,0.0,0.0,0.0,0.0,0.0,0.0,0.0,0.0,0.0,0.0,0.0,0.0,0.0,0.0,0.0,0.0,0.0,6.8481,6.7887,6.7094,6.6128,6.5422,6.4605,0.0,6.3511,6.3428,6.3465,6.3557,6.3602,6.3579,6.3488,6.3428,6.3405,6.3289,6.3218,6.3218,6.3194,6.3529,6.4095,6.5188,6.5886,6.647,6.7463,6.7767,6.7741,6.7741,6.7714,6.7687,6.7687,6.7687,6.7687,6.7687,6.7687,6.7687,6.7687,6.7687,6.7687,6.7687,6.7687,6.7871,6.8495,6.8788,6.9339,7.077,7.1064,7.1321,7.2092,7.2092,7.1762,7.1138,7.0513,7.011,7.011,7.011,7.0082,6.9941,6.9616,6.9216,6.8728,6.808,6.7201,6.6065,6.5688,6.5163,6.4358,6.3658,6.3235,6.3167,6.2057,6.1502,6.164,6.1292,6.1222,6.136,6.1289,6.1289,6.0667,6.1447,6.2784,6.4419,6.6054,6.7503,6.8296,6.8481,6.8593,6.9038,6.9113,6.9001,6.8556,0.0,0.0,0.0,0.0,0.0,0.0,0.0,0.0,0.0,0.0,0.0,0.0,0.0,0.0,0.0,0.0,0.0,0.0,6.7354,6.7354,6.7354,6.6874,6.6219,6.5403,6.485,6.4197,6.3419,6.3349,6.3289,6.3289,6.3396,6.3419,6.3419,6.3312,6.3289,6.3289,6.3147,6.3099,6.3099,6.3026,6.3211,6.3676,6.4926,6.561,6.6109,6.7283,6.7687,6.7687,6.7687,6.7687,6.7687,6.7687,6.7687,6.7687,6.7687,6.7687,6.7687,6.7687,6.7687,6.7687,6.7687,6.7687,6.7797,6.8238,6.8935,6.9706,7.055,7.1358,7.2018,7.2422,7.2438,7.227,7.183,7.1333,7.099,7.0931,7.0902,7.0697,7.0059,6.9479,6.8708,6.7744,6.6996,6.6138,6.5128,6.488,6.4526,6.3963,6.3619,6.3482,6.3588,6.2541,6.2191,6.2571,6.2084,6.2048,6.2393,6.2393,6.2393,6.1187,6.2116,6.3527,6.5608,6.6834,6.7688,6.8333,6.8481,6.8481,6.8481,6.8481,6.8481,0.0,0.0,0.0,0.0,0.0,0.0,0.0,0.0,0.0,0.0,0.0,0.0,0.0,0.0,0.0,0.0,0.0,0.0,6.6081,6.6044,6.602,6.602,6.5777,6.5284,6.4581,6.4314,6.3859,6.3194,6.3171,6.3147,6.3123,6.3123,6.3184,6.3194,6.3171,6.3147,6.3147,6.3026,6.2978,6.2953,6.283,6.289,6.3209,6.4751,6.5411,6.5742,6.7173,6.7687,6.7687,6.7687,6.7687,6.7687,6.766,6.766,6.766,6.7633,6.7633,6.766,6.766,6.7687,6.7687,6.7687,6.7687,6.7724,6.7871,6.9045,7.0146,7.0293,7.1476,7.2438,7.238,7.2263,7.221,7.2114,7.1957,7.1805,7.1656,7.1547,7.1091,7.0121,6.9106,6.7998,6.666,6.5788,6.4953,6.4137,6.4064,6.3922,6.36,6.36,6.3673,6.382,6.3086,6.2979,6.36,6.2979,6.2979,6.36,6.36,6.36,6.1187,6.3379,6.5682,6.6017,6.7243,6.837,6.8506,6.8481,6.8481,0.0,6.8481,0.0,0.0,0.0,0.0,0.0,0.0,0.0,0.0,0.0,0.0,0.0,0.0,0.0,0.0,0.0,0.0,0.0,0.0,0.0,6.5925,6.5828,6.5755,6.5755,6.4992,6.4548,6.4437,6.3712,6.3281,6.3194,6.3075,6.2953,6.2855,6.2855,6.2978,6.3171,6.3075,6.3026,6.3026,6.288,6.283,6.2805,6.2805,6.3282,6.4016,6.4971,6.5742,6.6476,6.7357,6.7687,6.7687,6.7687,6.7687,6.7687,6.7552,6.7561,6.7497,6.7322,6.7414,6.7561,6.7561,6.7606,6.7687,6.7687,6.7687,6.7871,6.8605,6.9449,7.0293,7.1027,7.1793,7.2204,7.1933,7.1878,7.1749,7.1395,7.1332,7.1236,7.1038,7.0462,6.9929,6.9594,6.8714,6.7917,6.7233,6.6778,6.5998,6.4934,6.4715,6.4292,6.3634,6.36,6.36,6.3637,6.3533,6.3496,6.36,6.3496,6.3496,6.36,6.36,6.36,6.2413,6.3936,6.5496,6.5979,6.6982,6.7924,6.8407,6.8481,6.8481,6.8481,6.8481,0.0,0.0,0.0,0.0,0.0,0.0,0.0,0.0,0.0,0.0,0.0,0.0,0.0,0.0,0.0,0.0,0.0,0.0,6.4879,6.4435,6.4327,6.4302,6.4302,6.3861,6.3591,6.3591,6.3186,6.2953,6.2953,6.2904,6.2855,6.278,6.278,6.2855,6.2953,6.2904,6.288,6.288,6.2805,6.278,6.278,6.278,6.3025,6.3539,6.4824,6.5469,6.5856,6.7139,6.7524,6.7405,6.7405,6.735,6.7303,6.7247,6.7069,6.6954,6.6917,6.7011,6.7097,6.7266,6.7378,6.7433,6.7552,6.7826,6.8182,6.8463,6.9271,7.0307,7.1347,7.1648,7.1651,7.1494,7.1304,7.111,7.0811,7.0678,7.0474,7.0235,6.9489,6.8746,6.801,6.7198,6.632,6.5477,6.5227,6.487,6.4231,6.412,6.3945,6.36,6.36,6.36,6.36,6.36,6.36,6.36,6.36,6.36,6.36,6.3489,6.3414,6.3334,6.4151,6.493,6.5561,6.6513,6.7465,6.806,6.8333,6.8481,0.0,0.0,0.0,0.0,0.0,0.0,0.0,0.0,0.0,0.0,0.0,0.0,0.0,0.0,0.0,0.0,0.0,0.0,0.0,0.0,6.3774,6.3184,6.3099,6.3075,6.3075,6.3002,6.2953,6.2953,6.2855,6.278,6.278,6.278,6.278,6.278,6.278,6.278,6.278,6.278,6.278,6.278,6.2755,6.2755,6.273,6.2705,6.2826,6.3156,6.4595,6.5138,6.5423,6.6764,6.7154,6.7004,6.6946,6.686,6.6809,6.675,6.6572,6.6385,6.6446,6.6506,6.6661,6.7143,6.7331,6.7425,6.7765,6.8153,6.8575,6.8764,6.9391,7.0258,7.1402,7.1272,7.0976,7.0878,7.0611,7.0339,7.006,6.992,6.9706,6.9416,6.8676,6.7865,6.7012,6.6244,6.5437,6.4516,6.4481,6.4267,6.3876,6.4048,6.4083,6.3876,6.4083,6.4186,6.4186,6.4114,6.3942,6.36,6.3563,6.3526,6.3526,6.3302,6.3227,6.3183,6.3998,6.4628,6.4665,6.5997,6.7317,6.7354,6.7924,6.8457,6.8334,0.0,0.0,0.0,0.0,0.0,0.0,0.0,0.0,0.0,0.0,0.0,0.0,0.0,0.0,0.0,0.0,0.0,0.0,0.0,6.3039,6.3026,6.288,6.2805,6.2805,6.2805,6.2805,6.2805,6.2805,6.278,6.278,6.278,6.278,6.278,6.278,6.278,6.278,6.278,6.278,6.278,6.2654,6.2629,6.2603,6.2449,6.2897,6.3636,6.4376,6.5121,6.5856,6.6365,6.6536,6.6506,6.6289,6.6258,6.6197,6.6079,6.6016,6.6021,6.5899,6.6016,6.6408,6.7194,6.7625,6.8024,6.8595,6.8749,6.9095,7.0229,7.0227,7.0197,7.0934,7.0711,7.0339,7.0026,6.9778,6.9525,6.9157,6.9083,6.9008,6.8781,6.8116,6.7591,6.7556,6.686,6.6262,6.6041,6.6003,6.5582,6.4703,6.5359,6.5428,6.4669,6.5359,6.5773,6.5773,6.5546,6.4824,6.36,6.3414,6.3302,6.3302,6.3114,6.3038,6.2933,6.3487,6.382,6.4338,6.4953,6.5742,6.6815,6.7259,6.7605,6.8072,0.0,0.0,0.0,0.0,0.0,0.0,0.0,0.0,0.0,0.0,0.0,0.0,0.0,0.0,0.0,0.0,0.0,0.0,0.0,0.0,6.2855,6.283,6.278,6.278,6.278,6.278,6.278,6.278,6.278,6.278,6.278,6.278,6.278,6.278,6.2755,6.2654,6.2475,6.2449,6.2526,6.2397,6.2291,6.2185,6.2024,6.244,6.3237,6.3863,6.4541,6.5215,6.5792,6.5922,6.5828,6.5601,6.5471,6.5374,6.5308,6.511,6.5011,6.5214,6.5346,6.5578,6.6149,6.6773,6.7554,6.8648,6.8736,6.8779,6.9768,7.0013,7.012,7.0234,6.9849,6.9453,6.9342,6.9157,6.8932,6.8667,6.8628,6.8551,6.8319,6.7696,6.7211,6.7211,6.6554,6.6066,6.599,6.599,6.5814,6.5462,6.5738,6.5773,6.5462,6.5589,6.565,6.565,6.5417,6.4903,6.4136,6.3909,6.3555,6.3114,6.2885,6.2808,6.2348,6.2717,6.2938,6.3713,6.4143,6.4709,6.5817,6.6297,6.6703,6.7465,0.0,0.0,0.0,0.0,0.0,0.0,0.0,0.0,0.0,0.0,0.0,0.0,0.0,0.0,0.0,0.0,0.0,0.0,0.0,0.0,6.278,6.278,6.278,6.278,6.278,6.278,6.278,6.278,6.278,6.278,6.278,6.278,6.278,6.2755,6.2654,6.25,6.2185,6.2105,6.2238,6.1996,6.1859,6.1784,6.1774,6.209,6.2664,6.3464,6.4055,6.4536,6.5092,6.5212,6.5112,6.491,6.4774,6.4671,6.4671,6.4498,6.4393,6.4672,6.474,6.4983,6.5815,6.6837,6.783,6.8788,6.875,6.8637,6.92,6.9526,6.9706,6.9634,6.9157,6.8819,6.8819,6.8628,6.8474,6.8319,6.828,6.8241,6.8123,6.7669,6.7359,6.7359,6.6911,6.6635,6.6635,6.6635,6.6531,6.6255,6.6458,6.6454,6.6178,6.6151,6.6171,6.6171,6.5972,6.5591,6.4923,6.4527,6.4113,6.3601,6.3441,6.3323,0.0,0.0,0.0,6.2781,6.3665,6.4352,6.4389,0.0,6.5841,6.6526,0.0,0.0,0.0,0.0,0.0,0.0,0.0,0.0,0.0,0.0,0.0,0.0,0.0,0.0,0.0,0.0,0.0,0.0,0.0,6.278,6.278,6.278,6.278,6.278,6.278,6.278,6.278,6.278,6.278,6.278,6.278,6.278,6.278,6.2654,6.2526,6.2344,6.1878,6.1768,6.1914,6.1466,6.1292,6.1306,6.1697,6.1894,6.2076,6.3246,6.3678,6.3786,6.4218,6.4393,6.4358,6.4216,6.418,6.418,6.418,6.418,6.418,6.418,6.4287,6.4743,6.628,6.7817,6.8973,6.9008,6.8857,6.8705,6.8705,6.8857,6.897,6.897,6.8667,6.8397,6.8397,6.8241,6.8083,6.8083,6.8083,6.8083,6.8083,6.8083,6.8083,6.8083,6.8083,6.8083,6.8083,6.8083,6.7773,6.7083,6.7507,6.749,6.6769,6.7221,6.751,6.751,6.7304,6.6806,6.6018,6.5277,6.4903,6.4903,6.4661,6.4613,6.1275,0.0,0.0,0.0,0.0,0.0,0.0,0.0,6.4552,6.537,0.0,0.0,0.0,0.0,0.0,0.0,0.0,0.0,0.0,0.0,0.0,0.0,0.0,0.0,0.0,0.0,0.0,0.0,6.3282,6.278,6.278,6.278,6.278,6.278,6.278,6.278,6.278,6.278,6.278,6.278,6.278,6.278,6.278,6.2654,6.2423,6.2078,6.1458,6.1051,6.0752,6.0788,6.0666,6.0489,6.1011,6.1546,6.2145,6.2924,6.3555,6.4043,6.404,6.4037,6.4001,6.382,6.3783,6.3783,6.3783,6.3783,6.3783,6.3929,6.4001,6.442,6.6131,6.7171,6.7892,6.8412,6.8397,6.828,6.828,6.8319,6.8397,6.8551,6.8358,6.8162,6.8162,6.8123,6.8083,6.8083,6.8083,6.8083,6.8083,6.8083,6.8083,6.8083,6.8083,6.8083,6.8083,6.8083,6.7935,6.761,6.7736,6.7616,6.7283,6.7284,6.7263,6.7263,6.7056,6.6795,6.6592,6.5846,6.5169,6.4661,6.4654,6.4884,0.0,0.0,0.0,0.0,0.0,0.0,6.2631,6.2615,6.2808,0.0,0.0,0.0,0.0,0.0,0.0,0.0,0.0,0.0,0.0,0.0,0.0,0.0,0.0,0.0,0.0,0.0,0.0,6.464,6.3503,6.278,6.278,6.278,6.278,6.278,6.278,6.2658,6.2291,6.2658,6.2658,6.2291,6.2658,6.2755,6.2705,6.2526,6.2212,6.1776,6.111,6.0538,6.0104,6.0072,5.9975,5.9951,6.0522,6.1221,6.1953,6.2578,6.3306,6.3929,6.382,6.3747,6.3747,6.3637,6.36,6.36,6.36,6.36,6.3637,6.3747,6.4267,6.4959,6.6009,6.6938,6.7722,6.8176,6.8162,6.8083,6.8083,6.8083,6.8123,6.8241,6.8162,6.8083,6.8083,6.8083,6.8083,6.8083,6.8083,6.8083,6.8083,6.8039,6.7965,6.7965,6.7919,6.7839,6.7839,6.7839,6.7799,6.7678,6.7597,6.751,6.7387,6.718,6.7056,6.7056,6.6854,6.6812,6.6812,6.6373,6.5933,6.5527,6.5527,6.5764,0.0,0.0,0.0,0.0,0.0,0.0,6.1115,6.0801,6.0955,0.0,0.0,0.0,0.0,0.0,0.0,0.0,0.0,0.0,0.0,0.0,0.0,0.0,0.0,0.0,0.0,6.6256,6.5301,6.5301,6.3759,6.278,6.278,6.278,6.278,6.278,6.278,6.2401,6.1594,6.2401,6.2401,6.1594,6.2413,6.2705,6.2578,6.2265,6.1887,6.1401,6.0818,6.0262,5.9748,5.9385,5.9386,5.959,6.015,6.0878,6.1639,6.2258,6.2944,6.36,6.36,6.36,6.36,6.36,6.36,6.36,6.36,6.36,6.36,6.3703,6.4772,6.5911,6.5979,6.7049,6.8083,6.8083,6.8083,6.8083,6.8083,6.8083,6.8083,6.8083,6.8083,6.8083,6.8083,6.8083,6.8083,6.8083,6.8083,6.8083,6.8083,6.7919,6.7799,6.7799,6.7597,6.751,6.751,6.751,6.751,6.7469,6.7304,6.718,6.7139,6.693,6.6812,6.6812,6.6812,6.6812,6.6812,6.6812,6.6812,6.6812,6.6812,6.6812,0.0,0.0,0.0,0.0,0.0,0.0,6.0508,6.0244,6.0316,0.0,0.0,0.0,0.0,0.0,0.0,0.0,0.0,0.0,0.0,0.0,0.0,0.0,0.0,0.0,0.0,6.6256,6.5301,6.5301,6.3759,6.278,6.278,6.278,6.278,6.278,6.278,6.2401,6.1594,6.2401,6.2401,6.1594,6.2302,6.2578,6.2423,6.196,6.1544,6.1081,6.0481,6.001,5.9586,5.9217,5.9081,5.9184,5.9944,6.0669,6.1428,6.2222,6.2944,6.36,6.36,6.36,6.36,6.36,6.36,6.36,6.36,6.36,6.3703,6.4324,6.5152,6.6014,6.6635,6.7428,6.8083,6.8083,6.8083,6.8083,6.8083,6.8083,6.8083,6.8083,6.8083,6.8083,6.8083,6.8083,6.8083,6.8083,6.8083,6.8083,6.8083,6.7919,6.7799,6.7799,6.7597,6.751,6.751,6.751,6.7428,6.7263,6.7222,6.7097,6.6896,6.6812,6.6812,6.6812,6.6812,6.6812,6.6812,6.6812,6.6812,6.6812,6.6812,6.6812,0.0,0.0,0.0,6.0056,0.0,0.0,0.0,5.8756,5.8952,5.9041,5.9413,5.9971,0.0,0.0,0.0,0.0,0.0,0.0,0.0,0.0,0.0,0.0,0.0,0.0,0.0,6.6623,6.5558,6.4751,6.3539,6.278,6.278,6.278,6.278,6.278,6.278,6.2218,6.1006,6.2218,6.2181,6.1006,6.2018,6.2397,6.2158,6.16,6.111,6.06,6.0072,5.9718,5.9419,5.9115,5.9012,5.9081,5.9875,6.0634,6.1392,6.2186,6.2944,6.36,6.36,6.36,6.36,6.36,6.36,6.36,6.36,6.3841,6.422,6.46,6.5531,6.6531,6.6876,6.7532,6.8083,6.8083,6.8083,6.8083,6.8083,6.8083,6.8083,6.8083,6.8083,6.8083,6.8083,6.8083,6.8083,6.8083,6.8083,6.8044,6.7925,6.7759,6.7597,6.7475,6.727,6.7146,6.7146,6.7146,6.7105,6.7014,6.7014,6.6938,6.6812,6.6812,6.6812,6.6812,6.6812,6.6812,6.6812,6.6812,6.6812,6.6812,6.6812,6.6812,0.0,0.0,0.0,0.0,0.0,5.8281,0.0,0.0,0.0,5.7811,0.0,0.0,0.0,0.0,0.0,0.0,0.0,0.0,0.0,0.0,0.0,0.0,0.0,0.0,0.0,6.6512,6.5411,6.3943,6.3209,6.278,6.278,6.278,6.278,6.278,6.278,6.2108,6.0639,6.2071,6.2046,6.0628,6.1781,6.2185,6.1887,6.1228,6.0661,6.0231,5.9748,5.9453,5.9285,5.9081,5.9012,5.9081,5.9875,6.0634,6.1392,6.2186,6.2944,6.36,6.36,6.36,6.36,6.36,6.36,6.36,6.36,6.4117,6.4738,6.4876,6.5911,6.7014,6.7152,6.7635,6.8083,6.8083,6.8044,6.8044,6.8044,6.8004,6.7965,6.7965,6.7965,6.7999,6.8039,6.8044,6.8004,6.7999,6.7965,6.7919,6.7759,6.7557,6.7387,6.7222,6.6972,6.6812,6.6812,6.6812,6.6812,6.6812,6.6812,6.6812,6.6812,6.6812,6.6812,6.6812,6.6812,6.6812,6.6812,6.6812,6.6812,6.6812,6.6812,6.6812,0.0,0.0,0.0,0.0,5.829,0.0,0.0,0.0,5.6551,5.7245,0.0,0.0,0.0,0.0,0.0,0.0,0.0,0.0,0.0,0.0,0.0,0.0,0.0,0.0,0.0,0.0,6.398,6.3025,6.2853,6.278,6.278,6.278,6.278,6.278,6.278,6.2365,6.1484,6.2365,6.229,6.1286,6.1943,6.1996,6.1515,6.0903,6.045,6.0072,5.9586,5.9319,5.9285,5.9081,5.9012,5.9081,5.9875,6.0634,6.1392,6.2186,6.2944,6.36,6.36,6.36,6.36,6.36,6.36,6.36,6.36,6.4117,6.4841,6.5531,6.6359,6.7152,6.7807,6.8049,6.8083,6.8083,6.7925,6.7839,6.7839,6.7678,6.7557,6.7557,6.7557,6.7597,6.7799,6.7839,6.7759,6.7597,6.7557,6.7557,6.755,6.7346,6.7222,6.718,6.6972,6.6812,6.6812,6.6812,6.6812,6.6812,6.6812,6.6812,6.6812,6.6812,6.6812,6.6812,6.6812,6.6812,6.6812,6.6812,6.6812,6.6812,6.6812,6.6812,0.0,0.0,0.0,0.0,0.0,0.0,0.0,0.0,5.6457,0.0,0.0,0.0,0.0,0.0,0.0,0.0,5.9182,0.0,0.0,0.0,0.0,0.0,0.0,0.0,0.0,0.0,0.0,0.0,0.0,6.278,6.278,6.278,6.278,6.278,6.278,6.2401,6.1594,6.2401,6.2327,6.1407,6.1732,6.1656,6.1198,6.0446,5.9943,5.9619,5.977,5.9806,5.984,6.0186,6.0323,6.0427,6.122,6.1427,6.1461,6.2668,6.3324,6.36,6.36,6.36,6.36,6.36,6.36,6.36,6.36,6.4117,6.4876,6.5669,6.6351,6.703,6.7753,6.7839,6.7759,6.7759,6.7678,6.7638,6.7638,6.7557,6.751,6.751,6.751,6.751,6.7469,6.7516,6.7597,6.7516,6.751,6.7469,6.7346,6.7263,6.7139,6.698,6.6854,6.6812,6.6812,6.6812,6.6812,6.6812,6.6812,6.6812,6.6812,6.6812,6.6812,6.6812,6.6812,6.6812,6.6812,6.6812,6.6812,6.6812,6.6812,6.6812,5.9033,0.0,0.0,0.0,0.0,0.0,0.0,0.0,0.0,0.0,0.0,0.0,0.0,0.0,0.0,0.0,0.0,0.0,0.0,0.0,0.0,0.0,0.0,0.0,0.0,0.0,0.0,6.3672,6.3147,6.278,6.278,6.278,6.278,6.278,6.278,6.2511,6.1924,6.2511,6.2386,6.1635,6.1679,6.143,6.0873,6.0132,5.9617,5.932,5.9702,6.0013,6.022,6.0771,6.1116,6.1392,6.2186,6.2115,6.17,6.3117,6.36,6.36,6.3526,6.3489,6.3452,6.3452,6.3452,6.3452,6.3452,6.3968,6.4725,6.5482,6.6156,6.6793,6.7547,6.7597,6.751,6.751,6.7469,6.7428,6.7428,6.7353,6.7312,6.7312,6.7312,6.7229,6.7139,6.7263,6.7387,6.7312,6.7312,6.7263,6.7097,6.7097,6.7014,6.6812,6.6812,6.6812,6.6812,6.6812,6.6812,6.6812,6.6812,6.6812,6.6812,6.6812,6.6812,6.6812,6.6812,6.6812,6.6812,6.6812,6.6812,6.6812,6.6812,6.6812,0.0,0.0,0.0,5.6536,0.0,0.0,0.0,0.0,5.6406,0.0,0.0,0.0,0.0,0.0,0.0,0.0,0.0,0.0,0.0,0.0,0.0,0.0,0.0,0.0,0.0,0.0,0.0,6.264,6.273,6.278,6.278,6.278,6.278,6.278,6.278,6.2805,6.2768,6.2805,6.2603,6.2149,6.1851,6.1315,6.0605,6.0072,5.9617,5.9285,5.9115,5.9495,6.0185,6.022,6.0668,6.1392,6.2186,6.2387,6.2309,6.325,6.36,6.3563,6.3377,6.3189,6.3038,6.3038,6.3038,6.3038,6.3038,6.3551,6.4269,6.5016,6.5801,6.6553,6.7305,6.7475,6.751,6.751,6.7346,6.718,6.718,6.7014,6.6812,6.6812,6.6812,6.6812,6.6812,6.7056,6.7139,6.6854,6.6812,6.6812,6.6812,6.6812,6.6812,6.6812,6.6812,6.6812,6.6812,6.6812,6.6812,6.6812,6.6812,6.6812,6.6812,6.6812,6.6812,6.6812,6.6812,6.6812,6.6812,6.6812,6.6812,6.6812,6.6812,6.6812,0.0,0.0,5.8254,5.692,0.0,0.0,0.0,0.0,0.0,0.0,0.0,0.0,0.0,0.0,0.0,0.0,0.0,0.0,0.0,0.0,0.0,0.0,0.0,0.0,0.0,0.0,0.0,6.181,6.1923,6.1777,0.0,6.1704,6.1998,6.1998,6.2511,6.278,6.278,6.2705,6.25,6.2185,6.1544,6.0933,6.0388,5.965,5.9425,5.9701,6.0005,6.0551,6.1305,6.1819,6.2196,6.2435,6.2747,6.2775,6.2771,6.3237,6.3302,6.3189,6.3114,6.3076,6.3,6.3,6.3,6.3,6.3,6.3171,6.3512,6.4264,6.4897,6.5601,6.6351,6.6772,6.7022,6.7022,6.698,6.6972,6.6972,6.6854,6.6812,6.6812,6.6812,6.6812,6.6812,6.6854,6.6896,6.6812,6.6812,6.6812,6.6812,6.6812,6.6812,6.6812,6.6812,6.6812,6.6812,6.6812,6.6812,6.6812,6.6812,6.6812,6.6812,6.6812,6.6812,6.6812,6.6812,6.6812,6.6812,6.6812,6.6812,6.6812,6.6812,6.6812,5.6586,5.7122,0.0,0.0,5.7017,0.0,5.6713,0.0,0.0,0.0,0.0,0.0,0.0,0.0,0.0,0.0,0.0,0.0,0.0,5.7991,0.0,0.0,0.0,0.0,0.0,0.0,6.1398,6.1292,6.1214,6.0933,0.0,0.0,6.13,6.1594,6.2058,6.2437,6.273,6.2552,6.2265,6.1823,6.139,6.0897,6.0296,5.9909,5.987,6.0206,6.0542,6.1118,6.1872,6.2351,6.2726,6.3,6.3,6.2962,6.2923,6.3114,6.3076,6.2885,6.2885,6.2847,6.2808,6.2808,6.2808,6.2808,6.2808,6.2808,6.3013,6.3995,6.4529,6.502,6.6038,6.6524,6.6812,6.6812,6.6812,6.6812,6.6812,6.6812,6.6812,6.6812,6.6812,6.6812,6.6812,6.6812,6.6812,6.6812,6.6812,6.6812,6.6812,6.6812,6.6812,6.6812,6.6812,6.6812,6.6812,6.6812,6.6812,6.6812,6.6812,6.6812,6.6812,6.6812,6.6812,6.6812,6.6812,6.6812,6.6812,6.6812,6.6812,6.6812,6.6812,6.6812]}]]